[[{"header":{"parameterUnit":"m.s-1","parameterCategory":1,"la1":30.6,"la2":28.766,"lo1":-90.7593,"lo2":-88.6598,"dy":0.0162,"dx":0.0183,"nx":116,"ny":114,"refTime":"2023-06-15T12:00:00:Z","depth":0,"parameterNumber":2,"parameterNumberName":"U-component_of_WINDS"},"data":[0.0,0.0,0.0,0.0,0.0,0.0,0.0,0.0,0.0,0.0,0.0,0.0,0.0,0.0,0.0,0.0,0.0,0.0,0.0,0.0,0.0,0.0,0.0,0.0,0.0,0.0,0.0,0.0,0.0,0.0,0.0,0.0,0.0,0.0,0.0,0.0,0.0,0.0,0.0,0.0,0.0,0.0,0.0,0.0,0.0,0.0,0.0,0.0,0.0,0.0,0.0,0.0,0.0,0.0,0.0,0.0,0.0,0.0,0.0,0.0,0.0,0.0,0.0,0.0,0.0,0.0,0.0,0.0,0.0,0.0,0.0,0.0,0.0,0.0,0.0,0.0,0.0,0.0,0.0,0.0,0.0,0.0,0.0,0.0,0.0,0.0,0.0,0.0,0.0,0.0,0.0,0.0,0.0,0.0,0.0,0.0,0.0,0.0,0.0,0.0,0.0,0.0,0.0,0.0,0.0,0.0,0.0,0.0,0.0,0.0,0.0,0.0,0.0,0.0,0.0,0.0,0.0,0.0,0.0,0.0,0.0,0.0,0.0,0.0,0.0,0.0,0.0,0.0,0.0,0.0,0.0,0.0,0.0,0.0,0.0,0.0,0.0,0.0,0.0,0.0,0.0,0.0,0.0,0.0,0.0,0.0,0.0,0.0,0.0,0.0,0.0,0.0,0.0,0.0,0.0,0.0,0.0,0.0,0.0,0.0,0.0,0.0,0.0,0.0,0.0,0.0,0.0,0.0,0.0,0.0,0.0,0.0,0.0,0.0,0.0,0.0,0.0,0.0,0.0,0.0,0.0,0.0,0.0,0.0,0.0,0.0,0.0,0.0,0.0,0.0,0.0,0.0,0.0,0.0,0.0,0.0,0.0,0.0,0.0,0.0,0.0,0.0,0.0,0.0,0.0,0.0,0.0,0.0,0.0,0.0,0.0,0.0,0.0,0.0,0.0,0.0,0.0,0.0,0.0,0.0,0.0,0.0,0.0,0.0,0.0,0.0,0.0,0.0,0.0,0.0,0.0,0.0,0.0,0.0,0.0,0.0,0.0,0.0,0.0,0.0,0.0,0.0,0.0,0.0,0.0,0.0,0.0,0.0,0.0,0.0,0.0,0.0,0.0,0.0,0.0,0.0,0.0,0.0,0.0,0.0,0.0,0.0,0.0,0.0,0.0,0.0,0.0,0.0,0.0,0.0,0.0,0.0,0.0,0.0,0.0,0.0,0.0,0.0,0.0,0.0,0.0,0.0,0.0,0.0,0.0,0.0,0.0,0.0,0.0,0.0,0.0,0.0,0.0,0.0,0.0,0.0,0.0,0.0,0.0,0.0,0.0,0.0,0.0,0.0,0.0,0.0,0.0,0.0,0.0,0.0,0.0,0.0,0.0,0.0,0.0,0.0,0.0,0.0,0.0,0.0,0.0,0.0,0.0,0.0,0.0,0.0,0.0,0.0,0.0,0.0,0.0,0.0,0.0,0.0,0.0,0.0,0.0,0.0,0.0,0.0,0.0,0.0,0.0,0.0,0.0,0.0,0.0,0.0,0.0,0.0,0.0,0.0,0.0,0.0,0.0,0.0,0.0,0.0,0.0,0.0,0.0,0.0,0.0,0.0,0.0,0.0,0.0,0.0,0.0,0.0,0.0,0.0,0.0,0.0,0.0,0.0,0.0,0.0,0.0,0.0,0.0,0.0,0.0,0.0,0.0,0.0,0.0,0.0,0.0,0.0,0.0,0.0,0.0,0.0,0.0,0.0,0.0,0.0,0.0,0.0,0.0,0.0,0.0,0.0,0.0,0.0,0.0,0.0,0.0,0.0,0.0,0.0,0.0,0.0,0.0,0.0,0.0,0.0,0.0,0.0,0.0,0.0,0.0,0.0,0.0,0.0,0.0,0.0,0.0,0.0,0.0,0.0,0.0,0.0,0.0,0.0,0.0,0.0,0.0,0.0,0.0,0.0,0.0,0.0,0.0,0.0,0.0,0.0,0.0,0.0,0.0,0.0,0.0,0.0,0.0,0.0,0.0,0.0,0.0,0.0,0.0,0.0,0.0,0.0,0.0,0.0,0.0,0.0,0.0,0.0,0.0,0.0,0.0,0.0,0.0,0.0,0.0,0.0,0.0,0.0,0.0,0.0,0.0,0.0,0.0,0.0,0.0,0.0,0.0,0.0,0.0,0.0,0.0,0.0,0.0,0.0,0.0,0.0,0.0,0.0,0.0,0.0,0.0,0.0,0.0,0.0,0.0,0.0,0.0,0.0,0.0,0.0,0.0,0.0,0.0,0.0,0.0,0.0,0.0,0.0,0.0,0.0,0.0,0.0,0.0,0.0,0.0,0.0,0.0,0.0,0.0,0.0,0.0,0.0,0.0,0.0,0.0,0.0,0.0,0.0,0.0,0.0,0.0,0.0,0.0,0.0,0.0,0.0,0.0,0.0,0.0,0.0,0.0,0.0,0.0,0.0,0.0,0.0,0.0,0.0,0.0,0.0,0.0,0.0,0.0,0.0,0.0,0.0,0.0,0.0,0.0,0.0,0.0,0.0,0.0,0.0,0.0,0.0,0.0,0.0,0.0,0.0,0.0,0.0,0.0,0.0,0.0,0.0,0.0,0.0,0.0,0.0,0.0,0.0,0.0,0.0,0.0,0.0,0.0,0.0,0.0,0.0,0.0,0.0,0.0,0.0,0.0,0.0,0.0,0.0,0.0,0.0,0.0,0.0,0.0,0.0,0.0,0.0,0.0,0.0,0.0,0.0,0.0,0.0,0.0,0.0,0.0,0.0,0.0,0.0,0.0,0.0,0.0,0.0,0.0,0.0,0.0,0.0,0.0,0.0,0.0,0.0,0.0,0.0,0.0,0.0,0.0,0.0,0.0,0.0,0.0,0.0,0.0,0.0,0.0,0.0,0.0,0.0,0.0,0.0,0.0,0.0,0.0,0.0,0.0,0.0,0.0,0.0,0.0,0.0,0.0,0.0,0.0,0.0,0.0,0.0,0.0,0.0,0.0,0.0,0.0,0.0,0.0,0.0,0.0,0.0,0.0,0.0,0.0,0.0,0.0,0.0,0.0,0.0,0.0,0.0,0.0,0.0,0.0,0.0,0.0,0.0,0.0,0.0,0.0,0.0,0.0,0.0,0.0,0.0,0.0,0.0,0.0,0.0,0.0,0.0,0.0,0.0,0.0,0.0,0.0,0.0,0.0,0.0,0.0,0.0,0.0,0.0,0.0,0.0,0.0,0.0,0.0,0.0,0.0,0.0,0.0,0.0,0.0,0.0,0.0,0.0,0.0,0.0,0.0,0.0,0.0,0.0,0.0,0.0,0.0,0.0,0.0,0.0,0.0,0.0,0.0,0.0,0.0,0.0,0.0,0.0,0.0,0.0,0.0,0.0,0.0,0.0,0.0,0.0,0.0,0.0,0.0,0.0,0.0,0.0,0.0,0.0,0.0,0.0,0.0,0.0,0.0,0.0,0.0,0.0,0.0,0.0,0.0,0.0,0.0,0.0,0.0,0.0,0.0,0.0,0.0,0.0,0.0,0.0,0.0,0.0,0.0,0.0,0.0,0.0,0.0,0.0,0.0,0.0,0.0,0.0,0.0,0.0,0.0,0.0,0.0,0.0,0.0,0.0,0.0,0.0,0.0,0.0,0.0,0.0,0.0,0.0,0.0,0.0,0.0,0.0,0.0,0.0,0.0,0.0,0.0,0.0,0.0,0.0,0.0,0.0,0.0,0.0,0.0,0.0,0.0,0.0,0.0,0.0,0.0,0.0,0.0,0.0,0.0,0.0,0.0,0.0,0.0,0.0,0.0,0.0,0.0,0.0,0.0,0.0,0.0,0.0,0.0,0.0,0.0,0.0,0.0,0.0,0.0,0.0,0.0,0.0,0.0,0.0,0.0,0.0,0.0,0.0,0.0,0.0,0.0,0.0,0.0,0.0,0.0,0.0,0.0,0.0,0.0,0.0,0.0,0.0,0.0,0.0,0.0,0.0,0.0,0.0,0.0,0.0,0.0,0.0,0.0,0.0,0.0,0.0,0.0,0.0,0.0,0.0,0.0,0.0,0.0,0.0,0.0,0.0,0.0,0.0,0.0,0.0,0.0,0.0,0.0,0.0,0.0,0.0,0.0,0.0,0.0,0.0,0.0,0.0,0.0,0.0,0.0,0.0,0.0,0.0,0.0,0.0,0.0,0.0,0.0,0.0,0.0,0.0,0.0,0.0,0.0,0.0,0.0,0.0,0.0,0.0,0.0,0.0,0.0,0.0,0.0,0.0,0.0,0.0,0.0,0.0,0.0,0.0,0.0,0.0,0.0,0.0,0.0,0.0,0.0,0.0,0.0,0.0,0.0,0.0,0.0,0.0,0.0,0.0,0.0,0.0,0.0,0.0,0.0,0.0,0.0,0.0,0.0,0.0,0.0,0.0,0.0,0.0,0.0,0.0,0.0,0.0,0.0,0.0,0.0,0.0,0.0,0.0,0.0,0.0,0.0,0.0,0.0,0.0,0.0,0.0,0.0,0.0,0.0,0.0,0.0,0.0,0.0,0.0,0.0,0.0,0.0,0.0,0.0,0.0,0.0,0.0,0.0,0.0,0.0,0.0,0.0,0.0,0.0,0.0,0.0,0.0,0.0,0.0,0.0,0.0,0.0,0.0,0.0,0.0,0.0,0.0,0.0,0.0,0.0,0.0,0.0,0.0,0.0,0.0,0.0,0.0,0.0,0.0,0.0,0.0,0.0,0.0,0.0,0.0,0.0,0.0,0.0,0.0,0.0,0.0,0.0,0.0,0.0,0.0,0.0,0.0,0.0,0.0,0.0,0.0,0.0,0.0,0.0,0.0,0.0,0.0,0.0,0.0,0.0,0.0,0.0,0.0,0.0,0.0,0.0,0.0,0.0,0.0,0.0,0.0,0.0,0.0,0.0,0.0,0.0,0.0,0.0,0.0,0.0,0.0,0.0,0.0,0.0,0.0,0.0,0.0,0.0,0.0,0.0,0.0,0.0,0.0,0.0,0.0,0.0,0.0,0.0,0.0,0.0,0.0,0.0,0.0,0.0,0.0,0.0,0.0,0.0,0.0,0.0,0.0,0.0,0.0,0.0,0.0,0.0,0.0,0.0,0.0,0.0,0.0,0.0,0.0,0.0,0.0,0.0,0.0,0.0,0.0,0.0,0.0,0.0,0.0,0.0,0.0,0.0,0.0,0.0,0.0,0.0,0.0,0.0,0.0,0.0,0.0,0.0,0.0,0.0,0.0,0.0,0.0,0.0,0.0,0.0,0.0,0.0,0.0,0.0,0.0,0.0,0.0,0.0,0.0,0.0,0.0,0.0,0.0,0.0,0.0,0.0,0.0,0.0,0.0,0.0,0.0,0.0,0.0,0.0,0.0,0.0,0.0,0.0,0.0,0.0,0.0,0.0,0.0,0.0,0.0,0.0,0.0,0.0,0.0,0.0,0.0,0.0,0.0,0.0,0.0,0.0,0.0,0.0,0.0,0.0,0.0,0.0,0.0,0.0,0.0,0.0,0.0,0.0,0.0,0.0,0.0,0.0,0.0,0.0,0.0,0.0,0.0,0.0,0.0,0.0,0.0,0.0,0.0,0.0,0.0,0.0,0.0,0.0,0.0,0.0,0.0,0.0,0.0,0.0,0.0,0.0,0.0,0.0,0.0,0.0,0.0,0.0,0.0,0.0,0.0,0.0,0.0,0.0,0.0,0.0,0.0,0.0,0.0,0.0,0.0,0.0,0.0,0.0,0.0,0.0,0.0,0.0,0.0,0.0,0.0,0.0,0.0,0.0,0.0,0.0,0.0,0.0,0.0,0.0,0.0,0.0,0.0,0.0,0.0,0.0,0.0,0.0,0.0,0.0,0.0,0.0,0.0,0.0,0.0,0.0,0.0,0.0,0.0,0.0,0.0,0.0,0.0,0.0,0.0,0.0,0.0,0.0,0.0,0.0,0.0,0.0,0.0,0.0,0.0,0.0,0.0,0.0,0.0,0.0,0.0,0.0,0.0,0.0,0.0,0.0,0.0,0.0,0.0,0.0,0.0,0.0,0.0,0.0,0.0,0.0,0.0,0.0,0.0,0.0,0.0,0.0,0.0,-2.9142,0.0,0.0,0.0,0.0,0.0,0.0,0.0,0.0,0.0,0.0,0.0,0.0,0.0,0.0,0.0,0.0,0.0,0.0,0.0,0.0,0.0,0.0,0.0,0.0,0.0,0.0,0.0,0.0,0.0,0.0,0.0,0.0,0.0,0.0,0.0,0.0,0.0,0.0,0.0,0.0,0.0,0.0,0.0,0.0,0.0,0.0,0.0,0.0,0.0,0.0,0.0,0.0,0.0,0.0,0.0,0.0,0.0,0.0,0.0,0.0,0.0,0.0,0.0,0.0,0.0,0.0,0.0,0.0,0.0,0.0,0.0,0.0,0.0,0.0,0.0,0.0,0.0,0.0,0.0,0.0,0.0,0.0,0.0,0.0,0.0,0.0,0.0,0.0,0.0,0.0,0.0,0.0,0.0,0.0,0.0,0.0,0.0,0.0,0.0,0.0,0.0,0.0,0.0,0.0,0.0,0.0,0.0,0.0,0.0,0.0,0.0,0.0,0.0,0.0,0.0,0.0,-2.9821,0.0,0.0,0.0,0.0,0.0,0.0,0.0,0.0,0.0,0.0,0.0,0.0,0.0,0.0,0.0,0.0,0.0,0.0,0.0,0.0,0.0,0.0,0.0,0.0,0.0,0.0,0.0,0.0,0.0,0.0,0.0,0.0,0.0,0.0,0.0,0.0,0.0,0.0,0.0,0.0,0.0,0.0,0.0,0.0,0.0,0.0,0.0,0.0,0.0,0.0,0.0,0.0,0.0,0.0,0.0,0.0,0.0,0.0,0.0,0.0,0.0,0.0,0.0,0.0,0.0,0.0,0.0,0.0,0.0,0.0,0.0,0.0,0.0,0.0,0.0,0.0,0.0,0.0,0.0,0.0,0.0,0.0,0.0,0.0,0.0,0.0,0.0,0.0,0.0,0.0,0.0,0.0,0.0,0.0,0.0,0.0,0.0,0.0,0.0,0.0,0.0,0.0,0.0,0.0,0.0,0.0,0.0,0.0,-3.4996,-3.576,-3.6455,-3.7184,-3.7414,-3.7049,-3.4296,-3.2506,-3.1481,-3.0271,0.0,0.0,0.0,0.0,0.0,0.0,0.0,0.0,0.0,0.0,0.0,0.0,0.0,0.0,0.0,0.0,0.0,0.0,0.0,0.0,0.0,0.0,0.0,0.0,0.0,0.0,0.0,0.0,0.0,0.0,0.0,0.0,0.0,0.0,0.0,0.0,0.0,0.0,0.0,-1.4268,-1.467,-1.4866,0.0,0.0,0.0,0.0,0.0,0.0,0.0,0.0,0.0,0.0,0.0,0.0,0.0,0.0,0.0,0.0,0.0,0.0,0.0,0.0,0.0,0.0,0.0,0.0,0.0,0.0,0.0,0.0,0.0,0.0,0.0,0.0,0.0,0.0,0.0,0.0,0.0,0.0,0.0,0.0,0.0,0.0,0.0,0.0,-1.8983,-1.8637,0.0,0.0,0.0,0.0,0.0,0.0,0.0,0.0,0.0,0.0,0.0,0.0,0.0,-3.2397,-3.2539,-3.4324,-3.529,-3.5505,-3.6975,-3.7717,-3.7869,-3.9001,-3.9397,-3.9196,-3.8496,0.0,-3.4204,-3.3225,0.0,0.0,0.0,0.0,0.0,0.0,0.0,0.0,0.0,0.0,0.0,0.0,0.0,0.0,0.0,0.0,0.0,0.0,0.0,0.0,0.0,0.0,0.0,0.0,0.0,0.0,0.0,0.0,0.0,0.0,0.0,0.0,0.0,0.0,0.0,0.0,0.0,0.0,0.0,0.0,0.0,0.0,0.0,0.0,-1.5848,-1.5817,0.0,0.0,0.0,0.0,0.0,0.0,0.0,0.0,0.0,0.0,0.0,0.0,0.0,0.0,0.0,0.0,0.0,0.0,0.0,0.0,0.0,0.0,0.0,0.0,0.0,0.0,0.0,0.0,0.0,0.0,0.0,0.0,0.0,0.0,0.0,0.0,0.0,0.0,0.0,-1.8835,-1.9222,-1.9518,-2.0121,-2.0739,0.0,0.0,0.0,0.0,0.0,0.0,0.0,0.0,0.0,-3.0084,-3.2335,-3.3779,-3.4257,-3.57,-3.6897,-3.7782,-3.882,-3.9505,-3.998,-4.0501,-4.0613,-4.0414,-3.9989,-3.8829,-3.71,-3.5558,-3.4334,-3.339,0.0,0.0,0.0,0.0,-3.1637,-3.1637,0.0,0.0,0.0,0.0,0.0,0.0,0.0,0.0,0.0,0.0,0.0,0.0,0.0,0.0,0.0,0.0,0.0,0.0,0.0,0.0,0.0,0.0,0.0,0.0,0.0,0.0,0.0,0.0,0.0,0.0,0.0,0.0,0.0,0.0,0.0,0.0,0.0,0.0,0.0,0.0,0.0,0.0,0.0,0.0,0.0,0.0,0.0,0.0,0.0,0.0,0.0,0.0,0.0,0.0,0.0,0.0,0.0,0.0,0.0,0.0,0.0,0.0,0.0,0.0,0.0,0.0,0.0,0.0,0.0,0.0,0.0,0.0,0.0,0.0,0.0,0.0,0.0,-1.912,-1.9539,-2.0185,-2.0826,-2.1488,0.0,0.0,0.0,0.0,0.0,0.0,-2.8407,-2.9982,-3.1107,-3.1619,-3.3545,-3.4956,-3.5773,-3.6896,-3.8161,-3.9546,-4.0241,-4.0991,-4.1714,-4.191,-4.1862,-4.1541,-4.1095,-4.0386,-3.9503,-3.7441,-3.6051,-3.5213,-3.442,-3.4129,-3.4042,-3.3954,-3.3966,-3.3966,0.0,0.0,0.0,0.0,0.0,0.0,0.0,0.0,0.0,0.0,0.0,0.0,0.0,0.0,0.0,0.0,0.0,0.0,0.0,0.0,0.0,0.0,0.0,0.0,0.0,0.0,0.0,0.0,0.0,0.0,0.0,0.0,0.0,0.0,0.0,0.0,0.0,0.0,0.0,0.0,0.0,0.0,0.0,0.0,0.0,0.0,0.0,0.0,0.0,0.0,0.0,0.0,0.0,0.0,0.0,0.0,0.0,0.0,0.0,0.0,0.0,0.0,0.0,0.0,0.0,0.0,0.0,0.0,0.0,0.0,0.0,0.0,0.0,0.0,0.0,0.0,0.0,0.0,0.0,-2.0361,-2.1422,0.0,0.0,0.0,0.0,-2.6598,-2.7398,-2.8434,-2.991,-3.0996,-3.2116,-3.332,-3.4766,-3.6031,-3.7096,-3.8087,-3.9064,-3.9964,-4.1104,-4.1918,-4.2449,-4.3322,-4.3421,-4.2905,-4.2515,-4.195,-4.1006,-3.8734,-3.7324,-3.6574,-3.6266,-3.6018,-3.5889,-3.6147,-3.6241,-3.6241,0.0,0.0,0.0,0.0,0.0,0.0,0.0,0.0,0.0,0.0,0.0,0.0,0.0,0.0,0.0,0.0,0.0,0.0,0.0,0.0,0.0,0.0,0.0,0.0,0.0,0.0,0.0,0.0,0.0,0.0,0.0,0.0,0.0,0.0,0.0,0.0,0.0,0.0,0.0,0.0,0.0,0.0,0.0,0.0,0.0,0.0,0.0,0.0,0.0,0.0,0.0,0.0,0.0,0.0,0.0,0.0,0.0,0.0,0.0,0.0,0.0,0.0,0.0,0.0,0.0,0.0,0.0,0.0,0.0,0.0,0.0,0.0,0.0,0.0,0.0,0.0,0.0,0.0,0.0,-2.084,-2.1848,0.0,-2.3462,-2.4506,-2.5653,-2.6915,-2.8003,-2.919,-3.0463,-3.188,-3.3112,-3.4007,-3.5175,-3.6418,-3.7687,-3.8409,-3.9482,-4.0869,-4.1582,-4.2151,-4.2502,-4.2801,-4.2749,-4.2394,-4.1917,-4.1197,-4.0298,-3.9341,-3.8792,-3.8539,-3.8098,-3.7888,-3.785,-3.809,-3.8203,-3.8254,0.0,0.0,0.0,0.0,0.0,0.0,0.0,0.0,0.0,0.0,0.0,0.0,0.0,0.0,0.0,0.0,0.0,0.0,0.0,0.0,0.0,0.0,0.0,0.0,0.0,0.0,0.0,0.0,0.0,0.0,0.0,0.0,0.0,0.0,0.0,0.0,0.0,0.0,0.0,0.0,0.0,0.0,-1.3406,0.0,0.0,0.0,0.0,0.0,0.0,0.0,0.0,0.0,0.0,0.0,0.0,0.0,0.0,0.0,0.0,0.0,0.0,0.0,0.0,0.0,0.0,0.0,0.0,0.0,0.0,0.0,0.0,0.0,0.0,0.0,0.0,0.0,0.0,0.0,-2.0401,-2.1215,-2.2205,-2.3206,-2.415,-2.5382,-2.6595,-2.7678,-2.8885,-3.0074,-3.1235,-3.251,-3.3594,-3.4561,-3.5526,-3.6679,-3.7971,-3.8591,-3.9675,-4.1117,-4.1593,-4.2059,-4.2506,-4.2626,-4.2519,-4.2207,-4.1785,-4.1213,-4.0567,-4.0322,-4.0226,-4.0253,-3.9576,-3.944,-3.9599,-3.9988,-4.015,-4.0162,0.0,0.0,0.0,0.0,0.0,0.0,0.0,0.0,0.0,0.0,0.0,0.0,0.0,0.0,0.0,0.0,0.0,0.0,0.0,0.0,0.0,0.0,0.0,0.0,0.0,0.0,0.0,0.0,0.0,0.0,0.0,0.0,0.0,0.0,0.0,0.0,0.0,0.0,0.0,0.0,0.0,0.0,-1.3494,0.0,0.0,0.0,0.0,0.0,0.0,0.0,0.0,0.0,0.0,0.0,0.0,0.0,0.0,0.0,0.0,0.0,0.0,0.0,0.0,0.0,0.0,0.0,0.0,0.0,0.0,0.0,0.0,0.0,0.0,0.0,0.0,0.0,-1.962,-2.0165,-2.0748,-2.1501,-2.2609,-2.3743,-2.4839,-2.6336,-2.7703,-2.89,-2.9993,-3.1115,-3.2236,-3.2746,-3.3645,-3.5072,-3.5874,-3.6815,-3.7888,-3.867,-3.9627,-4.0772,-4.1083,-4.1644,-4.2457,-4.2806,-4.2806,-4.2469,-4.2224,-4.2004,-4.1883,-4.1625,-4.1602,-4.168,-4.0765,-4.0682,-4.1196,-4.1826,-4.2054,-4.2054,0.0,0.0,0.0,0.0,0.0,0.0,0.0,0.0,0.0,0.0,0.0,0.0,0.0,0.0,0.0,0.0,0.0,0.0,0.0,0.0,0.0,0.0,0.0,0.0,0.0,0.0,0.0,0.0,0.0,0.0,0.0,0.0,0.0,0.0,0.0,0.0,0.0,0.0,0.0,0.0,0.0,0.0,-1.4126,0.0,0.0,0.0,0.0,0.0,0.0,0.0,0.0,0.0,0.0,0.0,0.0,0.0,0.0,0.0,0.0,0.0,0.0,0.0,0.0,0.0,0.0,0.0,0.0,0.0,0.0,0.0,0.0,0.0,0.0,0.0,0.0,-1.9851,-2.0043,-2.026,-2.0725,-2.1594,-2.3031,-2.4277,-2.5098,-2.6857,-2.8263,-2.9033,-3.0143,-3.1168,-3.2049,-3.3029,-3.4087,-3.5122,-3.5793,-3.6782,-3.8011,-3.847,-3.9253,-4.0358,-4.0932,-4.1416,-4.1834,-4.2199,-4.2142,-4.1846,-4.2192,-4.2055,-4.1649,-4.1673,-4.1831,-4.2023,-4.1828,-4.184,-4.2019,-4.268,-4.3032,-4.3207,0.0,0.0,0.0,0.0,0.0,0.0,0.0,0.0,0.0,0.0,0.0,0.0,0.0,0.0,0.0,0.0,0.0,0.0,0.0,0.0,0.0,0.0,0.0,0.0,0.0,0.0,0.0,0.0,0.0,0.0,0.0,0.0,0.0,0.0,0.0,0.0,0.0,0.0,0.0,0.0,0.0,0.0,-1.4986,-1.4795,-1.435,-1.3796,-1.3796,-1.3597,-1.3348,-1.3348,0.0,0.0,0.0,0.0,0.0,0.0,0.0,0.0,0.0,0.0,0.0,0.0,0.0,0.0,0.0,0.0,0.0,0.0,0.0,0.0,0.0,0.0,0.0,0.0,-1.9635,-2.009,-2.0581,-2.0712,-2.1147,-2.2124,-2.3365,-2.4586,-2.5665,-2.7176,-2.8488,-2.9584,-3.0438,-3.1339,-3.2215,-3.3156,-3.4025,-3.4812,-3.5673,-3.6562,-3.7501,-3.7985,-3.8752,-3.9826,-4.0246,-4.0641,-4.1021,-4.1344,-4.1402,-4.1242,-4.1716,-4.1882,-4.1852,-4.1981,-4.2233,-4.2572,0.0,0.0,0.0,0.0,-4.3796,-4.3964,0.0,0.0,0.0,0.0,0.0,0.0,0.0,0.0,0.0,0.0,0.0,0.0,0.0,0.0,0.0,0.0,0.0,0.0,0.0,0.0,0.0,0.0,0.0,0.0,0.0,0.0,0.0,0.0,0.0,0.0,0.0,0.0,0.0,0.0,0.0,0.0,0.0,0.0,0.0,0.0,0.0,0.0,-1.5876,-1.5468,-1.5118,-1.4902,-1.4902,-1.483,-1.4684,-1.4684,0.0,0.0,0.0,0.0,0.0,0.0,0.0,0.0,0.0,0.0,0.0,0.0,0.0,0.0,0.0,0.0,0.0,0.0,0.0,0.0,0.0,0.0,0.0,0.0,-1.9604,-2.0091,-2.1154,-2.1404,-2.1832,-2.2863,-2.3658,-2.4735,-2.627,-2.7352,-2.8581,-3.0128,-3.0675,-3.1363,-3.2457,0.0,0.0,0.0,0.0,-3.6237,-3.6595,-3.7429,-3.8238,-3.9072,-3.9249,-3.9591,-4.0106,-4.0549,-4.0723,-4.0735,-4.1141,-4.1729,-4.2352,-4.2352,-4.2701,-4.3153,-4.2498,-4.2666,-4.3377,-4.3962,-4.4161,-4.4235,0.0,0.0,0.0,0.0,0.0,0.0,0.0,0.0,0.0,0.0,0.0,0.0,0.0,0.0,0.0,0.0,0.0,0.0,0.0,0.0,0.0,0.0,0.0,0.0,0.0,0.0,0.0,0.0,0.0,0.0,0.0,0.0,0.0,0.0,0.0,0.0,0.0,0.0,0.0,0.0,0.0,0.0,-1.67,-1.6147,-1.5488,-1.4902,-1.4902,-1.483,-1.4684,-1.4684,-1.4684,-1.4684,-1.4684,0.0,0.0,0.0,0.0,0.0,0.0,0.0,0.0,0.0,0.0,0.0,0.0,0.0,0.0,0.0,0.0,0.0,0.0,0.0,0.0,-1.9663,-2.0403,-2.1057,-2.1318,-2.2097,-2.2715,-2.295,-2.4089,-2.5161,-2.6008,-2.7463,-2.8646,-2.9213,-3.0265,-3.1024,-3.1247,-3.2021,-3.2813,-3.3739,-3.4529,-3.5279,-3.603,-3.7028,-3.7566,-3.7796,-3.8823,0.0,-3.9473,-4.0316,-4.0723,-4.0758,-4.1525,-4.2182,-4.2736,-4.2842,-4.2885,-4.2937,-4.302,-4.3169,-4.3326,-4.3451,-4.3514,-4.3573,0.0,0.0,0.0,0.0,0.0,0.0,0.0,0.0,0.0,0.0,0.0,0.0,0.0,0.0,0.0,0.0,0.0,0.0,0.0,0.0,0.0,0.0,0.0,0.0,0.0,0.0,0.0,0.0,0.0,0.0,0.0,0.0,0.0,0.0,0.0,0.0,0.0,0.0,0.0,0.0,0.0,0.0,-1.7797,-1.7295,-1.674,-1.6202,-1.6202,-1.6035,-1.5771,-1.5618,-1.5549,-1.5523,-1.53,-1.524,-1.5206,0.0,0.0,0.0,0.0,0.0,0.0,0.0,0.0,0.0,0.0,0.0,0.0,0.0,0.0,-1.8864,0.0,0.0,-2.0384,-2.0687,-2.1334,-2.1944,-2.2322,-2.2811,-2.33,-2.3746,-2.4663,-2.557,-2.6482,-2.7597,-2.843,-2.8984,-2.9745,-3.0323,-3.0616,-3.1396,-3.2224,-3.3085,-3.3809,-3.4684,-3.5665,-3.6156,-3.6767,-3.7435,-3.8047,-3.8574,-3.906,-3.972,-4.0188,-4.0491,-4.1113,-4.1765,-4.2423,-4.283,-4.303,-4.3075,-4.3075,-4.3075,-4.3075,-4.3263,-4.3314,-4.3396,0.0,0.0,0.0,0.0,0.0,0.0,0.0,0.0,0.0,0.0,0.0,0.0,0.0,0.0,0.0,0.0,0.0,0.0,0.0,0.0,0.0,0.0,0.0,0.0,0.0,0.0,0.0,0.0,0.0,0.0,0.0,0.0,0.0,0.0,0.0,0.0,0.0,0.0,0.0,0.0,0.0,0.0,-1.8643,-1.8324,-1.7881,-1.7446,-1.7446,-1.722,-1.6867,-1.6519,-1.6381,-1.6321,-1.5917,-1.5805,-1.5737,-1.542,-1.5326,0.0,0.0,0.0,0.0,0.0,0.0,0.0,0.0,0.0,-1.7801,-1.8838,-1.9093,-1.9434,-2.0272,-2.0717,-2.1164,-2.1884,-2.2366,-2.2805,-2.3394,-2.3645,-2.4044,-2.4721,-2.5244,-2.5871,-2.679,-2.744,-2.8095,-2.8628,-2.9105,-2.9564,-3.0082,-3.0828,-3.1612,-3.2294,-3.3113,-3.4044,-3.4975,-3.5253,-3.5911,-3.7011,-3.7253,-3.7796,-3.8563,-3.906,-3.9591,-4.006,-4.0585,-4.1232,-4.1933,-4.2613,-4.2971,-4.3048,-4.2788,-4.2708,-4.2771,-4.3012,-4.3137,-4.3231,0.0,0.0,0.0,0.0,0.0,0.0,0.0,0.0,0.0,0.0,0.0,0.0,0.0,0.0,0.0,0.0,0.0,0.0,0.0,0.0,0.0,0.0,0.0,0.0,0.0,0.0,0.0,0.0,0.0,0.0,0.0,0.0,0.0,0.0,0.0,0.0,0.0,0.0,0.0,0.0,0.0,0.0,-1.8709,-1.8665,-1.8046,-1.7241,-1.7241,-1.7099,-1.6867,-1.6519,-1.6345,-1.6231,-1.5917,-1.5805,-1.5788,-1.5745,0.0,-1.5728,-1.5694,-1.5934,-1.6237,-1.6476,-1.684,-1.7146,0.0,0.0,-1.8382,-1.9042,-1.9437,-2.0076,-2.1362,-2.1644,-2.1908,-2.2636,-2.3273,-2.3657,-2.3733,-2.4458,-2.5176,-2.5604,-2.5543,-2.56,-2.5961,-2.6875,-2.7395,-2.7452,-2.8348,-2.889,-2.8948,-2.9985,-3.0701,-3.1185,-3.2234,-3.3042,-3.3542,-3.479,-3.5479,-3.5665,-3.6828,-3.7435,-3.7616,-3.8764,-3.9367,-3.9508,-4.0799,-4.1448,-4.1591,-4.231,-4.2462,-4.2246,-4.2345,-4.2339,-4.2339,-4.2402,-4.2391,-4.2529,0.0,0.0,0.0,0.0,0.0,0.0,0.0,0.0,0.0,0.0,0.0,0.0,0.0,0.0,0.0,0.0,0.0,0.0,0.0,0.0,0.0,0.0,0.0,0.0,0.0,0.0,0.0,0.0,0.0,0.0,0.0,0.0,0.0,0.0,0.0,0.0,0.0,0.0,0.0,0.0,0.0,0.0,-1.8282,-1.8282,-1.7883,-1.7364,-1.7757,-1.7618,0.0,0.0,-1.6533,-1.6276,-1.5917,-1.5805,-1.5805,-1.5805,-1.5805,0.0,-1.6054,-1.6351,0.0,0.0,-1.7242,-1.7613,-1.7878,-1.8314,-1.897,-1.9892,-2.0235,-2.0768,-2.2265,-2.2747,-2.3165,0.0,-2.4587,-2.4948,-2.5112,-2.5463,-2.5851,-2.6233,-2.6306,-2.6334,-2.6442,-2.6973,-2.7326,-2.7326,-2.7987,-2.8583,-2.8816,-2.9574,-3.0324,-3.0978,-3.1924,-3.2668,-3.3277,-3.4336,-3.4984,-3.5418,-3.6156,-3.6828,-3.7435,-3.7976,-3.8585,-3.9367,-4.0352,-4.0905,-4.1247,-4.1616,-4.1912,-4.2102,-4.2259,-4.2275,-4.2275,-4.2275,-4.2275,-4.2413,0.0,0.0,0.0,0.0,0.0,0.0,0.0,0.0,0.0,0.0,0.0,0.0,0.0,0.0,0.0,0.0,0.0,0.0,0.0,0.0,0.0,0.0,0.0,0.0,0.0,0.0,0.0,0.0,0.0,0.0,0.0,0.0,0.0,0.0,0.0,0.0,0.0,0.0,0.0,0.0,0.0,0.0,-1.8,-1.8,-1.7738,-1.7404,-1.7846,-1.7697,0.0,0.0,-1.6427,-1.6175,-1.5766,-1.5691,-1.5743,-1.5854,-1.5992,-1.6191,-1.6542,0.0,0.0,-1.7514,-1.7791,-1.8137,-1.8646,-1.8955,-1.9455,-2.0597,-2.0862,-2.1391,-2.2903,-2.3626,-2.4165,-2.4996,-2.5594,-2.6008,-2.619,-2.6345,-2.6554,-2.6772,-2.6989,-2.7058,-2.6977,-2.7209,-2.7331,-2.7331,-2.7827,-2.8295,-2.8585,-2.946,-3.0152,-3.075,-3.1797,-3.2548,-3.3099,-3.3955,-3.4673,-3.5108,-3.5675,-3.629,-3.7011,-3.7253,-3.8096,-3.9297,-3.9767,-4.0212,-4.0716,-4.0991,-4.1321,-4.1781,-4.1988,-4.2213,-4.2275,-4.2275,-4.2275,-4.2413,0.0,0.0,0.0,0.0,0.0,0.0,0.0,0.0,0.0,0.0,0.0,0.0,0.0,0.0,0.0,0.0,0.0,0.0,0.0,0.0,0.0,0.0,0.0,0.0,0.0,0.0,0.0,0.0,0.0,0.0,0.0,0.0,0.0,0.0,0.0,0.0,0.0,0.0,0.0,0.0,0.0,0.0,-1.8,-1.8,-1.7658,-1.7195,-1.7021,0.0,0.0,0.0,-1.5811,-1.5736,-1.5356,-1.5355,0.0,-1.5987,-1.6461,0.0,0.0,0.0,-1.7668,-1.8374,-1.8684,-1.885,-1.9272,-1.9479,-1.987,-2.0895,-2.1287,-2.187,-2.3261,-2.4043,-2.4589,-2.5049,-2.5919,-2.6564,-2.6582,-2.7008,-2.7377,-2.7368,-2.7377,-2.7387,0.0,-2.7415,-2.7415,-2.7415,-2.7774,-2.8001,-2.802,-2.9408,-3.0205,-3.0234,-3.1771,-3.2573,-3.2643,-3.3795,-3.4423,-3.4423,-3.5418,-3.5921,-3.5983,-3.6961,-3.8096,-3.9308,-3.9297,-3.9496,-3.986,-4.0348,-4.0618,-4.0892,-4.1397,-4.1903,-4.2275,-4.2275,-4.2275,-4.2413,0.0,0.0,0.0,0.0,0.0,0.0,0.0,0.0,0.0,0.0,0.0,0.0,0.0,0.0,0.0,0.0,0.0,0.0,0.0,0.0,0.0,0.0,0.0,0.0,0.0,0.0,0.0,0.0,0.0,0.0,0.0,0.0,0.0,0.0,0.0,0.0,0.0,0.0,0.0,0.0,0.0,0.0,-1.7474,-1.7474,-1.7128,-1.6544,0.0,0.0,0.0,0.0,-1.5601,0.0,-1.5246,0.0,0.0,-1.5931,-1.6581,-1.7166,0.0,0.0,-1.8271,-1.8519,-1.8991,-1.9406,-1.9577,-1.9847,-2.0263,-2.0819,-2.1346,-2.2075,-2.3223,-2.3972,-2.4693,-2.5457,-2.6063,-2.6588,-2.6962,-2.7412,-2.7799,-2.797,-2.813,0.0,0.0,0.0,0.0,-2.7377,-2.7879,-2.8423,-2.9039,-2.9908,-3.0671,-3.1249,-3.2325,-3.2925,-3.2925,-3.4104,-3.461,-3.4423,-3.517,-3.5675,-3.5921,-3.695,-3.7616,-3.8036,-3.8477,-3.8798,-3.8891,-3.9367,-3.9806,-4.0191,-4.0751,-4.1375,-4.1998,-4.1998,-4.2136,-4.2413,0.0,0.0,0.0,0.0,0.0,0.0,0.0,0.0,0.0,0.0,0.0,0.0,0.0,0.0,0.0,0.0,0.0,0.0,0.0,0.0,0.0,0.0,0.0,0.0,0.0,0.0,0.0,0.0,0.0,0.0,0.0,0.0,0.0,0.0,0.0,0.0,0.0,0.0,0.0,0.0,0.0,0.0,-1.7325,-1.7325,-1.6894,0.0,0.0,0.0,0.0,0.0,0.0,0.0,0.0,-1.5206,-1.5593,-1.6196,-1.6845,-1.7428,0.0,-1.8179,-1.8698,-1.9057,-1.9506,-1.9911,-2.0129,-2.03,-2.054,-2.0928,-2.1383,-2.1969,-2.2806,-2.3723,-2.4537,-2.5252,-2.5909,-2.6475,-2.6935,-2.7332,-2.7621,-2.7832,-2.8094,-2.8311,0.0,0.0,0.0,-2.8004,-2.8388,-2.8917,-2.9628,-3.0379,-3.1136,-3.1869,-3.2906,-3.3395,-3.3395,-3.4411,-3.4797,-3.461,-3.4922,-3.5294,-3.5737,-3.6401,-3.695,-3.7435,-3.7878,-3.819,-3.8403,-3.8705,-3.912,-3.9613,-4.0105,-4.0725,-4.1429,-4.1674,-4.1934,-4.2251,0.0,0.0,0.0,0.0,0.0,0.0,0.0,0.0,0.0,0.0,0.0,0.0,0.0,0.0,0.0,0.0,0.0,0.0,0.0,0.0,0.0,0.0,0.0,0.0,0.0,0.0,0.0,0.0,0.0,0.0,0.0,0.0,0.0,0.0,0.0,0.0,0.0,0.0,0.0,0.0,0.0,0.0,-1.7459,-1.7441,0.0,0.0,0.0,0.0,0.0,0.0,0.0,0.0,0.0,0.0,-1.6069,-1.6645,-1.7223,-1.7809,-1.8221,-1.8497,-1.8903,-1.9861,-2.0105,-2.0307,-2.0872,-2.0826,-2.0804,-2.1125,-2.1397,-2.1715,0.0,0.0,-2.4187,-2.4424,-2.5415,-2.6218,-2.6525,-2.6829,-2.7012,0.0,0.0,0.0,0.0,0.0,0.0,-2.9102,0.0,-2.9343,-2.986,-3.0884,-3.1667,-3.2155,-3.3406,-3.4041,-3.4041,-3.4585,-3.4859,-3.4922,-3.4548,-3.4735,-3.5356,-3.5356,-3.6095,-3.7314,-3.7352,-3.7736,-3.832,-3.8298,-3.8578,-3.907,-3.954,-4.0032,-4.0639,-4.1388,-4.1697,-4.1829,0.0,0.0,0.0,0.0,0.0,0.0,0.0,0.0,0.0,0.0,0.0,0.0,0.0,0.0,0.0,0.0,0.0,0.0,0.0,0.0,0.0,0.0,0.0,0.0,0.0,0.0,0.0,0.0,0.0,0.0,0.0,0.0,0.0,0.0,0.0,0.0,0.0,0.0,0.0,0.0,0.0,0.0,-1.6953,0.0,0.0,0.0,0.0,0.0,0.0,0.0,0.0,0.0,0.0,0.0,-1.573,-1.6622,0.0,-1.7996,-1.8404,-1.9092,-1.98,-2.0044,-2.043,-2.0792,-2.097,-2.0826,-2.0725,-2.0821,-2.1258,-2.1635,0.0,0.0,0.0,-2.3852,-2.4714,0.0,-2.5857,-2.6561,0.0,0.0,0.0,-2.7883,-2.8334,-2.8839,0.0,0.0,-2.9617,-2.9891,-3.0959,-3.1441,-3.2154,-3.3198,-3.399,-3.4338,-3.4338,-3.4473,-3.4673,-3.4922,-3.4298,-3.4235,-3.4673,-3.517,-3.5603,-3.5951,-3.6342,-3.6828,-3.7253,-3.7144,-3.7605,-3.8363,-3.8495,-3.9022,-3.977,-4.0323,-4.0692,-4.1013,0.0,0.0,0.0,0.0,0.0,0.0,0.0,0.0,0.0,0.0,0.0,0.0,0.0,0.0,0.0,0.0,0.0,0.0,0.0,0.0,0.0,0.0,0.0,0.0,0.0,0.0,0.0,0.0,0.0,0.0,0.0,0.0,0.0,0.0,0.0,0.0,0.0,0.0,0.0,0.0,0.0,0.0,0.0,0.0,0.0,0.0,0.0,0.0,0.0,0.0,0.0,-1.4796,-1.5134,-1.5481,-1.5913,-1.6732,0.0,-1.8146,-1.8718,-1.9454,-2.0184,-2.0572,-2.0953,-2.1141,-2.1051,-2.0838,-2.0536,-2.0369,-2.0501,0.0,0.0,0.0,0.0,0.0,0.0,0.0,-2.5061,-2.5732,-2.6162,0.0,-2.6824,0.0,-2.8187,-2.8706,-2.928,0.0,-3.017,-3.0638,-3.1527,-3.214,-3.3021,-3.4072,-3.4625,-3.5022,-3.5134,-3.4666,-3.4485,-3.4673,-3.3985,-3.3859,-3.4173,-3.4735,-3.4995,-3.5107,-3.5586,-3.5873,-3.6117,-3.6351,-3.6763,-3.7334,-3.7881,-3.8393,-3.8887,-3.9571,-3.9937,-4.0193,0.0,0.0,0.0,0.0,0.0,0.0,0.0,0.0,0.0,0.0,0.0,0.0,0.0,0.0,0.0,0.0,0.0,0.0,0.0,0.0,0.0,0.0,0.0,0.0,0.0,0.0,0.0,0.0,0.0,0.0,0.0,0.0,0.0,0.0,0.0,0.0,0.0,0.0,0.0,0.0,0.0,0.0,0.0,0.0,0.0,0.0,0.0,0.0,0.0,0.0,-1.4852,-1.5144,-1.5524,-1.5888,-1.6254,-1.6936,-1.7598,-1.8255,-1.9025,-1.9713,-2.0395,-2.1185,-2.1355,-2.1291,-2.1126,-2.0697,-2.027,-1.9881,0.0,0.0,-2.0305,0.0,-2.1606,-2.274,0.0,-2.3715,-2.4234,-2.4756,-2.5116,-2.5163,-2.5938,-2.6897,-2.7844,-2.8317,-2.9001,-2.9922,-3.0789,-3.1421,-3.1831,-3.2788,-3.3828,-3.4888,-3.5326,-3.5648,-3.5911,-3.4922,-3.4423,-3.4423,-3.3733,-3.3544,-3.3859,-3.4173,-3.4419,-3.4613,-3.4914,-3.5033,-3.5061,-3.5698,-3.5989,-3.6199,-3.7377,-3.7859,-3.8047,-3.8916,-3.9239,-3.9368,0.0,0.0,0.0,0.0,0.0,0.0,0.0,0.0,0.0,0.0,-1.1041,-1.1329,0.0,0.0,0.0,0.0,0.0,0.0,0.0,0.0,0.0,0.0,0.0,0.0,0.0,0.0,0.0,0.0,0.0,0.0,0.0,0.0,0.0,0.0,0.0,0.0,0.0,0.0,0.0,0.0,0.0,0.0,0.0,0.0,0.0,0.0,0.0,0.0,0.0,0.0,-1.4698,-1.4637,-1.5271,-1.5614,-1.5974,-1.7033,-1.7887,-1.8632,-1.9263,-2.0042,-2.0753,-2.1062,-2.1149,-2.1108,-2.0916,-2.0368,0.0,0.0,0.0,-1.9606,-1.9856,-2.0184,0.0,-2.1847,0.0,0.0,0.0,0.0,-2.5163,0.0,0.0,0.0,0.0,0.0,0.0,0.0,0.0,-3.2146,-3.2231,-3.2722,-3.3698,-3.5315,-3.5585,-3.5738,-3.5921,-3.4922,-3.4423,-3.4423,-3.3733,-3.3418,-3.3481,-3.3859,-3.4005,-3.3994,-3.4151,-3.4362,-3.4703,-3.4678,-3.5007,-3.566,-3.6291,-3.6698,-3.7046,-3.7971,-3.836,-3.8426,0.0,0.0,0.0,0.0,0.0,0.0,0.0,-1.1381,-1.1519,-1.1876,-1.1936,-1.2119,-1.2609,-1.3172,-1.3776,0.0,0.0,0.0,0.0,0.0,0.0,0.0,0.0,0.0,0.0,0.0,0.0,0.0,0.0,0.0,0.0,0.0,0.0,0.0,0.0,0.0,0.0,0.0,0.0,0.0,0.0,0.0,0.0,0.0,0.0,0.0,0.0,0.0,0.0,0.0,-1.5128,-1.5018,-1.5683,-1.6049,-1.6439,-1.7428,-1.8133,-1.8747,-1.949,-2.0165,-2.0729,-2.1089,-2.107,-2.0856,-2.0583,0.0,0.0,0.0,0.0,-1.9046,-1.9466,0.0,0.0,0.0,0.0,0.0,0.0,0.0,0.0,0.0,0.0,0.0,0.0,0.0,0.0,0.0,0.0,-3.2123,-3.2296,-3.3705,-3.4902,-3.5758,-3.595,-3.6067,-3.6167,-3.517,-3.4673,-3.4673,-3.3985,-3.367,-3.367,-3.3985,-3.3875,-3.3478,-3.3856,-3.3852,-3.3669,-3.3959,-3.4328,-3.4758,-3.5521,-3.5951,-3.6155,-3.7052,-3.7374,-3.7472,0.0,0.0,0.0,0.0,0.0,0.0,0.0,-1.1789,-1.2127,-1.2656,-1.2981,-1.3255,-1.3501,-1.3827,-1.4283,0.0,0.0,0.0,0.0,0.0,0.0,0.0,0.0,0.0,0.0,0.0,0.0,0.0,0.0,0.0,0.0,0.0,0.0,0.0,0.0,0.0,0.0,0.0,0.0,0.0,0.0,0.0,0.0,0.0,0.0,0.0,0.0,0.0,0.0,0.0,-1.5777,-1.5815,-1.6419,-1.6733,-1.7016,-1.776,-1.8339,-1.8939,-1.9693,-2.0196,-2.0602,-2.1036,-2.0944,-2.0647,-2.0245,-1.9819,0.0,0.0,0.0,0.0,0.0,0.0,0.0,0.0,0.0,0.0,0.0,0.0,0.0,0.0,0.0,0.0,0.0,0.0,0.0,0.0,0.0,-3.2314,-3.2639,-3.481,-3.6023,-3.6023,-3.6355,-3.6484,-3.6423,-3.549,-3.4984,-3.4922,-3.4298,-3.3985,-3.3985,-3.4198,-3.385,-3.3225,-3.3661,-3.3403,-3.2758,-3.3388,-3.3707,-3.3865,-3.4853,-3.5268,-3.5449,-3.6241,-3.6599,-3.6806,0.0,0.0,0.0,0.0,0.0,0.0,0.0,-1.2529,-1.3012,-1.3129,-1.4212,-1.4942,-1.493,-1.4628,-1.4687,0.0,0.0,0.0,0.0,0.0,0.0,0.0,0.0,0.0,0.0,0.0,0.0,0.0,0.0,0.0,0.0,0.0,0.0,0.0,0.0,0.0,0.0,0.0,0.0,0.0,0.0,0.0,0.0,0.0,0.0,0.0,0.0,0.0,0.0,0.0,0.0,-1.6786,-1.74,-1.7385,-1.7258,-1.7696,0.0,0.0,-1.9783,-2.0238,-2.0633,-2.0855,-2.0764,-2.0519,-2.0014,0.0,0.0,0.0,-1.8812,-1.8749,0.0,0.0,0.0,0.0,0.0,0.0,0.0,0.0,0.0,0.0,0.0,0.0,0.0,0.0,0.0,0.0,0.0,-3.3438,-3.3935,-3.5225,-3.6023,-3.6023,-3.6546,-3.6739,-3.6423,-3.5675,-3.517,-3.4922,-3.4548,-3.436,-3.434,-3.4011,-3.3751,-3.3505,-3.3146,-3.2882,-3.2737,-3.2778,-3.2971,-3.3355,-3.4131,-3.459,-3.4952,-3.5787,-3.6315,-3.6708,0.0,0.0,0.0,0.0,0.0,0.0,-1.2112,-1.2782,-1.3441,-1.3872,-1.4742,-1.5459,-1.584,-1.5671,-1.5555,-1.5624,0.0,0.0,0.0,0.0,0.0,0.0,0.0,0.0,0.0,0.0,0.0,-1.7781,-1.7385,0.0,0.0,0.0,0.0,0.0,0.0,0.0,0.0,0.0,0.0,0.0,0.0,0.0,0.0,0.0,0.0,0.0,0.0,0.0,0.0,0.0,0.0,0.0,-1.7666,-1.7973,0.0,0.0,-1.8585,-1.9243,-1.9762,-2.0156,-2.0484,-2.081,-2.0643,-2.0251,-1.9676,0.0,0.0,-1.8402,-1.8401,-1.8581,-1.8797,0.0,0.0,0.0,0.0,0.0,0.0,0.0,0.0,0.0,0.0,0.0,0.0,0.0,0.0,0.0,-3.3085,-3.3965,-3.4725,-3.5536,-3.6155,-3.6391,-3.6757,-3.6861,-3.6678,-3.6239,-3.586,-3.5479,-3.517,-3.4779,-3.4339,-3.4156,-3.375,-3.3166,-3.3159,-3.3014,-3.2669,-3.2669,-3.2908,-3.3271,-3.3713,-3.4072,-3.4477,-3.5217,-3.5823,-3.6362,0.0,0.0,0.0,0.0,0.0,-1.2298,-1.2531,-1.3218,-1.3966,-1.4668,-1.5346,-1.5931,-1.6389,-1.633,-1.618,-1.5942,-1.577,0.0,0.0,0.0,0.0,0.0,0.0,0.0,0.0,0.0,-1.7363,-1.7699,-1.7316,-1.6926,0.0,0.0,0.0,0.0,0.0,0.0,0.0,0.0,0.0,0.0,0.0,0.0,0.0,0.0,0.0,0.0,0.0,0.0,0.0,0.0,0.0,0.0,0.0,0.0,0.0,0.0,-1.8796,-1.924,-1.9652,-2.0049,-2.04,-2.0473,-2.037,-2.0072,0.0,0.0,0.0,-1.8202,-1.8402,-1.8724,-1.883,0.0,0.0,-2.1658,0.0,0.0,0.0,0.0,0.0,0.0,0.0,0.0,0.0,0.0,0.0,0.0,-3.3661,-3.4471,-3.5157,-3.5692,-3.6195,-3.6686,-3.6915,-3.6982,-3.6921,-3.6678,-3.6361,-3.6044,-3.559,-3.5055,-3.4552,-3.4224,-3.3692,-3.3077,-3.3128,-3.3016,-3.2737,-3.2794,-3.2965,-3.325,-3.3579,-3.3918,-3.4287,-3.4895,-3.5648,-3.6369,0.0,0.0,0.0,0.0,0.0,0.0,-1.3282,-1.4016,-1.4747,-1.5497,-1.618,-1.6567,-1.6514,-1.6436,-1.6344,-1.6208,-1.5956,0.0,0.0,0.0,0.0,0.0,0.0,0.0,0.0,0.0,-1.7226,-1.7699,-1.7233,-1.6833,-1.65,-1.6154,-1.5736,0.0,0.0,0.0,0.0,0.0,0.0,0.0,0.0,0.0,0.0,0.0,0.0,0.0,0.0,0.0,0.0,0.0,0.0,0.0,0.0,0.0,0.0,0.0,-1.917,-1.9489,-1.9515,-1.9979,-2.0366,-1.9763,-1.9915,-1.9991,0.0,0.0,0.0,-1.873,-1.9014,-1.9297,-1.9297,-2.0014,0.0,0.0,0.0,0.0,0.0,0.0,0.0,0.0,0.0,0.0,0.0,0.0,0.0,0.0,-3.4427,0.0,-3.5179,-3.5692,-3.6195,-3.6686,-3.7134,-3.7264,-3.6921,-3.6921,-3.6739,-3.6423,-3.557,-3.5229,-3.5126,-3.398,-3.3389,-3.3358,-3.2923,-3.268,-3.2727,-3.3079,-3.3193,-3.325,-3.3872,-3.4255,-3.4524,-3.488,-3.5769,-3.6901,0.0,0.0,0.0,0.0,0.0,0.0,0.0,-1.4482,-1.5331,-1.5561,-1.6167,-1.6596,-1.6567,-1.6463,-1.6355,-1.6274,-1.6067,0.0,0.0,0.0,0.0,0.0,0.0,0.0,0.0,0.0,-1.7141,-1.755,-1.7191,-1.6876,-1.6633,-1.6566,-1.6411,-1.6171,-1.5998,0.0,0.0,0.0,0.0,0.0,0.0,0.0,0.0,0.0,0.0,0.0,0.0,0.0,0.0,0.0,0.0,0.0,0.0,0.0,0.0,0.0,0.0,0.0,-1.9696,-1.9951,-2.0183,-1.997,-1.9869,-1.9604,-1.8874,0.0,-1.8469,-1.7995,-1.8417,-1.8965,-1.9234,-2.0002,0.0,0.0,0.0,0.0,0.0,0.0,0.0,0.0,0.0,0.0,0.0,0.0,0.0,0.0,-3.4547,-3.5134,-3.5541,-3.5808,-3.6195,-3.6686,-3.7145,-3.7325,-3.7264,-3.7264,-3.7093,-3.6728,-3.6185,-3.5491,-3.4746,-3.3999,-3.3376,-3.2923,-3.2789,-3.2841,-3.3079,-3.3136,-3.3523,-3.4132,-3.43,-3.4702,-3.5135,-3.5257,-3.5714,-3.642,0.0,0.0,0.0,0.0,0.0,0.0,0.0,-1.5039,-1.5687,-1.5943,-1.6341,-1.6596,-1.6567,-1.6463,-1.6464,-1.6631,-1.6478,0.0,0.0,0.0,0.0,0.0,0.0,0.0,-1.6679,-1.675,-1.7029,-1.7496,-1.7336,-1.7161,-1.7014,-1.7173,-1.713,-1.6895,-1.6777,-1.6551,0.0,0.0,0.0,0.0,0.0,0.0,-1.5603,0.0,0.0,0.0,0.0,0.0,0.0,0.0,0.0,0.0,0.0,0.0,0.0,0.0,-1.977,0.0,0.0,-1.991,-2.0,-1.9791,-1.9646,0.0,0.0,0.0,-1.8389,-1.8177,-1.8692,-1.9299,-1.9806,-2.0691,0.0,0.0,0.0,0.0,0.0,0.0,0.0,0.0,0.0,0.0,0.0,0.0,0.0,-3.4038,-3.4754,-3.5224,-3.5411,-3.5591,-3.5823,-3.6129,-3.6948,-3.7374,-3.7374,-3.7374,-3.7237,-3.6833,-3.6226,-3.5505,-3.4673,-3.3917,-3.332,-3.2908,-3.2908,-3.3022,0.0,-3.3523,-3.403,-3.4524,-3.4747,-3.5191,-3.5742,-3.5742,-3.6202,-3.6869,0.0,0.0,0.0,0.0,0.0,0.0,0.0,-1.5652,-1.5908,-1.6515,-1.661,-1.6567,-1.6514,-1.6468,-1.667,-1.7161,0.0,0.0,0.0,0.0,0.0,0.0,0.0,0.0,-1.7291,-1.6919,-1.6997,-1.7562,-1.7709,-1.7705,-1.7603,-1.7919,-1.7871,-1.7521,-1.7496,-1.7051,-1.6315,-1.5897,-1.5715,-1.5715,-1.577,-1.5792,0.0,0.0,0.0,0.0,0.0,0.0,0.0,0.0,0.0,0.0,0.0,0.0,0.0,0.0,0.0,0.0,0.0,0.0,0.0,0.0,0.0,0.0,0.0,0.0,0.0,-1.9098,-1.9606,-2.0178,-2.0804,0.0,0.0,0.0,0.0,0.0,0.0,0.0,0.0,0.0,0.0,0.0,0.0,0.0,-3.4692,-3.4354,-3.5014,-3.5312,-3.5047,-3.513,-3.5212,-3.5155,-3.6555,-3.7276,-3.7276,-3.7309,-3.7101,-3.6642,-3.5836,-3.5255,-3.4755,-3.3735,-3.325,-3.325,-3.325,-3.325,-3.3306,-3.4142,-3.4524,-3.4635,-3.5246,-3.5852,-3.6386,-3.6386,-3.7002,-3.7931,0.0,0.0,0.0,0.0,0.0,0.0,0.0,0.0,0.0,0.0,-1.661,-1.6567,-1.6514,-1.6905,-1.7167,0.0,0.0,0.0,0.0,0.0,0.0,0.0,0.0,0.0,-1.7291,-1.774,-1.8033,-1.8201,-1.8422,-1.8526,-1.8503,-1.8688,-1.8696,-1.8635,-1.84,-1.7715,-1.6628,-1.6042,-1.577,-1.577,-1.5792,-1.5792,0.0,0.0,0.0,0.0,-1.7869,-1.8434,0.0,0.0,0.0,0.0,0.0,0.0,0.0,0.0,-1.9666,-2.0087,-1.9887,0.0,-1.9986,-1.956,-1.9358,-1.9142,0.0,0.0,0.0,0.0,0.0,0.0,0.0,0.0,0.0,0.0,0.0,0.0,0.0,0.0,0.0,0.0,0.0,0.0,0.0,0.0,-3.4744,-3.4692,-3.5134,-3.5368,-3.5312,-3.5243,-3.5098,-3.4869,-3.5561,-3.6058,-3.6304,-3.6664,-3.661,-3.6129,-3.5569,-3.5103,-3.4801,-3.4178,-3.3749,-3.3523,-3.3523,-3.3636,-3.3918,-3.43,-3.4902,-3.5543,-3.5938,-3.644,-3.6916,-3.6916,-3.704,-3.7437,0.0,0.0,0.0,0.0,0.0,0.0,0.0,0.0,0.0,0.0,0.0,0.0,0.0,0.0,0.0,0.0,0.0,0.0,0.0,0.0,0.0,0.0,0.0,-1.7951,-1.812,-1.8355,-1.8612,-1.8813,-1.9101,-1.9367,-1.9579,-1.9557,-1.9636,-1.9761,-1.8944,-1.8069,-1.7119,-1.6528,-1.6075,-1.5792,-1.5792,0.0,0.0,0.0,0.0,0.0,-1.8013,-1.8542,0.0,-1.8987,-1.8987,-1.8987,0.0,0.0,0.0,0.0,-1.9701,-2.0042,-2.0299,-2.0242,-2.0074,-1.9889,-1.9731,-1.9666,0.0,0.0,0.0,0.0,0.0,0.0,0.0,0.0,0.0,0.0,0.0,0.0,0.0,0.0,0.0,0.0,0.0,0.0,0.0,0.0,-3.4888,-3.5118,-3.5312,-3.5423,-3.5423,-3.5044,-3.4782,-3.451,-3.4906,-3.5319,-3.5557,-3.5816,-3.5697,-3.5211,-3.5056,-3.4818,-3.4453,-3.4205,-3.3974,-3.3861,-3.3861,-3.403,-3.4311,-3.4758,-3.5334,-3.6036,-3.6375,-3.6916,-3.7507,-3.7507,-3.7667,-3.7999,0.0,0.0,0.0,0.0,0.0,0.0,0.0,0.0,0.0,0.0,0.0,0.0,0.0,0.0,0.0,0.0,0.0,0.0,0.0,0.0,0.0,0.0,-1.8208,-1.8551,-1.9086,-1.8859,-1.902,-1.959,-1.9917,-2.0337,-2.0822,-2.0605,-2.0603,-2.0668,-1.928,-1.8302,-1.7629,-1.7068,-1.6442,-1.5836,-1.5836,0.0,0.0,0.0,0.0,0.0,0.0,0.0,0.0,-1.8987,-1.8987,-1.8972,-1.8972,0.0,0.0,0.0,0.0,0.0,-2.0603,-2.0603,-2.0314,-2.0281,-2.0333,-2.0407,0.0,0.0,0.0,0.0,0.0,0.0,0.0,0.0,0.0,0.0,0.0,0.0,0.0,0.0,0.0,0.0,0.0,0.0,0.0,-3.4486,-3.5003,-3.5485,-3.5459,-3.5423,-3.5423,-3.4802,-3.4356,-3.4086,-3.4464,-3.469,-3.4816,-3.4949,-3.4736,-3.4189,-3.4486,-3.4464,-3.4086,-3.4086,-3.4142,-3.4142,-3.4142,-3.4311,-3.4646,-3.5191,-3.5797,-3.6375,-3.67,-3.7346,-3.8092,-3.8092,-3.8409,-3.8874,0.0,0.0,0.0,0.0,0.0,0.0,0.0,0.0,0.0,0.0,0.0,0.0,0.0,0.0,0.0,0.0,0.0,0.0,0.0,0.0,0.0,-1.8674,-1.8419,-1.8551,-1.9086,-1.9274,-1.9871,-2.0912,-2.1227,-2.172,-2.2286,-2.2019,-2.1544,-2.0815,-1.951,-1.8559,-1.7904,-1.7243,-1.6589,-1.5979,-1.5979,0.0,0.0,0.0,0.0,0.0,0.0,0.0,0.0,-1.8987,-1.8919,-1.8825,-1.8825,0.0,0.0,0.0,0.0,0.0,-2.0347,-2.0967,-2.1351,-2.103,-2.0885,-2.0868,0.0,0.0,0.0,0.0,0.0,0.0,0.0,0.0,0.0,0.0,0.0,0.0,0.0,0.0,0.0,0.0,0.0,0.0,-3.3947,-3.4486,-3.5003,-3.5485,-3.5459,-3.5423,-3.5423,-3.4802,-3.4356,-3.4086,-3.3869,-3.3717,-3.3517,-3.4106,-3.4178,-3.3731,-3.3788,-3.3926,-3.4086,-3.4086,-3.4199,-3.4412,-3.4412,-3.4646,-3.4935,-3.5257,-3.5895,-3.67,-3.7262,-3.785,-3.8368,-3.8566,-3.8736,-3.8874,0.0,0.0,0.0,0.0,0.0,0.0,0.0,0.0,0.0,0.0,0.0,0.0,0.0,0.0,0.0,0.0,0.0,0.0,0.0,0.0,-1.8851,-1.8755,-1.8733,-1.899,-1.957,-1.9889,-2.0563,-2.1688,-2.1855,-2.2326,-2.3079,-2.249,-2.1765,-2.0961,-1.9978,-1.9133,-1.8399,-1.8091,-1.7427,-1.6575,0.0,0.0,0.0,0.0,0.0,0.0,0.0,0.0,0.0,0.0,-1.8922,-1.9077,-1.9077,0.0,0.0,0.0,0.0,0.0,-2.0989,-2.1506,-2.1866,-2.2115,-2.2077,-2.1994,0.0,0.0,0.0,0.0,0.0,0.0,0.0,0.0,0.0,0.0,0.0,0.0,0.0,0.0,0.0,0.0,0.0,-3.3591,-3.436,-3.4659,-3.5118,-3.5864,-3.5715,-3.5533,-3.5423,-3.498,-3.4534,-3.4086,-3.3974,-3.3749,-3.3409,-3.361,-3.3496,-3.3126,-3.3296,-3.3523,-3.3861,-3.403,-3.4255,-3.4524,-3.4524,-3.4747,-3.5202,-3.5368,-3.6004,-3.697,-3.7423,-3.801,-3.8684,-3.9114,-3.927,-3.9345,0.0,0.0,0.0,0.0,0.0,0.0,0.0,0.0,0.0,0.0,0.0,0.0,0.0,0.0,0.0,0.0,0.0,0.0,0.0,0.0,-1.8736,-1.8653,-1.9085,-1.9528,-1.9984,-2.048,-2.1256,-2.2343,-2.2466,-2.2911,-2.3687,-2.2844,-2.204,-2.1272,-2.0577,-1.9737,-1.8859,-1.8859,-1.8226,-1.7267,0.0,0.0,0.0,0.0,0.0,0.0,0.0,0.0,0.0,0.0,0.0,0.0,0.0,0.0,0.0,-2.0372,-2.0523,-2.0685,-2.1556,-2.1966,-2.2354,-2.3103,0.0,-2.3163,-2.3239,0.0,0.0,0.0,0.0,0.0,0.0,0.0,0.0,0.0,0.0,0.0,0.0,0.0,0.0,0.0,0.0,-3.3809,-3.4716,-3.49,-3.5336,-3.6208,-3.6004,-3.5687,-3.5522,-3.5257,-3.4869,-3.4322,-3.4255,-3.3966,-3.3511,-3.3356,-3.3126,-3.2851,-3.3079,-3.3353,-3.3625,-3.3974,-3.4255,-3.4524,-3.4524,-3.4858,-3.5423,-3.5423,-3.6059,-3.7131,-3.7489,-3.8116,-3.8998,-3.953,-3.9697,-3.9747,0.0,0.0,0.0,0.0,0.0,0.0,0.0,0.0,0.0,0.0,0.0,0.0,0.0,0.0,0.0,0.0,0.0,0.0,0.0,0.0,-1.8653,-1.8517,-1.9426,-1.9956,-1.9998,-2.0889,-2.1927,-2.3121,-2.3568,-2.3926,-2.4226,-2.3476,-2.2691,-2.1915,-2.1297,-2.0258,-1.8983,-1.8983,-1.8571,-1.7927,-1.7964,0.0,0.0,0.0,0.0,0.0,0.0,0.0,0.0,0.0,0.0,0.0,0.0,0.0,-1.9792,-2.0133,-2.0537,-2.0939,-2.1329,-2.2207,-2.3136,-2.3704,-2.3841,0.0,-2.4232,0.0,0.0,0.0,0.0,0.0,0.0,0.0,0.0,0.0,0.0,0.0,0.0,0.0,0.0,0.0,-3.3671,-3.4176,-3.4739,-3.5198,-3.5692,-3.6286,-3.6004,-3.5797,-3.5797,-3.5533,-3.5257,-3.4935,-3.4635,-3.4083,-3.3341,-3.3514,-3.3409,-3.3136,-3.3193,-3.3353,-3.3625,-3.3974,-3.4255,-3.4524,-3.4524,-3.4858,-3.5423,-3.5423,-3.6059,-3.7131,-3.7489,-3.8275,-3.931,-3.9581,-3.9697,-3.9697,0.0,0.0,0.0,0.0,0.0,0.0,0.0,0.0,0.0,0.0,0.0,0.0,0.0,0.0,0.0,0.0,0.0,0.0,0.0,-1.8697,-1.8517,-1.8392,-1.9349,-1.9867,-1.9867,-2.0883,-2.1995,-2.3215,-2.3957,-2.4393,-2.4478,-2.3598,-2.2937,-2.2452,-2.1515,-2.0704,-2.0024,-1.966,-1.9171,-1.8658,-1.8983,-1.8933,0.0,0.0,0.0,0.0,0.0,0.0,0.0,0.0,-1.9794,-2.0087,0.0,-2.0182,-2.0398,-2.081,-2.108,-2.1363,-2.2068,-2.2915,-2.3738,-2.4263,0.0,0.0,0.0,0.0,0.0,0.0,0.0,0.0,0.0,0.0,0.0,0.0,0.0,0.0,0.0,0.0,0.0,-3.3671,-3.3889,-3.4326,-3.5164,-3.5416,-3.5726,-3.6286,-3.6157,-3.6004,-3.5797,-3.5687,-3.5533,-3.5257,-3.4769,-3.4405,-3.4097,-3.3672,-3.3356,-3.3093,-3.3359,-3.3636,-3.3918,-3.403,-3.4255,-3.4524,-3.4702,-3.5035,-3.5423,-3.5588,-3.6223,-3.7185,-3.7998,-3.8748,-3.9322,-3.9581,-3.9697,-3.9697,0.0,0.0,0.0,0.0,0.0,0.0,0.0,0.0,0.0,0.0,0.0,0.0,0.0,0.0,0.0,0.0,0.0,0.0,-1.8721,-1.8542,-1.8372,-1.8206,-1.9051,-1.9587,-1.977,-2.0659,-2.1805,-2.3215,-2.413,-2.4563,-2.4478,-2.3767,-2.3207,-2.2744,-2.1935,-2.125,-2.0666,-2.0303,-1.9825,-1.9346,-1.9724,-1.9559,0.0,0.0,0.0,0.0,0.0,0.0,0.0,0.0,0.0,0.0,0.0,0.0,0.0,0.0,-2.142,-2.1754,-2.2688,-2.3495,-2.4291,0.0,0.0,0.0,0.0,0.0,0.0,0.0,0.0,0.0,0.0,0.0,0.0,0.0,0.0,0.0,0.0,0.0,0.0,-3.3958,-3.428,-3.475,-3.5451,-3.5711,-3.6006,-3.6406,-3.6483,-3.644,-3.6114,-3.6059,-3.5827,-3.5297,-3.4949,-3.4547,-3.419,-3.3746,-3.3378,-3.3076,-3.3508,-3.3765,-3.386,-3.4246,-3.4479,-3.4702,-3.498,-3.5257,-3.5522,-3.5742,-3.6332,-3.7185,-3.825,-3.8893,-3.9154,-3.9478,-3.9633,-3.9697,0.0,0.0,0.0,0.0,0.0,0.0,0.0,0.0,0.0,0.0,0.0,0.0,0.0,0.0,0.0,0.0,0.0,0.0,-1.8517,-1.8358,-1.8206,-1.8008,-1.857,-1.9148,-1.9686,-2.0233,-2.1412,-2.3215,-2.4116,-2.4478,-2.4292,-2.4011,-2.3493,-2.2795,-2.2652,-2.1888,-2.0731,-2.0863,-2.0561,-2.0003,-2.0003,-1.9939,-1.9785,0.0,0.0,0.0,0.0,0.0,0.0,0.0,-2.062,0.0,0.0,0.0,0.0,0.0,-2.1461,-2.2024,-2.3043,-2.385,0.0,0.0,0.0,0.0,0.0,0.0,0.0,0.0,0.0,0.0,0.0,0.0,0.0,0.0,0.0,0.0,0.0,0.0,-3.4004,-3.4004,-3.49,-3.552,-3.5531,-3.6248,-3.67,-3.67,-3.697,-3.697,-3.67,-3.67,-3.6187,-3.5157,-3.5092,-3.4498,-3.3256,-3.3686,-3.3675,-3.3193,-3.3698,-3.3698,-3.3353,-3.4471,-3.498,-3.5047,-3.5312,-3.5522,-3.5797,-3.5797,-3.6332,-3.7185,-3.8039,-3.8579,-3.8841,-3.9154,-3.9478,-3.9697,0.0,0.0,0.0,0.0,0.0,0.0,0.0,0.0,0.0,0.0,0.0,0.0,0.0,0.0,0.0,0.0,0.0,0.0,-1.8498,-1.8254,-1.8042,-1.7915,-1.8431,-1.8919,-1.9414,-2.077,-2.2011,-2.3057,-2.3577,-2.398,-2.4292,-2.4011,-2.3712,-2.333,-2.283,-2.2388,-2.2017,-2.164,-2.1186,-2.077,-2.077,-2.0704,-2.0545,0.0,0.0,0.0,0.0,0.0,0.0,0.0,0.0,0.0,0.0,0.0,0.0,-2.1324,-2.1783,-2.241,-2.3537,0.0,0.0,0.0,0.0,0.0,0.0,0.0,0.0,0.0,0.0,0.0,0.0,0.0,0.0,0.0,0.0,0.0,0.0,-3.3694,-3.4142,-3.4521,-3.5129,-3.5657,-3.6013,-3.6457,-3.67,-3.67,-3.697,-3.6925,-3.6532,-3.6508,-3.6168,-3.5498,-3.5114,-3.4713,-3.431,-3.4124,-3.3839,-3.3476,-3.3981,-3.4252,-3.4217,-3.4589,-3.4911,-3.5312,-3.5577,-3.5742,-3.5852,-3.644,-3.6982,-3.753,-3.8157,-3.8579,-3.8841,-3.9154,-3.9478,-3.9697,0.0,0.0,0.0,0.0,0.0,0.0,0.0,0.0,0.0,0.0,0.0,0.0,0.0,0.0,0.0,0.0,0.0,0.0,0.0,-1.8135,-1.7942,-1.7821,-1.809,-1.857,-1.9288,-2.0518,-2.1568,-2.2484,-2.3188,-2.3589,-2.3791,-2.379,-2.37,-2.3497,-2.3107,-2.281,-2.2569,-2.2327,-2.1952,-2.1546,-2.1546,-2.1451,-2.1263,0.0,0.0,0.0,0.0,0.0,0.0,0.0,0.0,0.0,0.0,0.0,0.0,-2.168,-2.2287,-2.2952,-2.416,0.0,0.0,0.0,0.0,0.0,0.0,0.0,0.0,0.0,0.0,0.0,0.0,0.0,0.0,0.0,0.0,-3.34,-3.3696,-3.4146,-3.4705,-3.5195,-3.5679,-3.6041,-3.6297,-3.6646,-3.678,-3.6582,-3.6932,-3.6867,-3.6254,-3.623,-3.5942,-3.5321,-3.498,-3.471,-3.4522,-3.4216,-3.4014,-3.3817,-3.412,-3.4437,-3.4701,-3.4994,-3.5304,-3.5622,-3.6131,-3.6332,-3.6386,-3.7036,-3.7423,-3.7649,-3.8051,-3.8473,-3.8841,-3.905,-3.9374,-3.9697,0.0,0.0,0.0,0.0,0.0,0.0,0.0,0.0,0.0,0.0,-1.969,0.0,0.0,0.0,0.0,0.0,0.0,0.0,0.0,-1.8055,-1.7895,-1.7699,-1.7712,-1.8219,-1.9252,-1.9734,-2.0532,-2.1601,-2.2762,-2.3201,-2.301,-2.3366,-2.3488,-2.3433,-2.3403,-2.3153,-2.2728,-2.2974,-2.278,-2.2289,-2.2289,-2.2166,-2.1961,-2.1668,0.0,0.0,0.0,0.0,0.0,0.0,0.0,0.0,0.0,0.0,0.0,-2.2087,-2.2856,-2.3649,0.0,0.0,0.0,0.0,0.0,0.0,0.0,0.0,0.0,0.0,0.0,0.0,0.0,0.0,0.0,0.0,0.0,-3.365,-3.4342,-3.4939,-3.5474,-3.5963,-3.6452,-3.6646,-3.6375,-3.6862,-3.6932,-3.6491,-3.6892,-3.6836,-3.6006,-3.597,-3.5631,-3.4807,-3.4784,-3.4572,-3.4174,-3.4174,-3.4223,-3.4223,-3.4223,-3.4459,-3.4881,-3.5555,-3.5922,-3.6038,-3.6759,-3.7131,-3.7197,-3.7489,-3.7596,-3.7649,-3.7892,-3.8303,-3.8788,-3.8788,-3.9154,-3.9697,0.0,0.0,0.0,0.0,0.0,0.0,0.0,0.0,0.0,0.0,0.0,0.0,0.0,0.0,0.0,0.0,0.0,0.0,0.0,-1.7868,-1.7706,-1.755,-1.7848,-1.8319,-1.8966,-1.9546,-2.0188,-2.0921,-2.159,-2.2294,-2.301,-2.2984,-2.3176,-2.3539,-2.3463,-2.3488,-2.3621,-2.3667,-2.3417,-2.2972,-2.2972,-2.2844,-2.2562,-2.2248,-2.228,0.0,0.0,0.0,0.0,0.0,0.0,0.0,-2.1585,-2.2003,-2.2514,-2.2726,-2.3444,0.0,0.0,0.0,0.0,0.0,0.0,0.0,0.0,0.0,0.0,0.0,0.0,0.0,0.0,0.0,0.0,0.0,-3.3904,-3.4284,-3.4641,-3.5524,-3.6157,-3.6285,-3.6731,-3.697,-3.6916,-3.7262,-3.7275,-3.6754,-3.7008,-3.6783,-3.5733,-3.5685,-3.5396,-3.482,-3.4796,-3.4748,-3.464,-3.4835,-3.4981,-3.4981,-3.5187,-3.5332,-3.543,-3.558,-3.6086,-3.6871,-3.7031,-3.7251,-3.7489,-3.7542,-3.7744,-3.7933,-3.7986,-3.8303,-3.8788,-3.8788,-3.9154,-3.9697,0.0,0.0,0.0,0.0,0.0,0.0,0.0,0.0,0.0,0.0,0.0,0.0,0.0,0.0,0.0,0.0,0.0,0.0,0.0,0.0,-1.7638,-1.7461,-1.7873,-1.8349,-1.8898,-1.9499,-2.0087,-2.0699,-2.0975,-2.1615,-2.2581,-2.2796,-2.3148,-2.3599,-2.3641,-2.3743,-2.3891,-2.3979,-2.3842,-2.3613,-2.3613,-2.3441,-2.3164,-2.293,-2.275,-2.2653,-2.2285,0.0,0.0,0.0,0.0,0.0,0.0,0.0,-2.2934,-2.3169,-2.4029,-2.4977,0.0,0.0,0.0,0.0,0.0,0.0,0.0,0.0,0.0,0.0,0.0,0.0,0.0,0.0,0.0,0.0,-3.4649,-3.516,-3.5663,-3.6235,-3.6684,-3.6944,-3.7204,-3.7304,-3.7131,-3.7145,-3.7001,-3.6466,-3.6437,-3.6086,-3.528,-3.5244,-3.5112,-3.4787,-3.4932,-3.4981,-3.4981,-3.5271,-3.5502,-3.5807,-3.5904,-3.6284,-3.68,-3.6379,-3.6586,-3.7362,-3.7506,-3.7625,-3.7797,-3.7797,-3.7892,-3.7986,-3.7986,-3.8303,-3.8788,-3.8788,-3.9154,-3.9697,0.0,0.0,0.0,0.0,0.0,0.0,0.0,0.0,0.0,0.0,0.0,0.0,0.0,0.0,0.0,0.0,0.0,0.0,0.0,0.0,0.0,-1.7674,-1.8026,-1.8493,-1.9041,-1.9551,-2.0087,-2.0699,-2.0779,-2.129,-2.2155,-2.2635,-2.3132,-2.3658,-2.3832,-2.392,-2.3949,-2.4067,-2.4083,-2.4083,-2.4083,-2.3907,-2.3611,-2.3564,-2.324,-2.2825,-2.2887,-2.2743,-2.2573,-2.2704,0.0,0.0,0.0,0.0,-2.321,-2.3627,-2.4612,-2.5538,0.0,0.0,0.0,0.0,0.0,0.0,0.0,0.0,0.0,0.0,0.0,0.0,0.0,0.0,0.0,0.0,-3.5482,-3.6069,-3.6768,-3.6951,-3.7178,-3.7643,-3.7649,-3.7548,-3.7163,-3.6943,-3.6601,-3.5958,-3.5719,-3.5388,-3.4811,-3.4823,-3.4884,-3.4884,-3.5126,-3.5271,-3.5271,-3.561,-3.6025,-3.6468,-3.6616,-3.7183,-3.8072,-3.7374,-3.7343,-3.7776,-3.7951,-3.8039,-3.7986,-3.7986,-3.7986,-3.7986,-3.7986,-3.8303,-3.8788,-3.8788,-3.9154,-3.9697,0.0,0.0,0.0,0.0,0.0,0.0,0.0,0.0,0.0,0.0,0.0,0.0,0.0,0.0,0.0,0.0,0.0,0.0,-1.8705,0.0,0.0,-1.8698,-1.8754,-1.9081,-1.9669,-1.976,-2.0087,-2.0699,-2.1184,0.0,0.0,0.0,0.0,-2.3861,-2.3891,-2.3949,-2.4054,-2.4083,-2.4083,-2.4083,-2.4083,-2.3907,-2.365,-2.3966,-2.3816,-2.342,-2.3603,-2.3421,-2.3075,-2.3001,-2.3121,0.0,0.0,0.0,-2.4072,-2.4322,-2.5124,0.0,0.0,0.0,0.0,0.0,0.0,0.0,0.0,0.0,0.0,0.0,0.0,0.0,0.0,0.0,0.0,0.0,-3.6272,-3.6744,-3.7076,-3.7536,-3.7849,-3.7921,-3.7933,-3.7753,-3.7244,-3.7188,-3.6732,-3.5747,-3.5603,-3.5388,-3.4811,-3.503,-3.5126,-3.5126,-3.5416,-3.5572,-3.5572,-3.6257,-3.6662,-3.6737,-3.7467,-3.7878,-3.8041,-3.8127,-3.8253,-3.8311,-3.8332,-3.8198,-3.7986,-3.7986,-3.7986,-3.7986,-3.7986,-3.8303,-3.8788,-3.8788,-3.9154,-3.9697,0.0,0.0,0.0,0.0,0.0,0.0,0.0,0.0,0.0,0.0,0.0,0.0,0.0,0.0,0.0,-1.9232,-1.9318,-1.9339,-1.92,-1.9266,-1.9197,-1.9012,-1.9271,-1.9538,-1.9799,-2.0137,-2.0425,-2.0699,0.0,0.0,0.0,-2.2618,-2.3189,0.0,0.0,0.0,-2.4609,0.0,0.0,0.0,-2.5036,-2.4853,-2.4558,-2.4658,-2.438,-2.3973,-2.4135,-2.4012,-2.3833,-2.3967,-2.4085,-2.42,-2.42,0.0,0.0,0.0,-2.5618,0.0,0.0,0.0,0.0,0.0,0.0,0.0,0.0,0.0,0.0,0.0,0.0,0.0,0.0,0.0,0.0,0.0,0.0,-3.7952,-3.8068,-3.8158,-3.8198,-3.8198,-3.8092,-3.7781,-3.724,-3.6928,-3.6435,-3.5677,-3.5439,-3.5271,-3.5042,-3.5271,-3.5416,-3.5416,-3.5668,-3.5812,-3.5812,-3.6621,-3.7341,-3.7979,-3.863,-3.8956,-3.8956,-3.9093,-3.8848,-3.8386,-3.838,-3.8303,-3.8198,-3.8092,-3.7986,-3.7986,-3.7986,-3.8303,-3.8788,-3.8788,-3.9352,-4.0162,0.0,0.0,0.0,0.0,0.0,0.0,0.0,0.0,0.0,0.0,0.0,0.0,0.0,0.0,0.0,0.0,-1.9982,-1.9953,-1.9934,-1.9833,-1.9718,-1.9565,-1.9882,-2.0046,-2.0022,-2.0608,-2.0896,-2.0896,0.0,0.0,-2.2624,-2.3171,-2.3759,0.0,-2.4809,-2.5083,0.0,0.0,0.0,0.0,0.0,-2.5591,-2.5307,-2.5333,-2.5008,-2.4616,-2.4939,-2.4927,-2.4813,-2.5134,-2.5214,-2.5177,-2.5177,-2.5214,0.0,0.0,0.0,0.0,0.0,0.0,0.0,0.0,0.0,0.0,0.0,0.0,0.0,0.0,0.0,0.0,0.0,0.0,0.0,0.0,0.0,-3.8788,-3.8788,-3.8631,-3.8514,-3.8514,-3.8303,-3.7932,-3.7266,-3.6843,-3.6335,-3.567,-3.5393,-3.532,-3.532,-3.5572,-3.5716,-3.5716,-3.5955,-3.6098,-3.6098,-3.6952,-3.7965,-3.9082,-3.9496,-3.9697,-3.9697,-3.9697,-3.9356,-3.87,-3.8656,-3.8566,-3.8473,-3.8303,-3.8198,-3.8198,-3.8198,-3.8514,-3.8945,-3.8945,-3.9606,-4.0513,0.0,0.0,0.0,0.0,0.0,0.0,0.0,0.0,0.0,0.0,0.0,0.0,-2.0507,-2.0215,-1.9998,-1.9998,-2.0275,-2.0661,-2.107,-2.1124,-2.1015,-2.082,-2.0835,0.0,-2.066,-2.1172,-2.1472,0.0,0.0,0.0,-2.3184,-2.3757,-2.4374,-2.4953,-2.4992,-2.5262,-2.5754,0.0,0.0,0.0,0.0,-2.5591,-2.5358,-2.5864,-2.5706,-2.5354,-2.6242,-2.6323,-2.6069,-2.6385,-2.6375,-2.6224,-2.6224,-2.6413,-2.6639,0.0,0.0,0.0,0.0,0.0,0.0,0.0,0.0,0.0,0.0,0.0,0.0,0.0,0.0,0.0,0.0,0.0,0.0,0.0,0.0,-3.8788,-3.8788,-3.8788,-3.8788,-3.8788,-3.8788,-3.8332,-3.7328,-3.7193,-3.6751,-3.5695,-3.5585,-3.5572,-3.5572,-3.5812,-3.5968,-3.5968,-3.6228,-3.6358,-3.6358,-3.7425,-3.853,-3.9647,-3.9685,-3.9697,-3.9697,-3.9697,-3.9685,-3.9595,-3.9362,-3.905,-3.8788,-3.8736,-3.8736,-3.8736,-3.8736,-3.8945,-3.9258,-3.9258,-3.9775,-4.0513,0.0,0.0,0.0,0.0,0.0,0.0,0.0,0.0,0.0,0.0,0.0,0.0,0.0,-2.1667,-2.1724,-2.1724,-2.2035,-2.2309,-2.2474,-2.2384,-2.2307,-2.2243,-2.2061,-2.197,-2.193,-2.2022,0.0,0.0,0.0,-2.3182,-2.3208,-2.4204,-2.4975,-2.5511,-2.5511,-2.5837,-2.6399,-2.6733,0.0,0.0,0.0,0.0,0.0,-2.7562,-2.7417,0.0,0.0,0.0,-2.7029,-2.7163,-2.7149,-2.7074,-2.7074,-2.7149,-2.7284,-2.7688,-2.8367,-2.9104,0.0,0.0,0.0,0.0,0.0,0.0,0.0,0.0,0.0,0.0,0.0,0.0,0.0,0.0,0.0,0.0,0.0,-3.9374,-3.9374,-3.9218,-3.9102,-3.9102,-3.8945,-3.8359,-3.7279,-3.718,-3.6788,-3.5694,-3.5764,-3.5872,-3.5872,-3.6098,-3.6275,-3.6275,-3.637,-3.6744,-3.7412,-3.7814,-3.8567,-3.9697,-3.9697,-3.9697,-3.9697,-3.9697,-3.9697,-3.9685,-3.9594,-3.9374,-3.9102,-3.8893,-3.8788,-3.8788,-3.8788,-3.8998,-3.936,-3.9708,-4.0299,-4.1037,0.0,0.0,0.0,0.0,0.0,0.0,0.0,0.0,-2.2944,-2.2729,0.0,0.0,0.0,0.0,-2.3073,-2.2972,-2.3101,-2.3215,-2.3215,-2.3109,-2.3043,-2.3003,-2.2831,-2.2698,-2.259,-2.272,0.0,0.0,0.0,0.0,0.0,-2.4547,-2.5275,-2.5806,-2.602,-2.6425,0.0,0.0,0.0,-2.7863,0.0,0.0,-2.8244,0.0,0.0,0.0,0.0,0.0,0.0,-2.8076,-2.8125,-2.8163,-2.8238,-2.8288,-2.845,-2.8899,-2.9338,-2.9729,-2.9729,0.0,0.0,0.0,0.0,0.0,0.0,0.0,0.0,0.0,0.0,0.0,0.0,0.0,0.0,0.0,0.0,0.0,-3.9942,-3.9839,-3.9672,-3.9569,-3.9362,-3.8846,-3.7852,-3.7592,-3.7097,-3.6182,-3.615,-3.6146,-3.6146,-3.6323,-3.6405,-3.6405,-3.6405,-3.6933,-3.8002,-3.8002,-3.8567,-3.9697,-3.9697,-3.9697,-3.9697,-3.9697,-3.9697,-3.9697,-3.9697,-3.9594,-3.9426,-3.9206,-3.9114,-3.9114,-3.9114,-3.9218,-3.9488,-4.0037,-4.0705,-4.1363,0.0,0.0,0.0,0.0,0.0,0.0,0.0,0.0,-2.345,-2.3344,0.0,0.0,0.0,0.0,0.0,-2.3569,-2.3374,-2.3269,-2.3269,-2.3269,-2.3203,-2.3057,-2.3057,-2.2938,-2.267,0.0,0.0,0.0,0.0,0.0,0.0,0.0,-2.5301,-2.5845,-2.6452,-2.7013,-2.7555,0.0,-2.842,-2.8472,0.0,-2.9194,-2.9015,0.0,0.0,0.0,-2.8675,-2.8711,0.0,-2.9282,0.0,0.0,0.0,-2.9908,-3.0177,-3.033,-3.0406,-3.0406,0.0,0.0,0.0,0.0,0.0,0.0,0.0,0.0,0.0,0.0,0.0,0.0,0.0,0.0,0.0,0.0,0.0,0.0,-4.0453,-4.0504,-4.0389,-4.0134,-4.0121,-3.9816,-3.8969,-3.8366,-3.7801,-3.7224,-3.6732,-3.643,-3.6405,-3.6405,-3.6405,-3.6405,-3.6405,-3.6933,-3.7977,-3.8002,-3.8567,-3.9672,-3.9685,-3.9697,-3.9697,-3.9697,-3.9697,-3.9697,-3.9697,-3.9697,-3.9697,-3.9697,-3.9697,-3.9697,-3.9697,-3.9697,-3.976,-4.0325,-4.0824,-4.1363,0.0,0.0,0.0,0.0,0.0,-2.2781,-2.3098,-2.3264,-2.3486,0.0,0.0,0.0,-2.4092,-2.4383,-2.4646,-2.4915,-2.4751,-2.4655,-2.4655,-2.4544,-2.4489,-2.4448,-2.4336,-2.4266,-2.4197,0.0,0.0,-2.3997,-2.4079,-2.4321,-2.4739,-2.5315,0.0,0.0,-2.704,-2.7615,-2.815,-2.8307,0.0,-2.8499,-2.9483,-3.004,0.0,0.0,0.0,0.0,0.0,-3.1132,-3.1158,0.0,-3.1361,-3.1298,0.0,-3.0854,-3.0816,-3.0484,-3.0406,-3.0406,-3.0406,0.0,0.0,0.0,0.0,0.0,0.0,0.0,0.0,0.0,0.0,0.0,0.0,0.0,0.0,0.0,0.0,0.0,-4.0504,-4.0504,-4.0453,-4.0402,-4.0389,-4.0083,-3.9284,-3.9044,-3.8439,0.0,-3.7048,-3.6832,-3.643,-3.6405,-3.6405,-3.6405,-3.6405,-3.6744,-3.74,-3.7814,-3.8379,-3.9158,-3.9496,-3.9697,-3.9697,-3.9697,-3.9697,-3.9697,-3.9697,-3.9697,-3.9697,-3.9697,-3.9697,-3.9697,-3.9697,-3.9697,-3.981,-4.0764,-4.115,-4.148,0.0,0.0,0.0,0.0,0.0,-2.2975,-2.3259,-2.3695,-2.4126,0.0,0.0,0.0,-2.5203,-2.5644,-2.6022,-2.6313,-2.6184,-2.6056,-2.5997,-2.5939,-2.5852,-2.5765,-2.5677,-2.5619,-2.556,-2.5282,-2.512,-2.5061,-2.4908,-2.5001,-2.5341,-2.5903,-2.6347,0.0,0.0,0.0,0.0,0.0,0.0,0.0,-3.0335,0.0,0.0,-3.1695,-3.2043,0.0,0.0,0.0,-3.2114,-3.2275,-3.2487,0.0,0.0,0.0,-3.1552,-3.1253,-3.0904,-3.0634,-3.0634,-3.0761,-3.0876,0.0,0.0,0.0,-3.3012,-3.3652,-3.4384,0.0,0.0,0.0,0.0,0.0,0.0,0.0,0.0,0.0,-4.0794,-4.0808,-4.0808,-4.0694,-4.0643,-4.0324,-3.9522,-3.9105,-3.8499,-3.7455,-3.7069,-3.6744,-3.643,-3.6405,-3.6405,-3.6405,-3.6405,-3.6669,-3.7174,-3.7726,-3.8304,-3.8932,-3.9433,-3.9697,-3.9697,-3.9697,-3.9697,-3.9697,-3.9839,-3.989,-3.989,-3.9993,-3.989,-3.9697,-3.9839,-3.9788,-3.9823,-4.0874,-4.1395,-4.1708,0.0,0.0,-2.2873,-2.285,-2.315,-2.3395,-2.3465,-2.4366,-2.5063,0.0,-2.5725,-2.6315,-2.6849,-2.7281,-2.7529,-2.7529,-2.7397,-2.7262,-2.7111,-2.7124,-2.7004,-2.6823,-2.6793,-2.6732,-2.661,-2.643,-2.6263,-2.6122,-2.5936,-2.585,-2.5897,-2.6438,-2.6771,-2.6942,0.0,0.0,0.0,0.0,0.0,-3.0375,-3.1393,-3.1876,0.0,0.0,-3.2602,-3.2705,-3.2518,-3.2516,-3.2649,-3.2959,-3.3344,0.0,0.0,0.0,0.0,0.0,-3.1724,-3.1102,-3.1037,-3.1024,-3.1024,-3.1024,-3.1403,0.0,-3.2542,-3.3144,-3.3891,-3.5044,0.0,0.0,0.0,0.0,0.0,0.0,0.0,0.0,0.0,-4.1165,-4.1065,-4.0802,-4.0752,-4.0445,-3.9631,-3.8898,-3.8242,-3.767,-3.6922,-3.6499,-3.6499,-3.6499,-3.6499,-3.6499,-3.6499,-3.6691,-3.7182,-3.7736,-3.8302,-3.8881,-3.9435,-3.9737,-3.98,-3.98,-3.98,-3.98,-4.0032,-4.0134,-4.0185,-4.044,-4.0249,-3.9788,-4.0032,-3.9981,-3.9926,-4.0981,-4.161,-4.1976,0.0,0.0,-2.3326,-2.3217,-2.3596,-2.4115,-2.4582,-2.4852,-2.5358,-2.6315,-2.7003,-2.7482,-2.7608,-2.7692,-2.7733,-2.7733,-2.7558,-2.7411,-2.7274,-2.7154,-2.7004,-2.6823,-2.6793,-2.6793,-2.6762,-2.661,-2.6444,-2.6263,-2.6122,-2.6204,-2.6549,-2.6654,-2.7203,-2.8093,0.0,0.0,0.0,0.0,0.0,-3.1484,-3.1719,0.0,-3.326,-3.3338,-3.3951,-3.4747,-3.4876,-3.522,-3.5605,-3.5425,-3.5432,-3.5313,0.0,0.0,0.0,-3.2716,0.0,0.0,-3.1367,-3.1235,-3.1235,0.0,-3.1453,0.0,-3.2323,-3.2945,-3.3688,0.0,0.0,0.0,0.0,0.0,0.0,0.0,0.0,0.0,0.0,-4.0285,-4.0127,-4.0079,-3.9961,-3.9693,-3.932,-3.9168,-3.8714,-3.7897,-3.7287,-3.6968,-3.6968,-3.6968,-3.6968,-3.6968,-3.6968,-3.7019,-3.7134,-3.7648,-3.8197,-3.8819,-3.9381,-3.9892,-4.0351,-4.0351,-4.0351,-4.0351,-4.0402,-4.0402,-4.0453,-4.0694,-4.0643,-4.0351,-4.0402,-4.0402,-4.0492,-4.1602,-4.2076,-4.2296,0.0,-2.3378,-2.3535,-2.3727,-2.4196,-2.4655,-2.495,-2.55,-2.6104,-2.6722,-2.765,-2.8352,-2.8647,-2.897,-2.9279,-2.9634,-2.9554,-2.9383,-2.9099,-2.9035,-2.8876,-2.8614,-2.8315,-2.8153,-2.8153,-2.7683,-2.7395,-2.7287,-2.7351,-2.7492,-2.7716,-2.7904,-2.8315,-2.8878,0.0,0.0,0.0,0.0,-3.1744,-3.2293,-3.2594,0.0,-3.425,-3.4513,-3.5213,-3.6118,-3.622,-3.6492,-3.6834,-3.6668,-3.6444,0.0,-3.5587,-3.4915,-3.4246,0.0,-3.2966,-3.2294,0.0,0.0,0.0,-3.1434,0.0,0.0,0.0,-3.2874,-3.3554,-3.4433,-3.5284,0.0,0.0,0.0,0.0,0.0,0.0,0.0,0.0,0.0,-3.9881,-3.9881,-3.9729,-3.9446,-3.8977,-3.8869,-3.8433,-3.757,-3.7275,-3.7108,-3.7108,-3.7108,-3.7108,-3.7108,-3.7108,-3.7108,-3.7108,-3.7612,-3.8175,-3.8787,-3.9351,-3.9927,-4.0504,-4.0504,-4.0504,-4.0504,-4.0643,-4.0694,-4.0744,-4.1134,-4.1248,-4.1047,-4.0795,-4.0593,-4.0606,-4.1452,-4.2044,-4.255,-2.3789,-2.3856,-2.3963,-2.43,-2.4805,-2.5175,-2.5175,-2.6104,-2.6891,-2.7144,-2.8268,-2.9237,-2.9729,-3.0333,-3.0923,-3.1443,-3.1485,-3.1338,-3.0942,-3.0894,-3.0753,-3.0405,-2.993,-2.9692,-2.9692,-2.9038,-2.8683,-2.8637,-2.8878,-2.8961,-2.8926,-2.9228,-2.9411,0.0,0.0,0.0,0.0,0.0,0.0,-3.3,0.0,-3.4382,-3.5022,-3.5619,-3.6356,-3.7074,-3.7237,-3.7407,-3.7609,-3.7488,-3.7209,-3.6904,-3.6673,-3.5818,0.0,0.0,0.0,0.0,0.0,0.0,0.0,0.0,0.0,-3.1853,0.0,0.0,0.0,-3.4312,-3.5291,0.0,0.0,0.0,0.0,0.0,0.0,0.0,0.0,0.0,0.0,-3.9474,-3.937,-3.9123,-3.8606,-3.8426,-3.7997,-3.7299,-3.7261,-3.7261,-3.7261,-3.7261,-3.7261,-3.7261,-3.7261,-3.7248,-3.7294,-3.7711,-3.8264,-3.903,-3.9396,-3.9987,-4.0656,-4.0656,-4.0656,-4.0656,-4.0946,-4.1034,-4.1084,-4.1597,-4.1796,-4.1746,-4.1285,-4.0997,-4.0835,-4.1454,-4.2099,-4.2774,-2.4414,-2.4837,-2.5135,-2.4932,-2.5414,-2.5795,-2.5795,-2.6371,-2.7214,-2.8338,-2.9546,-3.0315,-3.0385,-3.0993,-3.1415,-3.1485,-3.1485,-3.1338,-3.0942,-3.0894,-3.0753,-3.0405,-3.0337,-3.031,-3.031,-3.0194,-3.0085,-2.9887,-2.992,-2.9891,-2.9752,-2.9623,-2.9821,0.0,-3.0134,0.0,0.0,0.0,-3.3053,0.0,-3.4954,-3.5429,0.0,-3.6425,-3.711,-3.77,-3.8443,-3.8853,-3.8976,0.0,-3.8231,-3.803,0.0,-3.651,-3.6157,-3.506,0.0,0.0,0.0,0.0,0.0,0.0,-3.2391,-3.2331,-3.3114,0.0,-3.4416,-3.5173,0.0,0.0,0.0,0.0,0.0,0.0,0.0,0.0,-3.7485,0.0,-3.7618,-3.7918,-3.8198,-3.826,-3.7991,-3.7945,-3.7932,-3.7808,-3.7808,-3.7808,-3.7808,-3.7808,-3.7808,-3.7808,-3.7808,-3.7874,-3.8076,-3.7939,-3.8514,-3.9786,-3.9651,-4.0168,-4.1211,-4.1211,-4.1211,-4.1211,-4.1498,-4.1597,-4.1647,-4.1931,-4.2029,-4.2029,-4.198,-4.1782,-4.1679,-4.277,-4.3062,-4.3127,-2.5134,-2.5226,0.0,-2.5497,-2.5725,-2.602,-2.6371,-2.7565,-2.8745,-2.9645,-3.053,-3.1359,-3.2041,0.0,0.0,0.0,0.0,-3.3536,0.0,-3.3107,-3.2941,-3.2673,-3.22,-3.1789,-3.1436,-3.1097,-3.0709,-3.0288,-3.05,-3.0591,-3.0534,-3.0703,-3.0887,0.0,-3.136,0.0,-3.2261,0.0,-3.3979,0.0,0.0,0.0,0.0,-3.7474,-3.8232,-3.9186,-3.9532,-3.9717,-3.978,0.0,-3.8993,0.0,0.0,0.0,0.0,-3.6117,0.0,0.0,0.0,0.0,0.0,0.0,0.0,-3.353,-3.4,-3.4561,-3.511,-3.5435,0.0,0.0,0.0,0.0,0.0,0.0,-3.5761,0.0,0.0,0.0,-3.692,0.0,0.0,0.0,-3.6854,-3.6867,-3.6867,-3.6867,-3.6867,-3.7011,-3.7364,-3.7377,-3.7579,-3.8044,-3.8044,-3.8181,-3.8408,-3.833,-3.8912,-4.0145,-4.0063,-4.0623,-4.1746,-4.1746,-4.1746,-4.1796,-4.1881,-4.1931,-4.1957,-4.2614,-4.2847,-4.2887,-4.3399,-4.3118,-4.2568,-4.3391,-4.3792,-4.4032,-2.6359,0.0,0.0,0.0,-2.6174,-2.6413,-2.72,-2.8619,-2.9827,-3.0413,-3.1373,-3.2328,-3.3178,-3.3621,0.0,0.0,-3.5189,-3.5115,0.0,0.0,-3.4568,-3.4327,-3.3752,-3.3179,-3.2671,-3.2236,-3.1816,-3.1346,-3.1636,-3.1802,-3.1815,-3.2061,-3.2188,0.0,0.0,-3.2846,-3.3008,0.0,0.0,-3.5529,-3.6742,-3.7839,-3.878,-3.8691,-3.946,-4.0582,-4.0582,-4.0627,-4.0673,-4.0673,-3.9977,-3.9046,-3.8883,-3.8419,-3.782,0.0,0.0,0.0,-3.5598,-3.4917,-3.4383,-3.4561,-3.4513,-3.4482,-3.4837,-3.5287,-3.5648,-3.5853,-3.6256,0.0,0.0,0.0,-3.5259,-3.4499,0.0,-3.4817,0.0,0.0,0.0,0.0,0.0,0.0,0.0,-3.6109,-3.6109,-3.6109,-3.6109,-3.6292,-3.6737,-3.6964,-3.7374,-3.7962,-3.8179,-3.844,-3.8679,-3.8647,-3.9234,-4.0428,-4.0334,-4.0946,-4.2079,-4.2079,-4.2079,-4.2092,-4.2351,-4.2467,-4.252,-4.3471,-4.3877,-4.3931,-4.4856,-4.4627,-4.3886,-4.4149,-4.4447,-4.4703,-2.8295,-2.725,0.0,0.0,0.0,0.0,-2.8436,-2.9195,0.0,0.0,0.0,0.0,0.0,0.0,0.0,0.0,0.0,-3.5115,-3.4929,0.0,-3.4705,0.0,0.0,-3.4134,-3.3853,-3.384,-3.3813,-3.3799,-3.3813,-3.3826,-3.3788,-3.37,-3.3623,-3.3623,0.0,-3.3673,-3.4153,-3.4193,-3.4995,-3.63,-3.6945,-3.8512,-4.049,0.0,-4.0663,-4.1452,-4.1452,-4.1636,-4.1864,-4.1864,-4.1391,-4.0741,-4.0118,-3.9511,-3.8946,-3.8352,0.0,0.0,-3.7247,-3.635,-3.5463,-3.5463,-3.5021,-3.482,-3.5593,-3.5784,-3.6004,-3.6799,-3.6978,-3.6796,-3.6178,-3.5903,-3.5555,-3.4877,-3.4455,0.0,0.0,0.0,0.0,0.0,0.0,0.0,0.0,-3.6109,-3.6109,-3.6109,-3.6109,-3.6109,-3.6136,-3.6932,-3.7408,-3.7421,-3.8174,-3.8666,-3.8908,-3.8724,-3.9325,-4.0663,-4.0428,-4.0946,-4.2079,-4.2079,-4.2079,-4.2155,-4.299,-4.3358,-4.3448,-4.4579,-4.5025,-4.5144,-4.6027,-4.6146,-4.584,-4.5261,-4.4898,-4.4769,0.0,0.0,0.0,0.0,0.0,0.0,0.0,-3.053,0.0,0.0,0.0,0.0,0.0,-3.6121,-3.6736,0.0,0.0,-3.7611,-3.7571,-3.7384,0.0,0.0,0.0,-3.6464,0.0,-3.5546,-3.5162,-3.4365,-3.4251,-3.4175,-3.4175,-3.3946,-3.3831,-3.3858,0.0,-3.4416,0.0,0.0,0.0,0.0,0.0,-4.0337,-4.1324,0.0,-4.1361,-4.2347,-4.2347,-4.2394,-4.25,-4.25,-4.2085,-4.1463,-4.0797,-4.0465,-4.0092,-3.9084,-3.8656,-3.8394,-3.7993,-3.7593,-3.7205,-3.695,-3.6726,-3.6596,-3.6595,-3.6592,-3.6662,-3.6936,-3.6978,-3.6708,-3.5695,-3.5438,-3.5027,-3.3782,-3.3721,-3.3761,0.0,0.0,0.0,0.0,0.0,0.0,0.0,0.0,-3.445,-3.445,-3.4958,-3.5368,-3.5749,-3.6188,-3.6824,-3.7842,-3.8144,-3.8647,-3.9394,-3.9172,-3.9767,-4.1162,-4.0957,-4.145,-4.2631,-4.2631,-4.2846,-4.3224,-4.3723,-4.4148,-4.4607,-4.5573,-4.5985,-4.6041,-4.6698,-4.6844,-4.6586,-4.6365,-4.6105,-4.5909,-2.9334,0.0,0.0,0.0,0.0,0.0,0.0,0.0,0.0,0.0,-3.4399,0.0,-3.6852,0.0,-3.8016,0.0,-3.8902,-3.8902,-3.8902,-3.8724,0.0,-3.8476,-3.838,0.0,0.0,0.0,-3.6555,-3.5574,-3.5418,-3.5269,0.0,0.0,0.0,0.0,0.0,0.0,-3.534,0.0,-3.7221,0.0,0.0,-4.1401,0.0,0.0,-4.2421,-4.3216,-4.3216,-4.331,-4.3356,-4.3356,-4.2953,-4.2369,-4.1952,-4.1522,-4.1021,-4.0229,-3.9701,-3.927,-3.888,-3.8616,-3.8393,-3.8139,-3.8081,-3.7914,-3.7417,-3.7316,-3.7245,-3.7021,-3.6978,-3.6722,-3.5695,-3.533,-3.4815,-3.3597,-3.3331,-3.3202,0.0,-3.3139,0.0,0.0,0.0,0.0,0.0,0.0,-3.3567,-3.3804,-3.4282,-3.4827,-3.5409,-3.5845,-3.6561,-3.7725,-3.8141,-3.8765,-3.97,-3.9584,-4.0203,-4.153,-4.1406,-4.2002,-4.3163,-4.3395,-4.3709,-4.4141,-4.4727,-4.5175,-4.5637,-4.651,-4.6874,-4.6916,-4.7406,-4.7405,-4.7146,-4.6991,-4.673,-4.6469,0.0,0.0,0.0,0.0,-3.0295,0.0,0.0,0.0,-3.3361,0.0,-3.5545,-3.706,-3.7105,-3.8255,-3.9015,-3.9043,-3.9071,-3.9085,-3.9085,-3.9085,0.0,0.0,-3.8671,-3.8533,-3.8325,0.0,0.0,0.0,0.0,0.0,0.0,0.0,0.0,0.0,-3.5858,0.0,-3.6208,-3.6797,-3.7566,-3.8532,-4.0535,-4.1739,-4.237,-4.3241,-4.3766,-4.4035,-4.4035,-4.4176,-4.4411,-4.4411,-4.4031,-4.354,-4.3512,-4.2669,-4.1699,-4.1671,-4.0814,-3.9873,-3.9873,-3.9465,-3.8986,-3.8958,-3.8944,-3.879,-3.8088,-3.792,-3.7737,-3.7147,-3.7007,-3.6796,-3.6216,-3.5625,-3.5034,-3.4301,-3.337,-3.2561,-3.2241,-3.2218,-3.2218,0.0,0.0,0.0,0.0,-3.3248,-3.3501,-3.4126,-3.4193,0.0,0.0,-3.5854,-3.657,-3.7174,-3.8213,-3.9072,-3.9686,-3.992,-4.0631,-4.1805,-4.1832,-4.2482,-4.3669,-4.4325,-4.4629,-4.4754,-4.5943,-4.6418,-4.6537,-4.7374,-4.7712,-4.7764,-4.8018,-4.7917,-4.761,-4.7095,-4.673,-4.6469,-3.2021,-3.1857,-3.1855,0.0,-3.2207,-3.2401,0.0,0.0,0.0,0.0,-3.6599,-3.7512,-3.8917,-3.976,-4.0407,-4.087,-4.1348,0.0,0.0,0.0,0.0,-4.1571,-4.1064,-4.0559,-4.0068,-3.9606,-3.9075,-3.8514,0.0,0.0,-3.7282,0.0,0.0,0.0,0.0,0.0,-3.7028,-3.7635,-3.8892,-4.059,-4.1789,-4.2621,-4.3269,-4.4132,-4.4517,-4.4551,-4.4364,-4.4317,-4.4411,-4.4411,-4.4312,-4.4102,-4.3638,-4.3273,-4.2921,-4.2458,-4.1769,-4.1151,-4.1151,-4.0702,-4.0112,-3.9662,-3.9591,-3.9422,-3.8763,-3.8243,-3.7864,-3.7695,-3.7302,-3.6796,-3.6216,-3.5977,-3.5489,-3.4371,-3.337,-3.2561,-3.2241,-3.2218,0.0,-3.2218,0.0,0.0,0.0,-3.2497,-3.2863,-3.3487,-3.4072,-3.4701,-3.5291,-3.5656,-3.6346,-3.7373,-3.7889,-3.8733,-3.9908,-4.0407,-4.1149,-4.2119,-4.238,-4.3191,-4.4353,-4.4519,-4.5099,-4.5948,-4.649,-4.6929,-4.7388,-4.7796,-4.8018,-4.8018,-4.8069,-4.7815,-4.7353,-4.7043,-4.673,-4.6469,-3.2655,0.0,0.0,-3.3686,0.0,0.0,-3.4128,-3.5016,0.0,-3.7109,-3.8011,0.0,-4.035,-4.1029,-4.1637,-4.2274,-4.2715,0.0,-4.2927,0.0,0.0,-4.2927,-4.2515,-4.2117,-4.1691,-4.107,0.0,-3.9676,0.0,-3.8753,-3.8151,0.0,0.0,0.0,0.0,-3.7011,0.0,-3.8755,-4.0135,-4.1537,-4.2657,-4.3356,0.0,-4.4588,-4.4922,-4.4908,-4.4769,-4.4644,-4.4551,-4.4457,-4.4411,-4.4355,-4.4003,-4.3708,-4.3427,-4.3076,-4.2528,-4.2036,-4.2036,-4.1573,-4.1011,-4.0674,-4.0378,-4.0027,-3.9451,-3.8988,-3.8566,-3.8018,-3.7625,-3.7203,-3.661,-3.6286,-3.5634,-3.4217,-3.3262,-3.2561,-3.2241,-3.2218,0.0,0.0,-3.2218,0.0,-3.2401,-3.2357,-3.2673,-3.3519,-3.3986,-3.4617,0.0,-3.5642,-3.6225,-3.7458,-3.7739,-3.8568,-3.9996,-4.0692,-4.1508,-4.2359,-4.2883,-4.377,-4.4906,-4.5233,-4.5838,-4.6771,-4.7172,-4.7581,-4.7866,-4.8018,-4.812,-4.812,-4.812,-4.7764,-4.7301,-4.7146,-4.6835,-4.6469,0.0,0.0,0.0,0.0,0.0,0.0,0.0,-3.6599,0.0,-3.7949,0.0,-4.0866,-4.1439,-4.211,-4.2753,-4.3382,0.0,-4.3554,-4.3554,-4.3554,-4.3554,-4.3554,-4.3468,-4.3293,-4.3057,-4.2491,-4.1736,0.0,-4.0337,-3.9704,-3.9015,0.0,0.0,0.0,0.0,0.0,0.0,-4.0013,-4.1221,-4.1996,-4.3291,-4.3862,-4.405,-4.4864,-4.517,-4.517,-4.517,-4.5,-4.4783,-4.4551,-4.4504,-4.4504,-4.4504,-4.4138,-4.3702,-4.3702,-4.3265,-4.2742,-4.2742,-4.2263,-4.1741,-4.1741,-4.1278,-4.0674,-4.0154,-3.9901,-3.9451,-3.8271,-3.7962,-3.7723,-3.7091,-3.6525,-3.5601,-3.4168,-3.332,-3.2734,-3.2364,0.0,0.0,0.0,0.0,0.0,-3.3156,-3.268,-3.2793,-3.3935,-3.403,-3.4504,-3.5655,-3.571,-3.6225,-3.7458,-3.7739,-3.8568,-3.9952,-4.0935,-4.1814,-4.2539,-4.3287,-4.4256,-4.5431,-4.604,-4.6673,-4.7361,-4.7895,-4.812,-4.812,-4.812,-4.812,-4.812,-4.812,-4.7764,-4.7301,-4.7301,-4.6939,-4.6469,0.0,0.0,0.0,0.0,0.0,-3.775,-3.7649,-3.7595,-3.8192,-3.9793,-4.071,-4.1453,-4.2053,-4.3153,-4.3895,-4.401,-4.4495,0.0,0.0,0.0,0.0,-4.4795,-4.431,-4.4024,-4.3979,-4.3366,-4.2665,-4.1765,-4.1666,-4.0944,-3.962,-3.9507,0.0,0.0,0.0,0.0,-4.0224,-4.1095,0.0,-4.3418,-4.369,-4.4223,-4.4921,-4.5278,-4.5413,-4.5413,-4.5413,-4.5276,-4.5032,-4.4986,-4.4986,-4.4986,-4.4986,-4.4915,-4.4829,-4.4829,-4.4251,-4.3574,-4.3574,-4.3,-4.2402,-4.2402,-4.1924,-4.1418,-4.132,-4.0505,-3.9578,-3.8888,-3.8271,-3.7723,-3.7091,-3.6525,-3.5881,-3.5277,-3.4246,-3.3381,-3.2989,0.0,0.0,0.0,0.0,-3.3183,-3.3704,-3.3254,0.0,0.0,0.0,-3.4938,-3.5683,-3.571,-3.6225,-3.7458,-3.7739,-3.8497,-3.973,-4.1293,-4.2116,-4.2286,-4.3616,-4.4902,-4.6125,-4.6237,-4.6897,-4.7979,-4.8078,-4.812,-4.812,-4.812,-4.812,-4.812,-4.812,-4.7764,-4.7301,-4.7301,-4.6939,-4.6469,0.0,0.0,0.0,0.0,0.0,0.0,0.0,-3.983,-4.0274,-4.121,-4.1874,-4.2609,-4.3546,-4.4209,-4.4713,-4.5059,-4.5331,-4.5504,-4.5504,-4.5504,-4.5504,-4.5504,-4.5216,-4.5012,-4.4862,-4.429,-4.3684,-4.3163,-4.2377,-4.1623,-4.093,-4.0168,0.0,0.0,0.0,-4.0407,0.0,0.0,-4.3223,-4.4029,-4.4493,-4.5158,-4.587,-4.61,-4.6379,-4.6668,-4.6668,-4.6622,-4.6382,-4.5445,-4.5124,-4.5124,-4.5124,-4.5124,-4.5124,-4.5124,-4.4818,-4.4439,-4.4362,-4.3771,-4.3215,-4.3093,-4.2331,-4.1615,-4.1615,-4.0912,-4.0083,-3.9507,-3.8847,-3.8116,-3.7161,-3.6525,-3.5951,-3.5568,-3.4758,-3.4028,-3.3563,0.0,-3.32,0.0,0.0,0.0,0.0,0.0,0.0,0.0,0.0,-3.5046,-3.5683,-3.6008,-3.6592,-3.7458,-3.7912,-3.879,-4.0152,-4.1436,-4.2258,-4.267,-4.4144,-4.538,-4.6307,-4.6616,-4.7263,-4.812,-4.812,-4.812,-4.812,-4.812,-4.812,-4.812,-4.812,-4.7764,-4.7301,-4.7301,-4.6939,-4.6521,0.0,-3.8164,0.0,0.0,-3.9707,-4.0644,-4.1354,-4.2024,-4.2405,-4.2378,-4.3018,-4.3905,-4.4953,-4.5142,-4.5389,-4.5927,-4.5925,-4.588,-4.588,-4.588,-4.588,-4.588,-4.588,-4.579,-4.5595,-4.5118,-4.4697,-4.4285,-4.3107,-4.2364,-4.1993,-4.0802,-4.0266,0.0,0.0,0.0,-4.2519,-4.3499,-4.4217,-4.4729,-4.5413,-4.6155,-4.6778,-4.6949,-4.7346,-4.7782,-4.7782,-4.7782,-4.7575,-4.6131,-4.5662,-4.5662,-4.5662,-4.5577,-4.5462,-4.5462,-4.5316,-4.5124,-4.4922,-4.4461,-4.3941,-4.3726,-4.2851,-4.198,-4.1854,-4.1334,-4.0674,-3.9929,-3.9226,-3.8396,-3.7372,-3.6722,-3.6185,-3.58,-3.52,-3.4661,-3.4213,0.0,0.0,0.0,0.0,0.0,-3.4924,-3.4978,0.0,0.0,-3.4978,-3.5181,-3.5683,-3.628,-3.689,-3.7472,-3.8068,-3.9081,-4.0472,-4.1361,-4.2242,-4.3051,-4.4512,-4.5627,-4.6321,-4.6926,-4.7544,-4.817,-4.817,-4.817,-4.817,-4.8311,-4.8367,-4.8331,-4.8471,-4.8206,-4.7792,-4.7792,-4.7397,-4.6922,0.0,0.0,0.0,0.0,0.0,-4.1768,-4.2456,-4.3119,-4.349,-4.3297,-4.4323,-4.5214,-4.5476,-4.5859,-4.6107,-4.6165,-4.6015,-4.588,-4.588,-4.588,-4.588,-4.588,-4.588,-4.588,-4.5835,-4.5822,-4.5369,-4.4568,-4.4394,-4.3527,-4.2022,-4.1851,-4.1794,-4.1808,-4.1865,-4.2677,-4.3979,-4.4093,-4.5003,-4.6264,-4.6368,-4.6911,-4.7695,-4.7695,-4.7738,-4.7782,-4.7782,-4.7782,-4.7753,-4.759,-4.7561,-4.7561,-4.7561,-4.7108,-4.6645,-4.6645,-4.6102,-4.5413,-4.5124,-4.4911,-4.4652,-4.4373,-4.3821,-4.3174,-4.2612,-4.1994,-4.1193,-4.0027,-3.8833,-3.7962,-3.7835,-3.7316,-3.683,-3.6624,-3.5939,-3.5344,-3.51,-3.4376,-3.4111,-3.4639,0.0,0.0,-3.5574,-3.5642,-3.5642,0.0,-3.5642,-3.5655,-3.571,-3.628,-3.689,-3.7472,-3.8068,-3.8993,-4.0232,-4.1119,-4.1966,-4.2865,-4.4335,-4.5448,-4.6321,-4.6926,-4.768,-4.8445,-4.8445,-4.8445,-4.8487,-4.9039,-4.914,-4.8953,-4.9567,-4.9634,-4.9303,-4.9303,-4.8745,-4.8064,0.0,0.0,0.0,0.0,0.0,-4.3156,-4.382,-4.4455,-4.4853,-4.4968,-4.5282,-4.5653,-4.6152,-4.6329,-4.6447,-4.6447,-4.6373,-4.6328,-4.6328,-4.6328,-4.6328,-4.6328,-4.618,-4.609,-4.609,-4.597,-4.5719,-4.5369,-4.4844,-4.425,-4.3527,-4.3023,-4.2794,-4.2822,-4.3149,-4.3724,-4.4477,-4.5252,-4.6008,-4.6743,-4.712,-4.7702,-4.8348,-4.8348,-4.858,-4.8914,-4.8914,-4.8914,-4.8914,-4.8914,-4.8406,-4.7782,-4.7782,-4.7608,-4.7332,-4.694,-4.6558,-4.6131,-4.5513,-4.5184,-4.4908,-4.469,-4.4054,-4.3441,-4.3188,-4.2345,-4.1474,-4.0983,-3.9901,-3.8805,-3.8032,-3.7695,-3.7349,-3.6777,-3.642,-3.615,-3.5967,-3.5511,0.0,-3.5556,0.0,-3.5412,-3.5696,-3.571,-3.571,0.0,-3.571,-3.5873,-3.6225,-3.6822,-3.7446,-3.8,-3.8993,-3.9888,-4.073,-4.162,-4.2648,-4.3883,-4.5011,-4.6007,-4.6869,-4.7609,-4.8268,-4.8745,-4.8745,-4.8859,-4.9062,-4.9303,-4.9488,-4.9623,-4.9914,-4.9802,-4.947,-4.947,-4.9158,-4.8749,-4.1989,-4.2233,-4.2632,-4.3349,-4.3853,-4.4427,-4.5067,-4.5526,-4.5925,-4.6347,-4.6233,-4.6281,-4.677,-4.6727,-4.6683,-4.6683,-4.6816,-4.6874,-4.6874,-4.7096,-4.7214,-4.7214,-4.6829,-4.6592,-4.6592,-4.6193,-4.6015,-4.6015,-4.5327,-4.4844,-4.4598,-4.37,-4.3455,-4.37,-4.4129,-4.4579,-4.5048,-4.6114,-4.677,-4.7158,-4.7796,-4.8435,-4.9001,-4.9001,-4.9291,-4.9717,-4.9717,-4.9717,-4.9717,-4.9717,-4.9074,-4.8333,-4.8333,-4.8203,-4.797,-4.7521,-4.7068,-4.6645,-4.5967,-4.5511,-4.5138,-4.4876,-4.4319,-4.3814,-4.354,-4.2669,-4.1797,-4.1418,-4.0519,-3.9507,-3.8622,-3.8145,-3.7725,-3.716,-3.6858,-3.6642,-3.6524,-3.6325,0.0,-3.6206,-3.5978,-3.5804,-3.5804,-3.5764,0.0,0.0,-3.59,-3.6089,-3.6578,-3.7147,-3.777,-3.8396,-3.9563,-4.0485,-4.111,-4.1895,-4.3067,-4.4602,-4.5385,-4.6307,-4.7235,-4.8176,-4.8745,-4.9009,-4.9093,-4.9188,-4.9277,-4.9646,-4.9865,-5.0055,-5.0407,-5.0388,-5.0174,-5.0174,-4.9941,-4.9572,-4.4112,-4.4098,-4.4225,-4.5113,-4.5274,-4.5514,-4.6175,-4.6279,-4.6518,-4.7204,-4.7294,-4.7294,-4.7309,-4.7077,-4.6916,-4.6916,-4.7303,-4.7598,-4.7598,-4.8202,-4.8602,-4.8602,-4.7937,-4.7598,-4.7598,-4.6681,-4.621,-4.621,-4.6001,-4.5457,-4.4598,-4.37,-4.3772,-4.4598,-4.4598,-4.5107,-4.5909,-4.6563,-4.7201,-4.7825,-4.8464,-4.9088,-4.9717,-4.9717,-4.9717,-4.9717,-4.9717,-4.9717,-4.9717,-4.9717,-4.9717,-4.9703,-4.9703,-4.9219,-4.8663,-4.8663,-4.7764,-4.6746,-4.6529,-4.6008,-4.5367,-4.4936,-4.4783,-4.4581,-4.3684,-4.302,-4.2219,-4.0969,-4.0224,-3.9788,-3.976,-3.8735,-3.7906,-3.7892,-3.7216,-3.6721,-3.6721,-3.6524,-3.6405,-3.6405,-3.6206,-3.6086,-3.6086,-3.5858,0.0,0.0,-3.6411,-3.6383,-3.6605,-3.7147,-3.777,-3.8396,-3.9563,-4.0485,-4.111,-4.1707,-4.2876,-4.4602,-4.521,-4.6081,-4.7235,-4.8375,-4.9058,-4.932,-4.9585,-4.9389,-4.9009,-5.028,-5.0484,-5.0139,-5.1295,-5.1773,-5.1759,-5.1759,-5.1379,-5.0859,-4.4231,-4.4635,-4.5117,-4.5831,-4.6104,-4.6398,-4.7089,-4.7365,-4.7525,-4.7737,-4.7639,-4.751,-4.751,-4.7294,-4.7164,-4.7164,-4.7732,-4.806,-4.806,-4.8716,-4.9073,-4.9073,-4.8684,-4.8267,-4.7822,-4.7391,-4.6843,-4.621,-4.6135,-4.5899,-4.5486,-4.5194,-4.5208,-4.5486,-4.5486,-4.5893,-4.6577,-4.7401,-4.7995,-4.8478,-4.9324,-4.9688,-4.9717,-4.9717,-4.9717,-4.9717,-4.9717,-4.9717,-4.9717,-4.9717,-4.9717,-4.9717,-4.9717,-4.9538,-4.9291,-4.8856,-4.8387,-4.7894,-4.6946,-4.6463,-4.6034,-4.5436,-4.506,-4.4741,-4.445,-4.3466,-4.2345,-4.1502,-4.0828,-4.028,-3.9859,-3.9451,-3.9044,-3.8663,-3.7992,-3.7506,-3.7506,-3.6998,-3.6603,-3.6603,-3.6445,-3.6397,-3.662,-3.6566,-3.6702,-3.7189,-3.7159,-3.7263,-3.7612,-3.7655,-3.8161,-3.9334,-4.0116,-4.091,-4.172,-4.2304,-4.3491,-4.5224,-4.5404,-4.6488,-4.8375,-4.871,-4.9143,-4.9585,-4.9683,-4.9635,-4.9566,-4.998,-5.029,-5.0674,-5.1014,-5.1421,-5.1787,-5.1787,-5.166,-5.1435,-4.5113,-4.5503,-4.604,-4.6816,-4.7033,-4.7253,-4.7691,-4.788,-4.8007,-4.8007,-4.7837,-4.7752,-4.7752,-4.785,-4.7886,-4.7668,-4.8282,-4.876,-4.9,-4.9628,-5.0002,-5.0002,-4.9611,-4.9192,-4.8775,-4.8311,-4.7805,-4.7197,-4.6783,-4.6369,-4.6001,-4.5925,-4.5925,-4.6015,-4.6263,-4.6628,-4.7157,-4.8248,-4.8802,-4.907,-4.9919,-5.0086,-4.9829,-4.9829,-4.9781,-4.9717,-4.9717,-4.9717,-4.9717,-4.9717,-4.9717,-4.9717,-4.9717,-4.9717,-4.9596,-4.9204,-4.8914,-4.846,-4.7462,-4.6888,-4.6417,-4.5677,-4.5276,-4.4943,-4.4532,-4.3559,-4.2521,-4.1873,-4.1253,-4.0746,-4.0449,-4.0236,-3.9953,-3.9571,-3.8963,-3.8458,-3.8392,-3.7962,-3.7604,-3.7524,-3.735,-3.7246,-3.7373,-3.7318,-3.7412,-3.7813,-3.7781,-3.7909,-3.8357,-3.8108,-3.8523,-3.975,-4.0493,-4.1207,-4.2005,-4.2806,-4.3996,-4.55,-4.617,-4.7347,-4.8895,-4.8895,-4.9192,-4.9717,-4.9717,-4.9606,-4.9495,-4.9687,-4.9935,-5.0227,-5.0691,-5.1112,-5.1478,-5.1702,-5.1787,-5.1745,-4.6478,-4.6671,-4.6954,-4.7858,-4.8007,-4.8007,-4.8007,-4.8049,-4.8049,-4.8049,-4.8095,-4.8083,-4.8083,-4.8675,-4.8927,-4.8505,-4.9074,-4.9644,-5.0197,-5.0902,-5.1276,-5.1276,-5.0631,-5.0287,-5.0242,-4.9385,-4.8952,-4.8907,-4.7801,-4.6972,-4.6342,-4.6191,-4.6191,-4.6371,-4.7016,-4.746,-4.7819,-4.9029,-4.956,-4.9616,-5.0235,-5.0342,-5.0135,-5.0135,-4.999,-4.9781,-4.9781,-4.9781,-4.9781,-4.9781,-4.9781,-4.9781,-4.9781,-4.9781,-4.9732,-4.9717,-4.9262,-4.8653,-4.8029,-4.739,-4.6645,-4.5811,-4.5533,-4.5209,-4.4155,-4.3409,-4.2844,-4.2263,-4.1596,-4.1156,-4.1411,-4.0953,-4.0566,-4.0566,-3.9982,-3.9513,-3.9299,-3.923,-3.912,-3.8943,-3.8669,-3.8477,-3.8297,-3.8088,-3.8138,-3.8437,-3.8317,-3.8428,-3.8935,-3.8685,-3.8942,-3.9803,-4.0667,-4.1415,-4.2059,-4.3248,-4.4428,-4.5619,-4.7293,-4.8409,-4.8895,-4.8895,-4.9192,-4.9717,-4.9717,-4.9389,-4.8938,-4.9523,-4.9453,-4.9108,-5.0297,-5.0803,-5.0944,-5.152,-5.1745,-5.1787,-4.6849,-4.7331,-4.7725,-4.7976,-4.8133,-4.8244,-4.8244,-4.837,-4.8453,-4.8453,-4.8772,-4.898,-4.898,-4.9446,-4.9938,-5.035,-5.0487,-5.0638,-5.0804,-5.144,-5.1803,-5.1803,-5.1452,-5.1028,-5.0516,-5.0123,-4.9565,-4.8907,-4.8501,-4.817,-4.8023,-4.7977,-4.7977,-4.8023,-4.8185,-4.857,-4.9088,-4.9614,-4.9981,-5.0265,-5.0573,-5.06,-5.0405,-5.0405,-5.0342,-5.0294,-5.0294,-5.0294,-5.0294,-5.0294,-5.0294,-5.0294,-5.0294,-5.0294,-5.0246,-4.9829,-4.9567,-4.9306,-4.8667,-4.8043,-4.7404,-4.6674,-4.6001,-4.537,-4.4892,-4.4319,-4.3835,-4.3692,-4.2795,-4.201,-4.2067,-4.1581,-4.1181,-4.1181,-4.0694,-4.0239,-4.0198,-3.9621,-3.9201,-3.912,-3.8943,-3.8838,-3.8878,-3.8848,-3.8882,-3.9091,-3.9044,-3.9168,-3.958,-3.9713,-3.9969,-4.0468,-4.112,-4.1869,-4.267,-4.3647,-4.4895,-4.6492,-4.7777,-4.8595,-4.8895,-4.9108,-4.9404,-4.9717,-4.9717,-4.9389,-4.8909,-4.9052,-4.9056,-4.9023,-4.9304,-5.0045,-5.0888,-5.1042,-5.1379,-5.1787,-4.7585,-4.789,-4.8175,-4.826,-4.837,-4.8453,-4.8453,-4.8537,-4.8727,-4.9066,-4.9336,-4.9604,-4.991,-5.0424,-5.0931,-5.1268,-5.1135,-5.1122,-5.144,-5.1789,-5.2002,-5.2002,-5.1849,-5.1621,-5.1258,-5.0968,-5.0407,-4.9506,-4.9291,-4.9051,-4.8755,-4.8663,-4.8663,-4.8755,-4.9081,-4.9453,-4.984,-5.0292,-5.0634,-5.0805,-5.0932,-5.0822,-5.0662,-5.0662,-5.0581,-5.0501,-5.0501,-5.0501,-5.0501,-5.0501,-5.0501,-5.0501,-5.0501,-5.0501,-5.0453,-5.0135,-4.999,-4.9698,-4.8899,-4.8478,-4.7985,-4.7056,-4.6268,-4.5595,-4.5353,-4.4834,-4.4375,-4.4375,-4.3586,-4.2926,-4.3041,-4.2581,-4.2106,-4.2106,-4.1645,-4.1186,-4.1089,-4.0664,-4.0271,-4.0064,-3.994,-3.9831,-3.9713,-3.9818,-3.9889,-3.9878,-4.0029,-4.0191,-4.0364,-4.0773,-4.1071,-4.11,-4.1565,-4.2351,-4.3476,-4.473,-4.6001,-4.7248,-4.8074,-4.8645,-4.8895,-4.9157,-4.9453,-4.9717,-4.9717,-4.9488,-4.9058,-4.8945,-4.8859,-4.8779,-4.8921,-4.9623,-5.0547,-5.0935,-5.1482,-5.2004,-4.8328,-4.8385,-4.8469,-4.862,-4.8661,-4.8661,-4.8661,-4.8712,-4.8989,-4.9605,-4.9866,-5.0205,-5.079,-5.1451,-5.1852,-5.1852,-5.1511,-5.1485,-5.2094,-5.2124,-5.2124,-5.2124,-5.2078,-5.2033,-5.2033,-5.1726,-5.1224,-5.0437,-5.0206,-4.9784,-4.925,-4.9082,-4.9082,-4.928,-4.9814,-5.0206,-5.0375,-5.0943,-5.1214,-5.1214,-5.1214,-5.1058,-5.0855,-5.0855,-5.0742,-5.0596,-5.0596,-5.0596,-5.0596,-5.0596,-5.0596,-5.0596,-5.0596,-5.0596,-5.0581,-5.0534,-5.0375,-5.0003,-4.9174,-4.8798,-4.8373,-4.7097,-4.6417,-4.5951,-4.5623,-4.5176,-4.4801,-4.4801,-4.4267,-4.3863,-4.4066,-4.3587,-4.3137,-4.3137,-4.2716,-4.2326,-4.2074,-4.2018,-4.185,-4.1412,-4.1327,-4.1127,-4.0707,-4.0933,-4.1,-4.0817,-4.1055,-4.1257,-4.1338,-4.1814,-4.2032,-4.1896,-4.2066,-4.2937,-4.4433,-4.5995,-4.7122,-4.7815,-4.8344,-4.8695,-4.8959,-4.9256,-4.9488,-4.9717,-4.9717,-4.9537,-4.9256,-4.9058,-4.8795,-4.8602,-4.8999,-4.953,-5.0241,-5.1074,-5.175,-5.2343,-4.8537,-4.8733,-4.8914,-4.8955,-4.8955,-4.8955,-4.8955,-4.9268,-4.9558,-4.9682,-5.0682,-5.1436,-5.1528,-5.2144,-5.256,-5.256,-5.247,-5.2471,-5.2563,-5.2578,-5.2578,-5.2578,-5.2367,-5.2261,-5.2261,-5.1803,-5.1527,-5.1375,-5.1111,-5.0911,-5.0868,-5.0822,-5.0822,-5.0868,-5.0926,-5.1018,-5.1065,-5.1169,-5.1214,-5.1214,-5.1214,-5.1167,-5.112,-5.112,-5.112,-5.1088,-5.1088,-5.1088,-5.1088,-5.1088,-5.1088,-5.1088,-5.1088,-5.1088,-5.1026,-5.0822,-5.0713,-5.0555,-5.0051,-4.9291,-4.8373,-4.7097,-4.6705,-4.6502,-4.5951,-4.5763,-4.569,-4.569,-4.5154,-4.469,-4.4748,-4.4255,-4.3834,-4.3834,-4.3761,-4.3689,-4.3646,-4.3445,-4.32,-4.2967,-4.2734,-4.2425,-4.1979,-4.1973,-4.1893,-4.1708,-4.1759,-4.1989,-4.2485,-4.2595,-4.2871,-4.3306,-4.3156,-4.3918,-4.5636,-4.6417,-4.7323,-4.8395,-4.8695,-4.9009,-4.9256,-4.9537,-4.9683,-4.9717,-4.9717,-4.9537,-4.9305,-4.9256,-4.9058,-4.8916,-4.9522,-5.0164,-5.0725,-5.1375,-5.207,-5.2627,-4.899,-4.9087,-4.9169,-4.9169,-4.9169,-4.9169,-4.9169,-4.9636,-5.0169,-5.0525,-5.1311,-5.1997,-5.2427,-5.2618,-5.2713,-5.2713,-5.2713,-5.2713,-5.2713,-5.2713,-5.2713,-5.2713,-5.2563,-5.2457,-5.2306,-5.2079,-5.1849,-5.1587,-5.1494,-5.1354,-5.1214,-5.1214,-5.1214,-5.1214,-5.1354,-5.1401,-5.1401,-5.1556,-5.1556,-5.1401,-5.1401,-5.1308,-5.1214,-5.1214,-5.1214,-5.1214,-5.1214,-5.1308,-5.1401,-5.1401,-5.1494,-5.1602,-5.1448,-5.1401,-5.1354,-5.1105,-5.0728,-5.0361,-5.0183,-4.9412,-4.858,-4.7952,-4.7285,-4.6705,-4.6461,-4.6127,-4.588,-4.588,-4.5634,-4.5416,-4.5416,-4.4908,-4.4472,-4.4472,-4.4197,-4.3993,-4.3993,-4.3878,-4.3704,-4.3355,-4.3165,-4.2943,-4.2466,-4.2579,-4.2638,-4.256,-4.2713,-4.2956,-4.3247,-4.3247,-4.3432,-4.3804,-4.4387,-4.5073,-4.5888,-4.7093,-4.7998,-4.8481,-4.8895,-4.9157,-4.932,-4.9585,-4.9717,-4.9717,-4.9717,-4.9634,-4.9488,-4.9355,-4.9457,-4.9688,-4.9867,-5.0466,-5.1323,-5.178,-5.2349,-5.2962,-4.9316,-4.9356,-4.9356,-4.9356,-4.9356,-4.9418,-4.9575,-5.0143,-5.0788,-5.149,-5.1989,-5.2539,-5.3098,-5.2937,-5.2803,-5.2803,-5.2713,-5.2713,-5.2713,-5.2713,-5.2713,-5.2713,-5.2713,-5.2608,-5.2397,-5.2352,-5.2124,-5.1757,-5.1726,-5.1602,-5.1369,-5.1369,-5.1369,-5.1416,-5.1587,-5.168,-5.1726,-5.1895,-5.1895,-5.168,-5.168,-5.1541,-5.1369,-5.1369,-5.1369,-5.1369,-5.1369,-5.1509,-5.168,-5.168,-5.1834,-5.1941,-5.1741,-5.1634,-5.1587,-5.1354,-5.079,-5.0216,-5.0135,-4.9576,-4.8962,-4.8769,-4.7938,-4.7184,-4.7039,-4.6563,-4.6113,-4.6113,-4.5996,-4.588,-4.588,-4.5459,-4.5111,-4.5111,-4.4734,-4.4429,-4.4429,-4.4429,-4.4254,-4.3784,-4.374,-4.3517,-4.3051,-4.3244,-4.3385,-4.3385,-4.3648,-4.3804,-4.3804,-4.3804,-4.3921,-4.4291,-4.5413,-4.6056,-4.6209,-4.7758,-4.8545,-4.8595,-4.9058,-4.9305,-4.9404,-4.9585,-4.9717,-4.9717,-4.9717,-4.9717,-4.9683,-4.9661,-4.9923,-5.0385,-5.05,-5.1087,-5.1933,-5.2382,-5.2809,-5.3213,-4.9316,-4.9437,-4.9557,-4.9557,-4.9557,-4.9792,-5.0508,-5.096,-5.1506,-5.2223,-5.2894,-5.3331,-5.3377,-5.3188,-5.3071,-5.3071,-5.2848,-5.2713,-5.2713,-5.2713,-5.2713,-5.2713,-5.2713,-5.2713,-5.2669,-5.2457,-5.2291,-5.2261,-5.2063,-5.1941,-5.1941,-5.1941,-5.1941,-5.1941,-5.1941,-5.1987,-5.1987,-5.2002,-5.2002,-5.1987,-5.1987,-5.1941,-5.1941,-5.1941,-5.1941,-5.1941,-5.1941,-5.1941,-5.1987,-5.1987,-5.1987,-5.2002,-5.1987,-5.1787,-5.1587,-5.1587,-5.1199,-5.0665,-5.0231,-5.0057,-4.9771,-4.8918,-4.8605,-4.8435,-4.784,-4.7216,-4.6705,-4.6705,-4.6301,-4.588,-4.588,-4.5837,-4.5808,-4.5808,-4.5779,-4.575,-4.575,-4.575,-4.5555,-4.5027,-4.4981,-4.4766,-4.4317,-4.428,-4.4294,-4.4294,-4.4336,-4.4364,-4.4364,-4.4364,-4.4617,-4.5192,-4.588,-4.6525,-4.7087,-4.8019,-4.8645,-4.8845,-4.9157,-4.9453,-4.9683,-4.9669,-4.9717,-4.9717,-4.9717,-4.9717,-4.9727,-5.0351,-5.0627,-5.0801,-5.1976,-5.2433,-5.2578,-5.3172,-5.3419,-5.3462,-4.9677,-4.9717,-4.9797,-4.9797,-4.9797,-5.0033,-5.0758,-5.1354,-5.202,-5.2744,-5.3306,-5.3643,-5.3643,-5.3452,-5.3277,-5.3277,-5.3173,-5.3129,-5.3129,-5.3011,-5.2893,-5.2713,-5.2713,-5.2713,-5.2713,-5.2608,-5.2457,-5.2306,-5.2215,-5.2109,-5.2002,-5.2002,-5.2002,-5.2002,-5.2155,-5.2185,-5.2185,-5.2337,-5.2337,-5.2185,-5.2185,-5.2109,-5.2002,-5.2002,-5.2002,-5.2002,-5.2002,-5.2078,-5.2185,-5.2185,-5.2291,-5.2397,-5.2246,-5.2139,-5.1987,-5.168,-5.1354,-5.0964,-5.0632,-5.0313,-5.0028,-4.9683,-4.9112,-4.8667,-4.842,-4.7869,-4.7419,-4.7419,-4.723,-4.7056,-4.7056,-4.7056,-4.6925,-4.6534,-4.6475,-4.633,-4.5938,-4.6229,-4.6292,-4.577,-4.6052,-4.6106,-4.5625,-4.5577,-4.5577,-4.5577,-4.5577,-4.5577,-4.5577,-4.5577,-4.5858,-4.6476,-4.6862,-4.72,-4.7426,-4.8283,-4.8895,-4.9157,-4.9389,-4.9585,-4.9717,-4.9717,-4.9717,-4.9717,-4.9717,-4.9964,-5.0322,-5.0569,-5.1199,-5.1955,-5.2434,-5.2804,-5.3196,-5.3428,-5.3515,-5.3515,-4.9876,-4.9876,-4.9876,-4.9876,-5.0105,-5.05,-5.1195,-5.1907,-5.2618,-5.3329,-5.3706,-5.3903,-5.3903,-5.3671,-5.354,-5.354,-5.3437,-5.3377,-5.3377,-5.3277,-5.3071,-5.2713,-5.2713,-5.2713,-5.2713,-5.2713,-5.2608,-5.2457,-5.2457,-5.2367,-5.2216,-5.2216,-5.2216,-5.2216,-5.2367,-5.2457,-5.2457,-5.2608,-5.2608,-5.2457,-5.2457,-5.2322,-5.2216,-5.2216,-5.2216,-5.2216,-5.2216,-5.2291,-5.2457,-5.2457,-5.2563,-5.2669,-5.2457,-5.2352,-5.2215,-5.1757,-5.1494,-5.1261,-5.1011,-5.0632,-5.0264,-5.0135,-4.9543,-4.9016,-4.9016,-4.8537,-4.8072,-4.8072,-4.7912,-4.7782,-4.7782,-4.7782,-4.7637,-4.7201,-4.7129,-4.6983,-4.6534,-4.6853,-4.6943,-4.6569,-4.6785,-4.6866,-4.6474,-4.6342,-4.6293,-4.6293,-4.6293,-4.6342,-4.6425,-4.6706,-4.7003,-4.7426,-4.7808,-4.8055,-4.8105,-4.8744,-4.9108,-4.9305,-4.9585,-4.9717,-4.9717,-4.9717,-4.9717,-4.9717,-4.9717,-5.011,-5.0685,-5.0888,-5.1599,-5.2638,-5.2789,-5.3138,-5.3515,-5.3515,-5.3515,-5.3515,-4.9876,-4.9876,-4.9876,-4.9931,-5.05,-5.1211,-5.1907,-5.2633,-5.3344,-5.4008,-5.4103,-5.4103,-5.4103,-5.3903,-5.3789,-5.3789,-5.3584,-5.3421,-5.3377,-5.3377,-5.3217,-5.2713,-5.2713,-5.2713,-5.2713,-5.2713,-5.2713,-5.2713,-5.2713,-5.2713,-5.2713,-5.2713,-5.2713,-5.2713,-5.2713,-5.2713,-5.2713,-5.2713,-5.2713,-5.2713,-5.2713,-5.2713,-5.2713,-5.2713,-5.2713,-5.2713,-5.2713,-5.2713,-5.2713,-5.2713,-5.2713,-5.2713,-5.2713,-5.2503,-5.2215,-5.1757,-5.1587,-5.1541,-5.1261,-5.1011,-5.0665,-5.0231,-4.9878,-4.9717,-4.9717,-4.919,-4.8692,-4.8692,-4.8232,-4.7796,-4.7796,-4.7796,-4.7796,-4.7796,-4.7796,-4.7796,-4.7782,-4.7782,-4.7688,-4.7437,-4.72,-4.6914,-4.675,-4.6488,-4.6307,-4.6307,-4.6307,-4.6439,-4.6702,-4.7541,-4.8029,-4.8029,-4.8581,-4.9058,-4.9305,-4.9305,-4.9305,-4.932,-4.9585,-4.9717,-4.9717,-4.9717,-4.9717,-4.9717,-4.9717,-5.0061,-5.0728,-5.1352,-5.2006,-5.2696,-5.3268,-5.3515,-5.3515,-5.3515,-5.3515,-5.3515,-4.9876,-4.9876,-5.0074,-5.0563,-5.0832,-5.1385,-5.2602,-5.2965,-5.3344,-5.4008,-5.4103,-5.4103,-5.4103,-5.406,-5.4017,-5.4017,-5.3931,-5.3844,-5.3687,-5.3687,-5.354,-5.3217,-5.3055,-5.2893,-5.2713,-5.2713,-5.2713,-5.2713,-5.2713,-5.2713,-5.2713,-5.2713,-5.2713,-5.2713,-5.2713,-5.2713,-5.2713,-5.2713,-5.2713,-5.2713,-5.2713,-5.2713,-5.2713,-5.2713,-5.2713,-5.2713,-5.2713,-5.2713,-5.2713,-5.2713,-5.2713,-5.2713,-5.2713,-5.2503,-5.2261,-5.1972,-5.1741,-5.1541,-5.1261,-5.1011,-5.0728,-5.0438,-5.0183,-4.9926,-4.9732,-4.9538,-4.9393,-4.9393,-4.9248,-4.9103,-4.9103,-4.9103,-4.8957,-4.8522,-4.8435,-4.829,-4.784,-4.8159,-4.834,-4.8038,-4.8359,-4.8534,-4.8289,-4.8155,-4.8105,-4.8105,-4.8105,-4.8155,-4.8239,-4.8474,-4.8623,-4.8623,-4.9007,-4.9207,-4.9305,-4.9305,-4.9404,-4.9585,-4.9683,-4.9717,-4.9717,-4.9717,-4.9717,-4.9717,-4.9717,-5.0307,-5.1352,-5.1541,-5.2355,-5.3552,-5.3742,-5.3904,-5.406,-5.406,-5.3956,-5.3762,-4.9876,-4.9876,-5.0137,-5.0848,-5.1211,-5.1805,-5.3043,-5.3439,-5.3798,-5.4311,-5.4359,-5.4359,-5.4215,-5.4215,-5.4173,-5.4103,-5.4103,-5.406,-5.3903,-5.3903,-5.3817,-5.3584,-5.3424,-5.3248,-5.2966,-5.2966,-5.2966,-5.2966,-5.2966,-5.2966,-5.2966,-5.2966,-5.2966,-5.2966,-5.2966,-5.2966,-5.2966,-5.2966,-5.2966,-5.2966,-5.2966,-5.2966,-5.2966,-5.2893,-5.2848,-5.2848,-5.2848,-5.2848,-5.2848,-5.2848,-5.2803,-5.2713,-5.2713,-5.2608,-5.2412,-5.22,-5.1972,-5.1695,-5.1448,-5.1152,-5.0917,-5.0662,-5.0423,-5.0183,-4.9926,-4.9878,-4.9829,-4.9732,-4.9717,-4.9717,-4.9717,-4.9717,-4.9553,-4.9161,-4.9103,-4.8972,-4.858,-4.887,-4.9054,-4.8846,-4.911,-4.9256,-4.9058,-4.8959,-4.8895,-4.8895,-4.9009,-4.9058,-4.9058,-4.9143,-4.9242,-4.9242,-4.9389,-4.9453,-4.9453,-4.9453,-4.9537,-4.9717,-4.9717,-4.9717,-4.9717,-4.9717,-4.9717,-4.9717,-4.9717,-5.0409,-5.1614,-5.1715,-5.2596,-5.3904,-5.4008,-5.4149,-5.4304,-5.4304,-5.42,-5.406,-4.9876,-4.9876,-5.0137,-5.0848,-5.1584,-5.2321,-5.3257,-5.3983,-5.4513,-5.4771,-5.4813,-5.4713,-5.4454,-5.4454,-5.437,-5.4189,-5.4146,-5.4146,-5.4146,-5.4146,-5.406,-5.3876,-5.3876,-5.373,-5.3465,-5.3421,-5.3377,-5.3377,-5.3377,-5.3377,-5.3377,-5.3377,-5.3377,-5.3377,-5.3377,-5.3377,-5.3377,-5.3377,-5.3377,-5.3377,-5.3377,-5.3377,-5.3377,-5.3204,-5.3115,-5.3115,-5.3115,-5.3115,-5.3115,-5.3131,-5.2937,-5.2713,-5.2713,-5.2713,-5.2669,-5.2397,-5.2155,-5.1941,-5.168,-5.1401,-5.112,-5.0902,-5.0695,-5.0501,-5.0198,-5.0135,-5.0086,-4.9829,-4.9732,-4.9732,-4.9732,-4.9732,-4.9717,-4.9717,-4.9717,-4.9717,-4.9717,-4.9717,-4.9717,-4.9717,-4.9488,-4.9369,-4.9369,-4.9108,-4.8945,-4.8945,-4.9207,-4.9369,-4.9369,-4.9585,-4.9717,-4.9717,-4.9717,-4.9717,-4.9717,-4.9732,-4.9732,-4.9717,-4.9732,-4.9732,-4.9732,-4.9781,-4.9781,-4.9781,-4.9781,-5.0508,-5.1664,-5.1952,-5.2799,-5.4008,-5.4252,-5.4326,-5.4267,-5.4267,-5.4237,-5.4178,-4.9876,-4.9876,-5.0137,-5.0848,-5.1722,-5.2558,-5.3299,-5.4124,-5.4713,-5.4771,-5.4813,-5.4771,-5.4713,-5.4713,-5.4713,-5.4629,-5.4645,-5.4645,-5.4645,-5.4645,-5.4544,-5.4285,-5.4285,-5.4173,-5.3958,-5.3612,-5.3377,-5.3377,-5.3377,-5.3377,-5.3377,-5.3377,-5.3377,-5.3377,-5.3377,-5.3377,-5.3377,-5.3377,-5.3377,-5.3377,-5.3377,-5.3377,-5.3393,-5.3349,-5.3349,-5.3349,-5.3349,-5.3349,-5.3305,-5.316,-5.3071,-5.2982,-5.2758,-5.2713,-5.2669,-5.2397,-5.2155,-5.1941,-5.168,-5.1401,-5.1167,-5.112,-5.1073,-5.0947,-5.0486,-5.0405,-5.039,-5.0342,-5.0135,-5.0038,-5.0038,-4.9829,-4.9717,-4.9717,-4.9717,-4.9717,-4.9717,-4.9717,-4.9717,-4.9717,-4.9634,-4.9634,-4.9634,-4.9585,-4.9537,-4.9537,-4.9585,-4.9634,-4.9634,-4.9683,-4.9717,-4.9717,-4.9717,-4.9717,-4.9717,-4.9926,-4.9926,-4.9717,-4.9926,-5.0038,-5.0038,-5.0246,-5.0342,-5.0342,-5.0342,-5.1028,-5.2218,-5.2267,-5.3234,-5.4634,-5.4686,-5.4512,-5.4201,-5.4201,-5.3774,-5.3114,-4.9876,-4.9876,-5.0137,-5.1024,-5.1843,-5.2681,-5.3531,-5.4416,-5.4964,-5.5072,-5.5072,-5.5031,-5.4964,-5.4922,-5.488,-5.4813,-5.4813,-5.4813,-5.4813,-5.4813,-5.4755,-5.4613,-5.4597,-5.4528,-5.446,-5.4189,-5.3958,-5.3742,-5.3742,-5.3742,-5.3742,-5.3742,-5.3742,-5.3742,-5.3742,-5.3742,-5.3742,-5.3742,-5.3742,-5.3742,-5.3742,-5.3742,-5.3742,-5.3627,-5.3584,-5.3584,-5.3584,-5.3584,-5.354,-5.3321,-5.3204,-5.3026,-5.2803,-5.2713,-5.2669,-5.2503,-5.2246,-5.1987,-5.1834,-5.1509,-5.1214,-5.1214,-5.1214,-5.1073,-5.0757,-5.0647,-5.0614,-5.0501,-5.039,-5.0246,-5.0135,-4.999,-4.9829,-4.9732,-4.9717,-4.9717,-4.9717,-4.9717,-4.9717,-4.9717,-4.9717,-4.9732,-4.9878,-5.0038,-5.0086,-5.0086,-5.0086,-5.0038,-4.9878,-4.9878,-4.9829,-4.9717,-4.9717,-4.9781,-4.9878,-5.0038,-5.0086,-5.0086,-5.0246,-5.0294,-5.0294,-5.0453,-5.0501,-5.0501,-5.0501,-5.1046,-5.196,-5.2383,-5.3079,-5.3882,-5.436,-5.4162,-5.3713,-5.3713,-5.339,-5.2994,-5.001,-5.001,-5.0279,-5.1025,-5.1925,-5.2796,-5.3697,-5.4607,-5.5278,-5.5466,-5.5507,-5.5426,-5.5237,-5.5196,-5.5072,-5.4922,-5.488,-5.488,-5.488,-5.488,-5.488,-5.4838,-5.4838,-5.4854,-5.4813,-5.4813,-5.4587,-5.4231,-5.4173,-5.413,-5.413,-5.4146,-5.4103,-5.4103,-5.4103,-5.4103,-5.4103,-5.4103,-5.4103,-5.4103,-5.4103,-5.4103,-5.4103,-5.3903,-5.3876,-5.3876,-5.3876,-5.3876,-5.3833,-5.3481,-5.3305,-5.3115,-5.2803,-5.2713,-5.2713,-5.2713,-5.2397,-5.2033,-5.1987,-5.1649,-5.1261,-5.1214,-5.1214,-5.112,-5.0917,-5.0855,-5.0822,-5.0677,-5.0581,-5.0486,-5.0279,-5.0135,-5.0038,-4.9781,-4.9732,-4.9717,-4.9717,-4.9732,-4.9781,-4.9781,-4.9829,-4.9926,-5.0135,-5.0342,-5.0501,-5.0501,-5.0501,-5.039,-5.0183,-5.0183,-5.0086,-4.9829,-4.9829,-4.9926,-5.0183,-5.0183,-5.0327,-5.0534,-5.0581,-5.0581,-5.0534,-5.0581,-5.0644,-5.0644,-5.0644,-5.0984,-5.1605,-5.2363,-5.2743,-5.2955,-5.3719,-5.3608,-5.2995,-5.289,-5.2845,-5.2845,-5.0512,-5.0512,-5.0543,-5.0662,-5.1923,-5.2981,-5.3117,-5.4584,-5.5702,-5.5742,-5.5886,-5.5927,-5.5742,-5.5507,-5.5344,-5.5344,-5.5303,-5.5303,-5.5303,-5.5303,-5.5221,-5.5072,-5.5072,-5.4964,-5.4813,-5.4813,-5.4771,-5.4729,-5.447,-5.437,-5.437,-5.4173,-5.4103,-5.4103,-5.4103,-5.4103,-5.4103,-5.4103,-5.4103,-5.4103,-5.4103,-5.4103,-5.4103,-5.406,-5.406,-5.406,-5.406,-5.406,-5.4017,-5.3568,-5.3377,-5.3261,-5.2833,-5.2713,-5.2713,-5.2713,-5.2503,-5.2215,-5.2033,-5.1787,-5.1494,-5.1261,-5.1214,-5.1167,-5.1167,-5.1167,-5.112,-5.112,-5.0932,-5.0775,-5.0713,-5.0361,-5.0086,-5.0038,-4.9829,-4.9717,-4.9717,-4.9878,-5.0038,-5.0038,-5.0246,-5.0405,-5.0453,-5.0501,-5.0501,-5.0501,-5.0501,-5.0501,-5.0453,-5.0453,-5.0453,-5.039,-5.039,-5.0405,-5.0453,-5.06,-5.0713,-5.076,-5.0979,-5.0979,-5.0775,-5.0979,-5.1135,-5.1135,-5.1135,-5.1494,-5.2106,-5.2243,-5.2617,-5.314,-5.3294,-5.292,-5.2261,-5.1693,-5.1483,-5.1483,-5.0589,-5.0589,-5.0628,-5.0743,-5.1639,-5.26,-5.324,-5.4394,-5.5366,-5.5878,-5.6046,-5.6046,-5.5966,-5.587,-5.579,-5.579,-5.579,-5.579,-5.579,-5.579,-5.575,-5.5645,-5.5564,-5.5458,-5.5376,-5.5196,-5.5155,-5.5155,-5.4781,-5.4613,-5.4613,-5.4528,-5.4502,-5.4502,-5.4502,-5.4502,-5.4502,-5.4343,-5.4285,-5.4242,-5.413,-5.4103,-5.4103,-5.4103,-5.4103,-5.4103,-5.4103,-5.4103,-5.406,-5.3714,-5.3524,-5.3334,-5.3011,-5.2803,-5.2713,-5.2713,-5.2503,-5.2306,-5.2185,-5.2017,-5.1741,-5.1494,-5.1401,-5.1401,-5.1214,-5.1214,-5.1214,-5.1214,-5.112,-5.0964,-5.0807,-5.0632,-5.0456,-5.0342,-5.0246,-5.0135,-5.0135,-5.0246,-5.0342,-5.0342,-5.0519,-5.0647,-5.0647,-5.0805,-5.0899,-5.0899,-5.0899,-5.0852,-5.0695,-5.0647,-5.0614,-5.0501,-5.0501,-5.0534,-5.0647,-5.0775,-5.0855,-5.1011,-5.112,-5.112,-5.1011,-5.1167,-5.1214,-5.1214,-5.1214,-5.1379,-5.1678,-5.2052,-5.2157,-5.2127,-5.2501,-5.2232,-5.1618,-5.1334,-5.1214,-5.1214]},{"header":{"parameterUnit":"m.s-1","parameterCategory":1,"la1":30.6,"la2":28.766,"lo1":-90.7593,"lo2":-88.6598,"dy":0.0162,"dx":0.0183,"nx":116,"ny":114,"refTime":"2023-06-15T12:00:00:Z","depth":0,"parameterNumber":3,"parameterNumberName":"V-component_of_WINDS"},"data":[0.0,0.0,0.0,0.0,0.0,0.0,0.0,0.0,0.0,0.0,0.0,0.0,0.0,0.0,0.0,0.0,0.0,0.0,0.0,0.0,0.0,0.0,0.0,0.0,0.0,0.0,0.0,0.0,0.0,0.0,0.0,0.0,0.0,0.0,0.0,0.0,0.0,0.0,0.0,0.0,0.0,0.0,0.0,0.0,0.0,0.0,0.0,0.0,0.0,0.0,0.0,0.0,0.0,0.0,0.0,0.0,0.0,0.0,0.0,0.0,0.0,0.0,0.0,0.0,0.0,0.0,0.0,0.0,0.0,0.0,0.0,0.0,0.0,0.0,0.0,0.0,0.0,0.0,0.0,0.0,0.0,0.0,0.0,0.0,0.0,0.0,0.0,0.0,0.0,0.0,0.0,0.0,0.0,0.0,0.0,0.0,0.0,0.0,0.0,0.0,0.0,0.0,0.0,0.0,0.0,0.0,0.0,0.0,0.0,0.0,0.0,0.0,0.0,0.0,0.0,0.0,0.0,0.0,0.0,0.0,0.0,0.0,0.0,0.0,0.0,0.0,0.0,0.0,0.0,0.0,0.0,0.0,0.0,0.0,0.0,0.0,0.0,0.0,0.0,0.0,0.0,0.0,0.0,0.0,0.0,0.0,0.0,0.0,0.0,0.0,0.0,0.0,0.0,0.0,0.0,0.0,0.0,0.0,0.0,0.0,0.0,0.0,0.0,0.0,0.0,0.0,0.0,0.0,0.0,0.0,0.0,0.0,0.0,0.0,0.0,0.0,0.0,0.0,0.0,0.0,0.0,0.0,0.0,0.0,0.0,0.0,0.0,0.0,0.0,0.0,0.0,0.0,0.0,0.0,0.0,0.0,0.0,0.0,0.0,0.0,0.0,0.0,0.0,0.0,0.0,0.0,0.0,0.0,0.0,0.0,0.0,0.0,0.0,0.0,0.0,0.0,0.0,0.0,0.0,0.0,0.0,0.0,0.0,0.0,0.0,0.0,0.0,0.0,0.0,0.0,0.0,0.0,0.0,0.0,0.0,0.0,0.0,0.0,0.0,0.0,0.0,0.0,0.0,0.0,0.0,0.0,0.0,0.0,0.0,0.0,0.0,0.0,0.0,0.0,0.0,0.0,0.0,0.0,0.0,0.0,0.0,0.0,0.0,0.0,0.0,0.0,0.0,0.0,0.0,0.0,0.0,0.0,0.0,0.0,0.0,0.0,0.0,0.0,0.0,0.0,0.0,0.0,0.0,0.0,0.0,0.0,0.0,0.0,0.0,0.0,0.0,0.0,0.0,0.0,0.0,0.0,0.0,0.0,0.0,0.0,0.0,0.0,0.0,0.0,0.0,0.0,0.0,0.0,0.0,0.0,0.0,0.0,0.0,0.0,0.0,0.0,0.0,0.0,0.0,0.0,0.0,0.0,0.0,0.0,0.0,0.0,0.0,0.0,0.0,0.0,0.0,0.0,0.0,0.0,0.0,0.0,0.0,0.0,0.0,0.0,0.0,0.0,0.0,0.0,0.0,0.0,0.0,0.0,0.0,0.0,0.0,0.0,0.0,0.0,0.0,0.0,0.0,0.0,0.0,0.0,0.0,0.0,0.0,0.0,0.0,0.0,0.0,0.0,0.0,0.0,0.0,0.0,0.0,0.0,0.0,0.0,0.0,0.0,0.0,0.0,0.0,0.0,0.0,0.0,0.0,0.0,0.0,0.0,0.0,0.0,0.0,0.0,0.0,0.0,0.0,0.0,0.0,0.0,0.0,0.0,0.0,0.0,0.0,0.0,0.0,0.0,0.0,0.0,0.0,0.0,0.0,0.0,0.0,0.0,0.0,0.0,0.0,0.0,0.0,0.0,0.0,0.0,0.0,0.0,0.0,0.0,0.0,0.0,0.0,0.0,0.0,0.0,0.0,0.0,0.0,0.0,0.0,0.0,0.0,0.0,0.0,0.0,0.0,0.0,0.0,0.0,0.0,0.0,0.0,0.0,0.0,0.0,0.0,0.0,0.0,0.0,0.0,0.0,0.0,0.0,0.0,0.0,0.0,0.0,0.0,0.0,0.0,0.0,0.0,0.0,0.0,0.0,0.0,0.0,0.0,0.0,0.0,0.0,0.0,0.0,0.0,0.0,0.0,0.0,0.0,0.0,0.0,0.0,0.0,0.0,0.0,0.0,0.0,0.0,0.0,0.0,0.0,0.0,0.0,0.0,0.0,0.0,0.0,0.0,0.0,0.0,0.0,0.0,0.0,0.0,0.0,0.0,0.0,0.0,0.0,0.0,0.0,0.0,0.0,0.0,0.0,0.0,0.0,0.0,0.0,0.0,0.0,0.0,0.0,0.0,0.0,0.0,0.0,0.0,0.0,0.0,0.0,0.0,0.0,0.0,0.0,0.0,0.0,0.0,0.0,0.0,0.0,0.0,0.0,0.0,0.0,0.0,0.0,0.0,0.0,0.0,0.0,0.0,0.0,0.0,0.0,0.0,0.0,0.0,0.0,0.0,0.0,0.0,0.0,0.0,0.0,0.0,0.0,0.0,0.0,0.0,0.0,0.0,0.0,0.0,0.0,0.0,0.0,0.0,0.0,0.0,0.0,0.0,0.0,0.0,0.0,0.0,0.0,0.0,0.0,0.0,0.0,0.0,0.0,0.0,0.0,0.0,0.0,0.0,0.0,0.0,0.0,0.0,0.0,0.0,0.0,0.0,0.0,0.0,0.0,0.0,0.0,0.0,0.0,0.0,0.0,0.0,0.0,0.0,0.0,0.0,0.0,0.0,0.0,0.0,0.0,0.0,0.0,0.0,0.0,0.0,0.0,0.0,0.0,0.0,0.0,0.0,0.0,0.0,0.0,0.0,0.0,0.0,0.0,0.0,0.0,0.0,0.0,0.0,0.0,0.0,0.0,0.0,0.0,0.0,0.0,0.0,0.0,0.0,0.0,0.0,0.0,0.0,0.0,0.0,0.0,0.0,0.0,0.0,0.0,0.0,0.0,0.0,0.0,0.0,0.0,0.0,0.0,0.0,0.0,0.0,0.0,0.0,0.0,0.0,0.0,0.0,0.0,0.0,0.0,0.0,0.0,0.0,0.0,0.0,0.0,0.0,0.0,0.0,0.0,0.0,0.0,0.0,0.0,0.0,0.0,0.0,0.0,0.0,0.0,0.0,0.0,0.0,0.0,0.0,0.0,0.0,0.0,0.0,0.0,0.0,0.0,0.0,0.0,0.0,0.0,0.0,0.0,0.0,0.0,0.0,0.0,0.0,0.0,0.0,0.0,0.0,0.0,0.0,0.0,0.0,0.0,0.0,0.0,0.0,0.0,0.0,0.0,0.0,0.0,0.0,0.0,0.0,0.0,0.0,0.0,0.0,0.0,0.0,0.0,0.0,0.0,0.0,0.0,0.0,0.0,0.0,0.0,0.0,0.0,0.0,0.0,0.0,0.0,0.0,0.0,0.0,0.0,0.0,0.0,0.0,0.0,0.0,0.0,0.0,0.0,0.0,0.0,0.0,0.0,0.0,0.0,0.0,0.0,0.0,0.0,0.0,0.0,0.0,0.0,0.0,0.0,0.0,0.0,0.0,0.0,0.0,0.0,0.0,0.0,0.0,0.0,0.0,0.0,0.0,0.0,0.0,0.0,0.0,0.0,0.0,0.0,0.0,0.0,0.0,0.0,0.0,0.0,0.0,0.0,0.0,0.0,0.0,0.0,0.0,0.0,0.0,0.0,0.0,0.0,0.0,0.0,0.0,0.0,0.0,0.0,0.0,0.0,0.0,0.0,0.0,0.0,0.0,0.0,0.0,0.0,0.0,0.0,0.0,0.0,0.0,0.0,0.0,0.0,0.0,0.0,0.0,0.0,0.0,0.0,0.0,0.0,0.0,0.0,0.0,0.0,0.0,0.0,0.0,0.0,0.0,0.0,0.0,0.0,0.0,0.0,0.0,0.0,0.0,0.0,0.0,0.0,0.0,0.0,0.0,0.0,0.0,0.0,0.0,0.0,0.0,0.0,0.0,0.0,0.0,0.0,0.0,0.0,0.0,0.0,0.0,0.0,0.0,0.0,0.0,0.0,0.0,0.0,0.0,0.0,0.0,0.0,0.0,0.0,0.0,0.0,0.0,0.0,0.0,0.0,0.0,0.0,0.0,0.0,0.0,0.0,0.0,0.0,0.0,0.0,0.0,0.0,0.0,0.0,0.0,0.0,0.0,0.0,0.0,0.0,0.0,0.0,0.0,0.0,0.0,0.0,0.0,0.0,0.0,0.0,0.0,0.0,0.0,0.0,0.0,0.0,0.0,0.0,0.0,0.0,0.0,0.0,0.0,0.0,0.0,0.0,0.0,0.0,0.0,0.0,0.0,0.0,0.0,0.0,0.0,0.0,0.0,0.0,0.0,0.0,0.0,0.0,0.0,0.0,0.0,0.0,0.0,0.0,0.0,0.0,0.0,0.0,0.0,0.0,0.0,0.0,0.0,0.0,0.0,0.0,0.0,0.0,0.0,0.0,0.0,0.0,0.0,0.0,0.0,0.0,0.0,0.0,0.0,0.0,0.0,0.0,0.0,0.0,0.0,0.0,0.0,0.0,0.0,0.0,0.0,0.0,0.0,0.0,0.0,0.0,0.0,0.0,0.0,0.0,0.0,0.0,0.0,0.0,0.0,0.0,0.0,0.0,0.0,0.0,0.0,0.0,0.0,0.0,0.0,0.0,0.0,0.0,0.0,0.0,0.0,0.0,0.0,0.0,0.0,0.0,0.0,0.0,0.0,0.0,0.0,0.0,0.0,0.0,0.0,0.0,0.0,0.0,0.0,0.0,0.0,0.0,0.0,0.0,0.0,0.0,0.0,0.0,0.0,0.0,0.0,0.0,0.0,0.0,0.0,0.0,0.0,0.0,0.0,0.0,0.0,0.0,0.0,0.0,0.0,0.0,0.0,0.0,0.0,0.0,0.0,0.0,0.0,0.0,0.0,0.0,0.0,0.0,0.0,0.0,0.0,0.0,0.0,0.0,0.0,0.0,0.0,0.0,0.0,0.0,0.0,0.0,0.0,0.0,0.0,0.0,0.0,0.0,0.0,0.0,0.0,0.0,0.0,0.0,0.0,0.0,0.0,0.0,0.0,0.0,0.0,0.0,0.0,0.0,0.0,0.0,0.0,0.0,0.0,0.0,0.0,0.0,0.0,0.0,0.0,0.0,0.0,0.0,0.0,0.0,0.0,0.0,0.0,0.0,0.0,0.0,0.0,0.0,0.0,0.0,0.0,0.0,0.0,0.0,0.0,0.0,0.0,0.0,0.0,0.0,0.0,0.0,0.0,0.0,0.0,0.0,0.0,0.0,0.0,0.0,0.0,0.0,0.0,0.0,0.0,0.0,0.0,0.0,0.0,0.0,0.0,0.0,0.0,0.0,0.0,0.0,0.0,0.0,0.0,0.0,0.0,0.0,0.0,0.0,0.0,0.0,0.0,0.0,0.0,0.0,0.0,0.0,0.0,0.0,0.0,0.0,0.0,0.0,0.0,0.0,0.0,0.0,0.0,0.0,0.0,0.0,0.0,0.0,0.0,0.0,0.0,0.0,0.0,0.0,0.0,0.0,0.0,0.0,0.0,0.0,0.0,0.0,0.0,0.0,0.0,0.0,0.0,0.0,0.0,0.0,0.0,0.0,0.0,0.0,0.0,0.0,0.0,0.0,0.0,0.0,0.0,0.0,0.0,0.0,0.0,0.0,0.0,0.0,0.0,0.0,0.0,0.0,0.0,0.0,0.0,0.0,0.0,0.0,0.0,0.0,0.0,0.0,0.0,0.0,0.0,0.0,0.0,0.0,0.0,0.0,0.0,0.0,0.0,0.0,0.0,0.0,0.0,0.0,0.0,0.0,0.0,0.0,0.0,0.0,0.0,0.0,0.0,0.0,0.0,0.0,0.0,0.0,0.0,0.0,0.0,0.0,0.0,0.0,0.0,0.0,0.0,0.0,0.0,0.0,0.0,0.0,0.0,0.0,0.0,0.0,0.0,0.0,0.0,0.0,0.0,0.0,0.0,0.0,0.0,0.0,0.0,0.0,0.0,0.0,0.0,0.0,0.0,0.0,0.0,0.0,0.0,-2.8889,0.0,0.0,0.0,0.0,0.0,0.0,0.0,0.0,0.0,0.0,0.0,0.0,0.0,0.0,0.0,0.0,0.0,0.0,0.0,0.0,0.0,0.0,0.0,0.0,0.0,0.0,0.0,0.0,0.0,0.0,0.0,0.0,0.0,0.0,0.0,0.0,0.0,0.0,0.0,0.0,0.0,0.0,0.0,0.0,0.0,0.0,0.0,0.0,0.0,0.0,0.0,0.0,0.0,0.0,0.0,0.0,0.0,0.0,0.0,0.0,0.0,0.0,0.0,0.0,0.0,0.0,0.0,0.0,0.0,0.0,0.0,0.0,0.0,0.0,0.0,0.0,0.0,0.0,0.0,0.0,0.0,0.0,0.0,0.0,0.0,0.0,0.0,0.0,0.0,0.0,0.0,0.0,0.0,0.0,0.0,0.0,0.0,0.0,0.0,0.0,0.0,0.0,0.0,0.0,0.0,0.0,0.0,0.0,0.0,0.0,0.0,0.0,0.0,0.0,0.0,0.0,-2.9951,0.0,0.0,0.0,0.0,0.0,0.0,0.0,0.0,0.0,0.0,0.0,0.0,0.0,0.0,0.0,0.0,0.0,0.0,0.0,0.0,0.0,0.0,0.0,0.0,0.0,0.0,0.0,0.0,0.0,0.0,0.0,0.0,0.0,0.0,0.0,0.0,0.0,0.0,0.0,0.0,0.0,0.0,0.0,0.0,0.0,0.0,0.0,0.0,0.0,0.0,0.0,0.0,0.0,0.0,0.0,0.0,0.0,0.0,0.0,0.0,0.0,0.0,0.0,0.0,0.0,0.0,0.0,0.0,0.0,0.0,0.0,0.0,0.0,0.0,0.0,0.0,0.0,0.0,0.0,0.0,0.0,0.0,0.0,0.0,0.0,0.0,0.0,0.0,0.0,0.0,0.0,0.0,0.0,0.0,0.0,0.0,0.0,0.0,0.0,0.0,0.0,0.0,0.0,0.0,0.0,0.0,0.0,0.0,-3.4692,-3.5141,-3.5436,-3.6144,-3.6607,-3.6727,-3.4371,-3.2791,-3.1826,-3.183,0.0,0.0,0.0,0.0,0.0,0.0,0.0,0.0,0.0,0.0,0.0,0.0,0.0,0.0,0.0,0.0,0.0,0.0,0.0,0.0,0.0,0.0,0.0,0.0,0.0,0.0,0.0,0.0,0.0,0.0,0.0,0.0,0.0,0.0,0.0,0.0,0.0,0.0,0.0,-2.9092,-2.9503,-2.9098,0.0,0.0,0.0,0.0,0.0,0.0,0.0,0.0,0.0,0.0,0.0,0.0,0.0,0.0,0.0,0.0,0.0,0.0,0.0,0.0,0.0,0.0,0.0,0.0,0.0,0.0,0.0,0.0,0.0,0.0,0.0,0.0,0.0,0.0,0.0,0.0,0.0,0.0,0.0,0.0,0.0,0.0,0.0,0.0,-2.3758,-2.4178,0.0,0.0,0.0,0.0,0.0,0.0,0.0,0.0,0.0,0.0,0.0,0.0,0.0,-3.5666,-3.551,-3.6249,-3.6624,-3.6606,-3.738,-3.7799,-3.7869,-3.9001,-3.9655,-3.9799,-3.969,0.0,-3.5419,-3.5165,0.0,0.0,0.0,0.0,0.0,0.0,0.0,0.0,0.0,0.0,0.0,0.0,0.0,0.0,0.0,0.0,0.0,0.0,0.0,0.0,0.0,0.0,0.0,0.0,0.0,0.0,0.0,0.0,0.0,0.0,0.0,0.0,0.0,0.0,0.0,0.0,0.0,0.0,0.0,0.0,0.0,0.0,0.0,0.0,-2.8664,-2.7674,0.0,0.0,0.0,0.0,0.0,0.0,0.0,0.0,0.0,0.0,0.0,0.0,0.0,0.0,0.0,0.0,0.0,0.0,0.0,0.0,0.0,0.0,0.0,0.0,0.0,0.0,0.0,0.0,0.0,0.0,0.0,0.0,0.0,0.0,0.0,0.0,0.0,0.0,0.0,-2.3999,-2.5451,-2.6498,-2.8015,-2.9278,0.0,0.0,0.0,0.0,0.0,0.0,0.0,0.0,0.0,-3.5615,-3.7443,-3.8517,-3.872,-3.9131,-3.9567,-4.0076,-4.0111,-4.0289,-4.0507,-4.1035,-4.1418,-4.1667,-4.2048,-4.1638,-4.0576,-3.889,-3.8049,-3.774,0.0,0.0,0.0,0.0,-3.7704,-3.7704,0.0,0.0,0.0,0.0,0.0,0.0,0.0,0.0,0.0,0.0,0.0,0.0,0.0,0.0,0.0,0.0,0.0,0.0,0.0,0.0,0.0,0.0,0.0,0.0,0.0,0.0,0.0,0.0,0.0,0.0,0.0,0.0,0.0,0.0,0.0,0.0,0.0,0.0,0.0,0.0,0.0,0.0,0.0,0.0,0.0,0.0,0.0,0.0,0.0,0.0,0.0,0.0,0.0,0.0,0.0,0.0,0.0,0.0,0.0,0.0,0.0,0.0,0.0,0.0,0.0,0.0,0.0,0.0,0.0,0.0,0.0,0.0,0.0,0.0,0.0,0.0,0.0,-2.6136,-2.7711,-2.9165,-3.1021,-3.2387,0.0,0.0,0.0,0.0,0.0,0.0,-3.6523,-3.8117,-3.902,-3.8959,-4.0334,-4.1292,-4.17,-4.1887,-4.2382,-4.3157,-4.2777,-4.282,-4.329,-4.3399,-4.3635,-4.3967,-4.4359,-4.4952,-4.5343,-4.2319,-4.1018,-4.0867,-4.0389,-4.0226,-4.0301,-4.0375,-4.039,-4.039,0.0,0.0,0.0,0.0,0.0,0.0,0.0,0.0,0.0,0.0,0.0,0.0,0.0,0.0,0.0,0.0,0.0,0.0,0.0,0.0,0.0,0.0,0.0,0.0,0.0,0.0,0.0,0.0,0.0,0.0,0.0,0.0,0.0,0.0,0.0,0.0,0.0,0.0,0.0,0.0,0.0,0.0,0.0,0.0,0.0,0.0,0.0,0.0,0.0,0.0,0.0,0.0,0.0,0.0,0.0,0.0,0.0,0.0,0.0,0.0,0.0,0.0,0.0,0.0,0.0,0.0,0.0,0.0,0.0,0.0,0.0,0.0,0.0,0.0,0.0,0.0,0.0,0.0,0.0,-3.2348,-3.4449,0.0,0.0,0.0,0.0,-3.8882,-3.9494,-3.9863,-3.9872,-4.1133,-4.1949,-4.2077,-4.3221,-4.3904,-4.4112,-4.4398,-4.474,-4.5171,-4.5252,-4.5645,-4.6325,-4.6661,-4.7075,-4.7546,-4.7843,-4.8365,-4.8761,-4.5052,-4.3894,-4.4368,-4.3508,-4.3307,-4.344,-4.3174,-4.3095,-4.3095,0.0,0.0,0.0,0.0,0.0,0.0,0.0,0.0,0.0,0.0,0.0,0.0,0.0,0.0,0.0,0.0,0.0,0.0,0.0,0.0,0.0,0.0,0.0,0.0,0.0,0.0,0.0,0.0,0.0,0.0,0.0,0.0,0.0,0.0,0.0,0.0,0.0,0.0,0.0,0.0,0.0,0.0,0.0,0.0,0.0,0.0,0.0,0.0,0.0,0.0,0.0,0.0,0.0,0.0,0.0,0.0,0.0,0.0,0.0,0.0,0.0,0.0,0.0,0.0,0.0,0.0,0.0,0.0,0.0,0.0,0.0,0.0,0.0,0.0,0.0,0.0,0.0,0.0,0.0,-3.6005,-3.7746,0.0,-4.0535,-4.0987,-4.1455,-4.2045,-4.2409,-4.267,-4.2806,-4.388,-4.4647,-4.5026,-4.5634,-4.63,-4.7063,-4.6906,-4.7158,-4.7852,-4.7624,-4.7539,-4.7619,-4.7745,-4.8001,-4.8341,-4.8755,-4.9314,-4.9875,-4.869,-4.7904,-4.738,-4.663,-4.6373,-4.6429,-4.6207,-4.6139,-4.6097,0.0,0.0,0.0,0.0,0.0,0.0,0.0,0.0,0.0,0.0,0.0,0.0,0.0,0.0,0.0,0.0,0.0,0.0,0.0,0.0,0.0,0.0,0.0,0.0,0.0,0.0,0.0,0.0,0.0,0.0,0.0,0.0,0.0,0.0,0.0,0.0,0.0,0.0,0.0,0.0,0.0,0.0,-2.6816,0.0,0.0,0.0,0.0,0.0,0.0,0.0,0.0,0.0,0.0,0.0,0.0,0.0,0.0,0.0,0.0,0.0,0.0,0.0,0.0,0.0,0.0,0.0,0.0,0.0,0.0,0.0,0.0,0.0,0.0,0.0,0.0,0.0,0.0,0.0,-3.7283,-3.9796,-4.1326,-4.2739,-4.4249,-4.4635,-4.4925,-4.5277,-4.556,-4.5652,-4.5554,-4.6429,-4.7098,-4.746,-4.7793,-4.8344,-4.9151,-4.9063,-4.9324,-4.9989,-4.9568,-4.9353,-4.933,-4.9252,-4.9345,-4.9637,-5.0019,-5.0667,-5.146,-5.1726,-5.1603,-5.1061,-4.9754,-4.9362,-4.956,-4.9272,-4.9141,-4.9156,0.0,0.0,0.0,0.0,0.0,0.0,0.0,0.0,0.0,0.0,0.0,0.0,0.0,0.0,0.0,0.0,0.0,0.0,0.0,0.0,0.0,0.0,0.0,0.0,0.0,0.0,0.0,0.0,0.0,0.0,0.0,0.0,0.0,0.0,0.0,0.0,0.0,0.0,0.0,0.0,0.0,0.0,-2.7666,0.0,0.0,0.0,0.0,0.0,0.0,0.0,0.0,0.0,0.0,0.0,0.0,0.0,0.0,0.0,0.0,0.0,0.0,0.0,0.0,0.0,0.0,0.0,0.0,0.0,0.0,0.0,0.0,0.0,0.0,0.0,0.0,0.0,-3.6041,-3.8429,-4.1051,-4.36,-4.5099,-4.6473,-4.7842,-4.8129,-4.8348,-4.8576,-4.8943,-4.8841,-4.8132,-4.8777,-4.9183,-4.9283,-4.9717,-5.0095,-5.0393,-5.0854,-5.1178,-5.1372,-5.1074,-5.1198,-5.1618,-5.1354,-5.1354,-5.1634,-5.191,-5.2688,-5.3729,-5.4003,-5.4709,-5.5312,-5.2767,-5.2188,-5.2729,-5.2231,-5.2048,-5.2048,0.0,0.0,0.0,0.0,0.0,0.0,0.0,0.0,0.0,0.0,0.0,0.0,0.0,0.0,0.0,0.0,0.0,0.0,0.0,0.0,0.0,0.0,0.0,0.0,0.0,0.0,0.0,0.0,0.0,0.0,0.0,0.0,0.0,0.0,0.0,0.0,0.0,0.0,0.0,0.0,0.0,0.0,-2.8487,0.0,0.0,0.0,0.0,0.0,0.0,0.0,0.0,0.0,0.0,0.0,0.0,0.0,0.0,0.0,0.0,0.0,0.0,0.0,0.0,0.0,0.0,0.0,0.0,0.0,0.0,0.0,0.0,0.0,0.0,0.0,0.0,-3.8855,-3.902,-4.0858,-4.3087,-4.5529,-4.7483,-4.896,-4.9794,-5.0511,-5.0858,-5.067,-5.0291,-5.0123,-5.0307,-5.002,-5.0299,-5.1343,-5.1236,-5.1566,-5.2558,-5.2466,-5.2567,-5.2834,-5.239,-5.2183,-5.2124,-5.188,-5.1926,-5.2139,-5.2688,-5.3346,-5.4034,-5.4803,-5.5638,-5.6275,-5.4758,-5.4281,-5.439,-5.3897,-5.3617,-5.3476,0.0,0.0,0.0,0.0,0.0,0.0,0.0,0.0,0.0,0.0,0.0,0.0,0.0,0.0,0.0,0.0,0.0,0.0,0.0,0.0,0.0,0.0,0.0,0.0,0.0,0.0,0.0,0.0,0.0,0.0,0.0,0.0,0.0,0.0,0.0,0.0,0.0,0.0,0.0,0.0,0.0,0.0,-2.9651,-2.9353,-2.8703,-2.7975,-2.7975,-2.7724,-2.7368,-2.7368,0.0,0.0,0.0,0.0,0.0,0.0,0.0,0.0,0.0,0.0,0.0,0.0,0.0,0.0,0.0,0.0,0.0,0.0,0.0,0.0,0.0,0.0,0.0,0.0,-3.9707,-4.142,-4.2788,-4.3915,-4.5609,-4.8406,-4.9682,-5.0831,-5.2043,-5.2483,-5.2606,-5.2424,-5.1932,-5.1645,-5.168,-5.1546,-5.1773,-5.2471,-5.2764,-5.3198,-5.3807,-5.3873,-5.383,-5.3699,-5.3409,-5.3084,-5.2742,-5.2563,-5.2518,-5.2669,-5.2917,-5.3606,-5.4543,-5.5083,-5.6045,-5.7011,0.0,0.0,0.0,0.0,-5.5306,-5.5147,0.0,0.0,0.0,0.0,0.0,0.0,0.0,0.0,0.0,0.0,0.0,0.0,0.0,0.0,0.0,0.0,0.0,0.0,0.0,0.0,0.0,0.0,0.0,0.0,0.0,0.0,0.0,0.0,0.0,0.0,0.0,0.0,0.0,0.0,0.0,0.0,0.0,0.0,0.0,0.0,0.0,0.0,-3.0907,-3.0194,-2.9912,-2.9889,-2.9889,-2.999,-3.0106,-3.0106,0.0,0.0,0.0,0.0,0.0,0.0,0.0,0.0,0.0,0.0,0.0,0.0,0.0,0.0,0.0,0.0,0.0,0.0,0.0,0.0,0.0,0.0,0.0,0.0,-4.1803,-4.358,-4.6552,-4.7103,-4.8324,-5.1351,-5.1614,-5.2297,-5.4161,-5.3973,-5.3753,-5.3798,-5.3534,-5.3111,-5.2449,0.0,0.0,0.0,0.0,-5.4619,-5.4639,-5.4971,-5.4864,-5.4274,-5.4146,-5.3872,-5.3465,-5.3204,-5.3071,-5.3086,-5.2896,-5.3651,-5.507,-5.5194,-5.6155,-5.7527,-5.7042,-5.7136,-5.7433,-5.7035,-5.6906,-5.6873,0.0,0.0,0.0,0.0,0.0,0.0,0.0,0.0,0.0,0.0,0.0,0.0,0.0,0.0,0.0,0.0,0.0,0.0,0.0,0.0,0.0,0.0,0.0,0.0,0.0,0.0,0.0,0.0,0.0,0.0,0.0,0.0,0.0,0.0,0.0,0.0,0.0,0.0,0.0,0.0,0.0,0.0,-3.149,-3.0854,-3.0316,-2.9889,-2.9889,-2.999,-3.0106,-3.0106,-3.0106,-3.0106,-3.0106,0.0,0.0,0.0,0.0,0.0,0.0,0.0,0.0,0.0,0.0,0.0,0.0,0.0,0.0,0.0,0.0,0.0,0.0,0.0,0.0,-4.253,-4.4512,-4.6338,-4.7742,-4.8912,-5.0133,-5.1547,-5.2555,-5.35,-5.4373,-5.4486,-5.4447,-5.4367,-5.3766,-5.3332,-5.3179,-5.2899,-5.3285,-5.4389,-5.4331,-5.4848,-5.6014,-5.5547,-5.5303,-5.5122,-5.4428,0.0,-5.3958,-5.338,-5.3071,-5.3117,-5.3389,-5.3991,-5.4823,-5.5581,-5.6653,-5.7762,-5.748,-5.7418,-5.7495,-5.7401,-5.7353,-5.7431,0.0,0.0,0.0,0.0,0.0,0.0,0.0,0.0,0.0,0.0,0.0,0.0,0.0,0.0,0.0,0.0,0.0,0.0,0.0,0.0,0.0,0.0,0.0,0.0,0.0,0.0,0.0,0.0,0.0,0.0,0.0,0.0,0.0,0.0,0.0,0.0,0.0,0.0,0.0,0.0,0.0,0.0,-3.3384,-3.27,-3.2329,-3.2144,-3.2144,-3.2249,-3.2335,-3.1932,-3.1792,-3.1739,-3.137,-3.1247,-3.1177,0.0,0.0,0.0,0.0,0.0,0.0,0.0,0.0,0.0,0.0,0.0,0.0,0.0,0.0,-3.9885,0.0,0.0,-4.3465,-4.4746,-4.6276,-4.7737,-4.8981,-4.9767,-5.0832,-5.2561,-5.3193,-5.3911,-5.4904,-5.4899,-5.4759,-5.4512,-5.4078,-5.3733,-5.3567,-5.3567,-5.403,-5.5063,-5.5172,-5.5641,-5.6525,-5.6211,-5.5814,-5.5369,-5.4973,-5.4581,-5.4258,-5.3801,-5.3452,-5.3248,-5.3338,-5.3697,-5.4299,-5.5565,-5.6715,-5.7684,-5.7684,-5.7684,-5.7684,-5.7543,-5.748,-5.7589,0.0,0.0,0.0,0.0,0.0,0.0,0.0,0.0,0.0,0.0,0.0,0.0,0.0,0.0,0.0,0.0,0.0,0.0,0.0,0.0,0.0,0.0,0.0,0.0,0.0,0.0,0.0,0.0,0.0,0.0,0.0,0.0,0.0,0.0,0.0,0.0,0.0,0.0,0.0,0.0,0.0,0.0,-3.5434,-3.4829,-3.4532,-3.4425,-3.4425,-3.4539,-3.4582,-3.3774,-3.3494,-3.3371,-3.2634,-3.2406,-3.2265,-3.1616,-3.1423,0.0,0.0,0.0,0.0,0.0,0.0,0.0,0.0,0.0,-3.8614,-4.063,-4.118,-4.1796,-4.3474,-4.4301,-4.5257,-4.6796,-4.7692,-4.8629,-4.9884,-5.0134,-5.0981,-5.3166,-5.3223,-5.3637,-5.4928,-5.4737,-5.4404,-5.4126,-5.4026,-5.3888,-5.3578,-5.4076,-5.4616,-5.5237,-5.5797,-5.6241,-5.6656,-5.6691,-5.6369,-5.5653,-5.5491,-5.5122,-5.4565,-5.4258,-5.3872,-5.3524,-5.3372,-5.3492,-5.3913,-5.5535,-5.6638,-5.7387,-5.7824,-5.798,-5.7934,-5.7731,-5.7637,-5.7762,0.0,0.0,0.0,0.0,0.0,0.0,0.0,0.0,0.0,0.0,0.0,0.0,0.0,0.0,0.0,0.0,0.0,0.0,0.0,0.0,0.0,0.0,0.0,0.0,0.0,0.0,0.0,0.0,0.0,0.0,0.0,0.0,0.0,0.0,0.0,0.0,0.0,0.0,0.0,0.0,0.0,0.0,-3.6522,-3.6435,-3.561,-3.4485,-3.4485,-3.4577,-3.4582,-3.3774,-3.3512,-3.3371,-3.2634,-3.2406,-3.2371,-3.2283,0.0,-3.2248,-3.2177,-3.2669,-3.3477,-3.4446,-3.5808,-3.698,0.0,0.0,-4.0925,-4.1783,-4.2527,-4.3673,-4.5811,-4.6283,-4.6849,-4.8406,-4.9207,-4.9738,-4.9897,-5.0285,-5.0912,-5.192,-5.2081,-5.2488,-5.3377,-5.3032,-5.2765,-5.2735,-5.3036,-5.321,-5.3178,-5.3543,-5.4126,-5.4839,-5.5272,-5.5816,-5.6519,-5.6633,-5.6641,-5.6525,-5.5774,-5.5369,-5.5246,-5.447,-5.406,-5.4005,-5.4019,-5.4016,-5.4202,-5.5766,-5.6605,-5.6962,-5.7883,-5.8274,-5.8274,-5.8228,-5.8212,-5.8402,0.0,0.0,0.0,0.0,0.0,0.0,0.0,0.0,0.0,0.0,0.0,0.0,0.0,0.0,0.0,0.0,0.0,0.0,0.0,0.0,0.0,0.0,0.0,0.0,0.0,0.0,0.0,0.0,0.0,0.0,0.0,0.0,0.0,0.0,0.0,0.0,0.0,0.0,0.0,0.0,0.0,0.0,-3.6869,-3.6869,-3.6564,-3.61,-3.5908,-3.5628,0.0,0.0,-3.3898,-3.3371,-3.2634,-3.2406,-3.2406,-3.2406,-3.2406,0.0,-3.2915,-3.3617,0.0,0.0,-3.6353,-3.7452,-3.8449,-3.984,-4.1387,-4.3026,-4.3643,-4.4536,-4.668,-4.7424,-4.8025,0.0,-4.9722,-5.0175,-5.0093,-5.0244,-5.0463,-5.0662,-5.0668,-5.1269,-5.2747,-5.2653,-5.2493,-5.2493,-5.2498,-5.2643,-5.3072,-5.3079,-5.3598,-5.4754,-5.5294,-5.5877,-5.6494,-5.6863,-5.6949,-5.668,-5.6211,-5.5774,-5.5369,-5.4998,-5.4597,-5.406,-5.3793,-5.3915,-5.4366,-5.5604,-5.6383,-5.6898,-5.7898,-5.8321,-5.8321,-5.8321,-5.8321,-5.851,0.0,0.0,0.0,0.0,0.0,0.0,0.0,0.0,0.0,0.0,0.0,0.0,0.0,0.0,0.0,0.0,0.0,0.0,0.0,0.0,0.0,0.0,0.0,0.0,0.0,0.0,0.0,0.0,0.0,0.0,0.0,0.0,0.0,0.0,0.0,0.0,0.0,0.0,0.0,0.0,0.0,0.0,-3.7007,-3.7007,-3.6981,-3.6902,-3.6691,-3.6285,0.0,0.0,-3.4058,-3.3442,-3.2685,-3.244,-3.2458,-3.2686,-3.288,-3.3196,-3.3915,0.0,0.0,-3.6309,-3.7195,-3.8133,-3.9534,-4.0533,-4.1722,-4.3797,-4.4233,-4.4847,-4.6958,-4.7909,-4.8601,-4.9189,-4.9827,-5.0228,-5.0178,-5.0074,-4.9942,-4.9825,-4.9708,-5.0226,-5.1684,-5.1716,-5.1674,-5.1674,-5.1653,-5.1843,-5.2375,-5.2471,-5.3023,-5.4075,-5.5074,-5.5812,-5.6191,-5.6932,-5.7139,-5.6872,-5.6541,-5.6149,-5.5653,-5.5491,-5.4915,-5.4087,-5.3742,-5.385,-5.4278,-5.5144,-5.597,-5.6722,-5.766,-5.8101,-5.8321,-5.8321,-5.8321,-5.851,0.0,0.0,0.0,0.0,0.0,0.0,0.0,0.0,0.0,0.0,0.0,0.0,0.0,0.0,0.0,0.0,0.0,0.0,0.0,0.0,0.0,0.0,0.0,0.0,0.0,0.0,0.0,0.0,0.0,0.0,0.0,0.0,0.0,0.0,0.0,0.0,0.0,0.0,0.0,0.0,0.0,0.0,-3.7007,-3.7007,-3.6608,-3.605,-3.609,0.0,0.0,0.0,-3.381,-3.3651,-3.2837,-3.2557,0.0,-3.3424,-3.4128,0.0,0.0,0.0,-3.6126,-3.7672,-3.8737,-3.9632,-4.0405,-4.1301,-4.2369,-4.3807,-4.4009,-4.4594,-4.6782,-4.7701,-4.8388,-4.9162,-4.9658,-4.9959,-4.9993,-4.9742,-4.9518,-4.95,-4.9518,-4.9535,0.0,-4.9586,-4.9586,-4.9586,-5.0235,-5.0646,-5.068,-5.1715,-5.2317,-5.2367,-5.4343,-5.5435,-5.5417,-5.6664,-5.7289,-5.7289,-5.668,-5.6385,-5.6346,-5.5709,-5.4915,-5.4103,-5.4087,-5.399,-5.3868,-5.4527,-5.5396,-5.6283,-5.6979,-5.7674,-5.8321,-5.8321,-5.8321,-5.851,0.0,0.0,0.0,0.0,0.0,0.0,0.0,0.0,0.0,0.0,0.0,0.0,0.0,0.0,0.0,0.0,0.0,0.0,0.0,0.0,0.0,0.0,0.0,0.0,0.0,0.0,0.0,0.0,0.0,0.0,0.0,0.0,0.0,0.0,0.0,0.0,0.0,0.0,0.0,0.0,0.0,0.0,-3.6328,-3.6328,-3.5909,-3.5278,0.0,0.0,0.0,0.0,-3.3455,0.0,-3.2694,0.0,0.0,-3.3494,-3.4569,-3.5588,0.0,0.0,-3.7461,-3.797,-3.9153,-4.0232,-4.0475,-4.1147,-4.2009,-4.3042,-4.3524,-4.4275,-4.5949,-4.6795,-4.7434,-4.8003,-4.8632,-4.897,-4.8765,-4.9074,-4.926,-4.9185,-4.9094,0.0,0.0,0.0,0.0,-4.9518,-4.9528,-4.9983,-5.0937,-5.1156,-5.1682,-5.2656,-5.4334,-5.5204,-5.5204,-5.6479,-5.7176,-5.7289,-5.6834,-5.6541,-5.6385,-5.5693,-5.5246,-5.4957,-5.4697,-5.4518,-5.4523,-5.5191,-5.5934,-5.6738,-5.7395,-5.8006,-5.8473,-5.8473,-5.8397,-5.851,0.0,0.0,0.0,0.0,0.0,0.0,0.0,0.0,0.0,0.0,0.0,0.0,0.0,0.0,0.0,0.0,0.0,0.0,0.0,0.0,0.0,0.0,0.0,0.0,0.0,0.0,0.0,0.0,0.0,0.0,0.0,0.0,0.0,0.0,0.0,0.0,0.0,0.0,0.0,0.0,0.0,0.0,-3.5424,-3.5424,-3.5025,0.0,0.0,0.0,0.0,0.0,0.0,0.0,0.0,-3.3079,-3.3631,-3.4341,-3.5417,-3.6437,0.0,-3.7376,-3.8231,-3.8751,-3.9662,-4.0486,-4.0705,-4.1165,-4.1765,-4.2554,-4.3005,-4.3585,-4.4759,-4.5693,-4.6391,-4.6629,-4.7472,-4.8008,-4.7729,-4.8065,-4.8327,-4.8206,-4.8054,-4.8063,0.0,0.0,0.0,-4.9121,-4.8923,-4.9338,-5.0551,-5.0559,-5.106,-5.226,-5.3961,-5.4898,-5.4898,-5.6292,-5.7063,-5.7176,-5.6987,-5.6757,-5.6502,-5.6053,-5.5693,-5.5369,-5.5113,-5.4922,-5.4845,-5.5277,-5.5869,-5.6573,-5.7277,-5.7892,-5.8351,-5.856,-5.8518,-5.8555,0.0,0.0,0.0,0.0,0.0,0.0,0.0,0.0,0.0,0.0,0.0,0.0,0.0,0.0,0.0,0.0,0.0,0.0,0.0,0.0,0.0,0.0,0.0,0.0,0.0,0.0,0.0,0.0,0.0,0.0,0.0,0.0,0.0,0.0,0.0,0.0,0.0,0.0,0.0,0.0,0.0,0.0,-3.4265,-3.4231,0.0,0.0,0.0,0.0,0.0,0.0,0.0,0.0,0.0,0.0,-3.5261,-3.5899,-3.6621,-3.7337,-3.8093,-3.8242,-3.8544,-3.9944,-4.0324,-4.0507,-4.1075,-4.1318,-4.1613,-4.2369,-4.2451,-4.2619,0.0,0.0,-4.525,-4.51,-4.6206,-4.7056,-4.6884,-4.6823,-4.6786,0.0,0.0,0.0,0.0,0.0,0.0,-4.8433,0.0,-4.8835,-4.9573,-4.9908,-5.0433,-5.121,-5.3331,-5.4477,-5.4477,-5.6162,-5.7025,-5.6987,-5.7214,-5.7101,-5.6719,-5.6719,-5.6251,-5.545,-5.5377,-5.5164,-5.4854,-5.4822,-5.5223,-5.5927,-5.66,-5.7304,-5.7904,-5.8428,-5.8592,-5.8642,0.0,0.0,0.0,0.0,0.0,0.0,0.0,0.0,0.0,0.0,0.0,0.0,0.0,0.0,0.0,0.0,0.0,0.0,0.0,0.0,0.0,0.0,0.0,0.0,0.0,0.0,0.0,0.0,0.0,0.0,0.0,0.0,0.0,0.0,0.0,0.0,0.0,0.0,0.0,0.0,0.0,0.0,-3.2394,0.0,0.0,0.0,0.0,0.0,0.0,0.0,0.0,0.0,0.0,0.0,-3.5435,-3.5953,0.0,-3.8157,-3.8156,-3.8929,-3.9822,-4.0202,-4.0642,-4.1028,-4.1157,-4.1318,-4.1455,-4.1648,-4.2062,-4.2462,0.0,0.0,0.0,-4.3365,-4.4585,0.0,-4.5241,-4.6121,0.0,0.0,0.0,-4.6636,-4.739,-4.7176,0.0,0.0,-4.8212,-4.8777,-4.9908,-4.9952,-5.0472,-5.1612,-5.3354,-5.4291,-5.4291,-5.6254,-5.7139,-5.6987,-5.7364,-5.7402,-5.7139,-5.6834,-5.6564,-5.6297,-5.5299,-5.5117,-5.5491,-5.481,-5.523,-5.6344,-5.6537,-5.691,-5.7462,-5.8125,-5.8249,-5.8167,0.0,0.0,0.0,0.0,0.0,0.0,0.0,0.0,0.0,0.0,0.0,0.0,0.0,0.0,0.0,0.0,0.0,0.0,0.0,0.0,0.0,0.0,0.0,0.0,0.0,0.0,0.0,0.0,0.0,0.0,0.0,0.0,0.0,0.0,0.0,0.0,0.0,0.0,0.0,0.0,0.0,0.0,0.0,0.0,0.0,0.0,0.0,0.0,0.0,0.0,0.0,-3.3627,-3.4396,-3.5182,-3.5952,-3.6504,0.0,-3.8475,-3.8591,-3.9448,-4.0372,-4.0593,-4.0902,-4.1047,-4.0654,-4.0676,-4.0742,-4.0411,-4.0672,0.0,0.0,0.0,0.0,0.0,0.0,0.0,-4.3627,-4.457,-4.5314,0.0,-4.5312,0.0,-4.6795,-4.6616,-4.6858,0.0,-4.8282,-4.8911,-4.9967,-5.0087,-5.0726,-5.2093,-5.3318,-5.4317,-5.515,-5.6571,-5.7252,-5.7139,-5.7551,-5.7625,-5.7439,-5.7101,-5.6689,-5.6183,-5.5324,-5.4976,-5.4956,-5.4661,-5.502,-5.5742,-5.6293,-5.6654,-5.6979,-5.7576,-5.7703,-5.7668,0.0,0.0,0.0,0.0,0.0,0.0,0.0,0.0,0.0,0.0,0.0,0.0,0.0,0.0,0.0,0.0,0.0,0.0,0.0,0.0,0.0,0.0,0.0,0.0,0.0,0.0,0.0,0.0,0.0,0.0,0.0,0.0,0.0,0.0,0.0,0.0,0.0,0.0,0.0,0.0,0.0,0.0,0.0,0.0,0.0,0.0,0.0,0.0,0.0,0.0,-3.326,-3.4114,-3.4971,-3.5685,-3.6399,-3.7163,-3.7847,-3.8488,-3.9115,-3.9756,-4.0354,-4.0805,-4.0914,-4.0683,-3.9733,-3.9759,-3.9782,-3.9125,0.0,0.0,-3.9852,0.0,-4.0849,-4.1235,0.0,-4.2347,-4.2187,-4.2878,-4.3392,-4.3365,-4.3816,-4.4654,-4.6112,-4.5984,-4.6411,-4.7885,-4.8562,-4.9202,-4.9844,-5.0249,-5.1108,-5.2585,-5.3372,-5.4632,-5.6369,-5.6987,-5.7289,-5.7289,-5.7698,-5.7808,-5.7625,-5.7439,-5.6721,-5.5662,-5.5336,-5.4728,-5.3989,-5.432,-5.4502,-5.4691,-5.5807,-5.626,-5.6275,-5.6888,-5.7093,-5.7147,0.0,0.0,0.0,0.0,0.0,0.0,0.0,0.0,0.0,0.0,-1.1763,-1.2638,0.0,0.0,0.0,0.0,0.0,0.0,0.0,0.0,0.0,0.0,0.0,0.0,0.0,0.0,0.0,0.0,0.0,0.0,0.0,0.0,0.0,0.0,0.0,0.0,0.0,0.0,0.0,0.0,0.0,0.0,0.0,0.0,0.0,0.0,0.0,0.0,0.0,0.0,-3.2344,-3.3462,-3.4912,-3.538,-3.5668,-3.6946,-3.7711,-3.8307,-3.8954,-3.9547,-3.9973,-4.0032,-3.9986,-3.9698,-3.8826,-3.8918,0.0,0.0,0.0,-3.9111,-3.9181,-3.919,0.0,-3.972,0.0,0.0,0.0,0.0,-4.3365,0.0,0.0,0.0,0.0,0.0,0.0,0.0,0.0,-4.9501,-4.9632,-5.0268,-5.1521,-5.3356,-5.4277,-5.5296,-5.6385,-5.6987,-5.7289,-5.7289,-5.7698,-5.7881,-5.7845,-5.7625,-5.7016,-5.602,-5.5053,-5.446,-5.4081,-5.34,-5.3395,-5.3877,-5.47,-5.4922,-5.4924,-5.6161,-5.6605,-5.6702,0.0,0.0,0.0,0.0,0.0,0.0,0.0,-1.0361,-1.0441,-1.0716,-1.1228,-1.1883,-1.2692,-1.3316,-1.3927,0.0,0.0,0.0,0.0,0.0,0.0,0.0,0.0,0.0,0.0,0.0,0.0,0.0,0.0,0.0,0.0,0.0,0.0,0.0,0.0,0.0,0.0,0.0,0.0,0.0,0.0,0.0,0.0,0.0,0.0,0.0,0.0,0.0,0.0,0.0,-3.154,-3.2391,-3.4514,-3.542,-3.5865,-3.6848,-3.7594,-3.812,-3.8251,-3.8737,-3.9192,-3.9044,-3.9009,-3.8814,-3.8007,0.0,0.0,0.0,0.0,-3.7993,-3.8307,0.0,0.0,0.0,0.0,0.0,0.0,0.0,0.0,0.0,0.0,0.0,0.0,0.0,0.0,0.0,0.0,-4.9702,-4.9613,-5.1165,-5.2481,-5.3389,-5.4832,-5.5804,-5.6228,-5.6834,-5.7139,-5.7139,-5.7551,-5.7735,-5.7735,-5.7551,-5.6798,-5.5579,-5.4845,-5.4043,-5.3234,-5.305,-5.3114,-5.3394,-5.3922,-5.4059,-5.411,-5.5061,-5.5409,-5.5555,0.0,0.0,0.0,0.0,0.0,0.0,0.0,-1.0135,-1.0311,-1.0714,-1.0965,-1.1396,-1.221,-1.2837,-1.3407,0.0,0.0,0.0,0.0,0.0,0.0,0.0,0.0,0.0,0.0,0.0,0.0,0.0,0.0,0.0,0.0,0.0,0.0,0.0,0.0,0.0,0.0,0.0,0.0,0.0,0.0,0.0,0.0,0.0,0.0,0.0,0.0,0.0,0.0,0.0,-3.0716,-3.1376,-3.3758,-3.5081,-3.5876,-3.6515,-3.7189,-3.7676,-3.753,-3.7883,-3.8241,-3.8048,-3.8077,-3.7928,-3.719,-3.7176,0.0,0.0,0.0,0.0,0.0,0.0,0.0,0.0,0.0,0.0,0.0,0.0,0.0,0.0,0.0,0.0,0.0,0.0,0.0,0.0,0.0,-4.9998,-5.002,-5.2097,-5.3281,-5.3281,-5.5056,-5.6046,-5.6086,-5.6658,-5.6949,-5.6987,-5.7364,-5.7551,-5.7551,-5.7197,-5.6335,-5.5024,-5.4529,-5.3586,-5.2423,-5.2788,-5.291,-5.2902,-5.3286,-5.341,-5.3431,-5.3983,-5.426,-5.4567,0.0,0.0,0.0,0.0,0.0,0.0,0.0,-1.0101,-1.0373,-1.035,-1.1154,-1.1806,-1.2009,-1.2466,-1.2994,0.0,0.0,0.0,0.0,0.0,0.0,0.0,0.0,0.0,0.0,0.0,0.0,0.0,0.0,0.0,0.0,0.0,0.0,0.0,0.0,0.0,0.0,0.0,0.0,0.0,0.0,0.0,0.0,0.0,0.0,0.0,0.0,0.0,0.0,0.0,0.0,-3.0756,-3.2467,-3.3755,-3.4804,-3.5589,0.0,0.0,-3.7305,-3.7372,-3.7222,-3.7143,-3.7172,-3.7018,-3.6293,0.0,0.0,0.0,-3.6623,-3.6699,0.0,0.0,0.0,0.0,0.0,0.0,0.0,0.0,0.0,0.0,0.0,0.0,0.0,0.0,0.0,0.0,0.0,-5.064,-5.1271,-5.2594,-5.3281,-5.3281,-5.4953,-5.5903,-5.6086,-5.6541,-5.6834,-5.6987,-5.7214,-5.7327,-5.7293,-5.6603,-5.5756,-5.4809,-5.4089,-5.3266,-5.239,-5.2456,-5.2382,-5.2231,-5.2683,-5.2758,-5.2682,-5.3182,-5.3839,-5.4422,0.0,0.0,0.0,0.0,0.0,0.0,-0.9527,-0.9875,-1.0267,-1.0572,-1.1235,-1.1809,-1.221,-1.2521,-1.288,-1.3314,0.0,0.0,0.0,0.0,0.0,0.0,0.0,0.0,0.0,0.0,0.0,-1.8615,-1.8931,0.0,0.0,0.0,0.0,0.0,0.0,0.0,0.0,0.0,0.0,0.0,0.0,0.0,0.0,0.0,0.0,0.0,0.0,0.0,0.0,0.0,0.0,0.0,-3.0598,-3.193,0.0,0.0,-3.5045,-3.5534,-3.5651,-3.599,-3.6298,-3.6135,-3.6209,-3.6161,-3.5497,0.0,0.0,-3.5163,-3.5538,-3.5885,-3.5728,0.0,0.0,0.0,0.0,0.0,0.0,0.0,0.0,0.0,0.0,0.0,0.0,0.0,0.0,0.0,-4.9749,-5.0712,-5.1848,-5.2809,-5.3475,-5.3952,-5.5141,-5.5823,-5.5943,-5.6205,-5.6424,-5.6641,-5.6834,-5.6754,-5.645,-5.615,-5.5345,-5.4123,-5.3715,-5.3092,-5.2409,-5.2409,-5.2283,-5.2099,-5.2163,-5.2093,-5.1966,-5.2458,-5.311,-5.3783,0.0,0.0,0.0,0.0,0.0,-0.9415,-0.9529,-0.9915,-1.0382,-1.0878,-1.1407,-1.1896,-1.2294,-1.2502,-1.2727,-1.3025,-1.3232,0.0,0.0,0.0,0.0,0.0,0.0,0.0,0.0,0.0,-1.7824,-1.8692,-1.9021,-1.9343,0.0,0.0,0.0,0.0,0.0,0.0,0.0,0.0,0.0,0.0,0.0,0.0,0.0,0.0,0.0,0.0,0.0,0.0,0.0,0.0,0.0,0.0,0.0,0.0,0.0,0.0,-3.3909,-3.4444,-3.421,-3.4726,-3.5245,-3.4931,-3.5104,-3.5208,0.0,0.0,0.0,-3.4143,-3.47,-3.5214,-3.5136,0.0,0.0,-3.7608,0.0,0.0,0.0,0.0,0.0,0.0,0.0,0.0,0.0,0.0,0.0,0.0,-4.9904,-5.0865,-5.2122,-5.2916,-5.3661,-5.4389,-5.5247,-5.5742,-5.5782,-5.5943,-5.6126,-5.6307,-5.6271,-5.61,-5.57,-5.5306,-5.4579,-5.3582,-5.3274,-5.2837,-5.239,-5.2354,-5.2247,-5.2066,-5.1831,-5.161,-5.1436,-5.1734,-5.2356,-5.3165,0.0,0.0,0.0,0.0,0.0,0.0,-0.9828,-1.0348,-1.0837,-1.1234,-1.1756,-1.212,-1.2192,-1.233,-1.2484,-1.2692,-1.3007,0.0,0.0,0.0,0.0,0.0,0.0,0.0,0.0,0.0,-1.7956,-1.8692,-1.9097,-1.945,-1.9708,-1.9993,-2.0323,0.0,0.0,0.0,0.0,0.0,0.0,0.0,0.0,0.0,0.0,0.0,0.0,0.0,0.0,0.0,0.0,0.0,0.0,0.0,0.0,0.0,0.0,0.0,-3.2706,-3.3334,-3.3296,-3.3748,-3.4063,-3.3467,-3.3809,-3.4194,0.0,0.0,0.0,-3.3789,-3.4391,-3.4903,-3.4903,-3.5285,0.0,0.0,0.0,0.0,0.0,0.0,0.0,0.0,0.0,0.0,0.0,0.0,0.0,0.0,-5.0091,0.0,-5.2155,-5.2916,-5.3661,-5.4389,-5.5053,-5.5507,-5.5782,-5.5782,-5.5903,-5.6086,-5.5566,-5.5298,-5.527,-5.3985,-5.3434,-5.3384,-5.2688,-5.2426,-5.2373,-5.2175,-5.2102,-5.2066,-5.1663,-5.1387,-5.1183,-5.0988,-5.1681,-5.2701,0.0,0.0,0.0,0.0,0.0,0.0,0.0,-1.057,-1.1164,-1.128,-1.1773,-1.2113,-1.212,-1.2294,-1.2437,-1.2544,-1.2838,0.0,0.0,0.0,0.0,0.0,0.0,0.0,0.0,0.0,-1.7984,-1.8779,-1.9134,-1.9413,-1.9647,-2.0412,-2.0911,-2.1122,-2.1278,0.0,0.0,0.0,0.0,0.0,0.0,0.0,0.0,0.0,0.0,0.0,0.0,0.0,0.0,0.0,0.0,0.0,0.0,0.0,0.0,0.0,0.0,0.0,-3.214,-3.2717,-3.3261,-3.3071,-3.3314,-3.3448,-3.2855,0.0,-3.2726,-3.2298,-3.3225,-3.4038,-3.3909,-3.482,0.0,0.0,0.0,0.0,0.0,0.0,0.0,0.0,0.0,0.0,0.0,0.0,0.0,0.0,-5.0032,-5.124,-5.1956,-5.2838,-5.3661,-5.4389,-5.5069,-5.5466,-5.5507,-5.5507,-5.5645,-5.5886,-5.5191,-5.4782,-5.454,-5.3626,-5.3026,-5.2688,-5.2473,-5.2302,-5.2175,-5.2139,-5.1868,-5.1445,-5.1333,-5.1086,-5.0765,-5.0705,-5.1243,-5.2013,0.0,0.0,0.0,0.0,0.0,0.0,0.0,-1.0901,-1.1371,-1.1583,-1.19,-1.2113,-1.212,-1.2294,-1.252,-1.2848,-1.3107,0.0,0.0,0.0,0.0,0.0,0.0,0.0,-1.6715,-1.7384,-1.8063,-1.8803,-1.9424,-1.9786,-1.9964,-2.0926,-2.1488,-2.1673,-2.1814,-2.1766,0.0,0.0,0.0,0.0,0.0,0.0,-2.0426,0.0,0.0,0.0,0.0,0.0,0.0,0.0,0.0,0.0,0.0,0.0,0.0,0.0,-2.9448,0.0,0.0,-3.1709,-3.232,-3.2059,-3.2376,0.0,0.0,0.0,-3.185,-3.1724,-3.2622,-3.3512,-3.3624,-3.4779,0.0,0.0,0.0,0.0,0.0,0.0,0.0,0.0,0.0,0.0,0.0,0.0,0.0,-4.8387,-4.9865,-5.1013,-5.1524,-5.2395,-5.311,-5.3563,-5.4778,-5.5409,-5.5409,-5.5409,-5.5337,-5.5255,-5.4603,-5.4026,-5.3519,-5.2984,-5.2554,-5.2283,-5.2283,-5.2211,0.0,-5.1868,-5.1536,-5.1183,-5.1032,-5.0727,-5.034,-5.034,-5.0636,-5.1215,0.0,0.0,0.0,0.0,0.0,0.0,0.0,-1.132,-1.1532,-1.2026,-1.2095,-1.212,-1.2192,-1.2353,-1.2733,-1.3438,0.0,0.0,0.0,0.0,0.0,0.0,0.0,0.0,-1.7291,-1.779,-1.8307,-1.8874,-1.9929,-2.0503,-2.0565,-2.1449,-2.202,-2.2325,-2.2344,-2.2071,-2.1504,-2.0717,-2.0388,-2.0388,-2.0321,-2.0304,0.0,0.0,0.0,0.0,0.0,0.0,0.0,0.0,0.0,0.0,0.0,0.0,0.0,0.0,0.0,0.0,0.0,0.0,0.0,0.0,0.0,0.0,0.0,0.0,0.0,-3.1863,-3.2629,-3.3333,-3.3866,0.0,0.0,0.0,0.0,0.0,0.0,0.0,0.0,0.0,0.0,0.0,0.0,0.0,-4.7969,-4.8163,-4.9659,-5.0666,-5.0874,-5.1716,-5.2203,-5.2242,-5.4195,-5.5264,-5.5264,-5.5312,-5.5005,-5.4325,-5.376,-5.3138,-5.2509,-5.2196,-5.2066,-5.2066,-5.2066,-5.2066,-5.203,-5.1462,-5.1183,-5.1108,-5.0689,-5.0262,-4.9852,-4.9852,-5.0005,-5.0336,0.0,0.0,0.0,0.0,0.0,0.0,0.0,0.0,0.0,0.0,-1.2095,-1.212,-1.2192,-1.2681,-1.3143,0.0,0.0,0.0,0.0,0.0,0.0,0.0,0.0,0.0,-1.7291,-1.8653,-1.9423,-1.9561,-2.0549,-2.1032,-2.1052,-2.2027,-2.253,-2.2606,-2.2773,-2.2221,-2.1188,-2.058,-2.0321,-2.0321,-2.0304,-2.0304,0.0,0.0,0.0,0.0,-2.2871,-2.3594,0.0,0.0,0.0,0.0,0.0,0.0,0.0,0.0,-2.738,-2.8423,-2.8801,0.0,-3.0196,-3.0264,-3.0533,-3.0784,0.0,0.0,0.0,0.0,0.0,0.0,0.0,0.0,0.0,0.0,0.0,0.0,0.0,0.0,0.0,0.0,0.0,0.0,0.0,0.0,-4.7931,-4.7969,-4.9598,-5.0628,-5.0666,-5.1639,-5.228,-5.2433,-5.3474,-5.3964,-5.3823,-5.4357,-5.4276,-5.3563,-5.2857,-5.2535,-5.2454,-5.1883,-5.1721,-5.1868,-5.1868,-5.1794,-5.161,-5.1333,-5.0902,-5.0409,-5.0152,-4.9812,-4.9437,-4.9437,-4.949,-4.9681,0.0,0.0,0.0,0.0,0.0,0.0,0.0,0.0,0.0,0.0,0.0,0.0,0.0,0.0,0.0,0.0,0.0,0.0,0.0,0.0,0.0,0.0,0.0,-1.7679,-1.812,-1.9174,-1.9872,-2.0218,-2.1121,-2.1747,-2.2082,-2.2697,-2.3195,-2.355,-2.3186,-2.2463,-2.1522,-2.0919,-2.0529,-2.0304,-2.0304,0.0,0.0,0.0,0.0,0.0,-2.3055,-2.3733,0.0,-2.4302,-2.4302,-2.4302,0.0,0.0,0.0,0.0,-2.6993,-2.7904,-2.8656,-2.9315,-2.9832,-2.9979,-3.0456,-3.0869,0.0,0.0,0.0,0.0,0.0,0.0,0.0,0.0,0.0,0.0,0.0,0.0,0.0,0.0,0.0,0.0,0.0,0.0,0.0,0.0,-4.8019,-4.8335,-4.9735,-5.0589,-5.0589,-5.1349,-5.181,-5.2015,-5.2737,-5.3236,-5.3594,-5.3984,-5.3805,-5.3073,-5.259,-5.2232,-5.2053,-5.1678,-5.1573,-5.1647,-5.1647,-5.1536,-5.135,-5.1048,-5.0579,-5.0058,-4.9836,-4.9437,-4.899,-4.899,-4.8867,-4.8856,0.0,0.0,0.0,0.0,0.0,0.0,0.0,0.0,0.0,0.0,0.0,0.0,0.0,0.0,0.0,0.0,0.0,0.0,0.0,0.0,0.0,0.0,-1.7583,-1.835,-1.9086,-1.9529,-2.0131,-2.0962,-2.1831,-2.2636,-2.3329,-2.3495,-2.3911,-2.4522,-2.3441,-2.2601,-2.2014,-2.1362,-2.0763,-2.027,-2.027,0.0,0.0,0.0,0.0,0.0,0.0,0.0,0.0,-2.4302,-2.4302,-2.4338,-2.4338,0.0,0.0,0.0,0.0,0.0,-2.8751,-2.9493,-2.9905,-2.9927,-3.0575,-3.1275,0.0,0.0,0.0,0.0,0.0,0.0,0.0,0.0,0.0,0.0,0.0,0.0,0.0,0.0,0.0,0.0,0.0,0.0,0.0,-4.7466,-4.8177,-4.8841,-4.9942,-5.0589,-5.0589,-5.0994,-5.1296,-5.1499,-5.2069,-5.2785,-5.3613,-5.3689,-5.3362,-5.2646,-5.2475,-5.2069,-5.1499,-5.1499,-5.1462,-5.1462,-5.1462,-5.135,-5.1124,-5.0727,-5.0301,-4.9836,-4.9597,-4.9113,-4.8537,-4.8537,-4.8286,-4.8113,0.0,0.0,0.0,0.0,0.0,0.0,0.0,0.0,0.0,0.0,0.0,0.0,0.0,0.0,0.0,0.0,0.0,0.0,0.0,0.0,0.0,-1.7376,-1.7787,-1.835,-1.9086,-1.9915,-2.0939,-2.2133,-2.3014,-2.3755,-2.4375,-2.4616,-2.462,-2.4372,-2.3199,-2.2365,-2.1816,-2.1246,-2.067,-2.0133,-2.0133,0.0,0.0,0.0,0.0,0.0,0.0,0.0,0.0,-2.4302,-2.438,-2.4477,-2.4477,0.0,0.0,0.0,0.0,0.0,-2.8069,-2.9259,-3.0352,-3.0528,-3.0745,-3.1157,0.0,0.0,0.0,0.0,0.0,0.0,0.0,0.0,0.0,0.0,0.0,0.0,0.0,0.0,0.0,0.0,0.0,0.0,-4.6724,-4.7466,-4.8177,-4.8841,-4.9942,-5.0589,-5.0589,-5.0994,-5.1296,-5.1499,-5.1782,-5.2044,-5.2359,-5.277,-5.263,-5.1942,-5.1905,-5.1745,-5.1499,-5.1499,-5.1424,-5.1258,-5.1258,-5.1124,-5.095,-5.0705,-5.0207,-4.9597,-4.9225,-4.8774,-4.8343,-4.816,-4.8049,-4.8113,0.0,0.0,0.0,0.0,0.0,0.0,0.0,0.0,0.0,0.0,0.0,0.0,0.0,0.0,0.0,0.0,0.0,0.0,0.0,0.0,-1.7502,-1.7604,-1.8249,-1.8907,-1.957,-2.0461,-2.1575,-2.2904,-2.3283,-2.4046,-2.5131,-2.5033,-2.4763,-2.4272,-2.3443,-2.2802,-2.232,-2.2093,-2.1425,-2.0606,0.0,0.0,0.0,0.0,0.0,0.0,0.0,0.0,0.0,0.0,-2.4772,-2.5145,-2.5145,0.0,0.0,0.0,0.0,0.0,-2.8955,-2.9737,-3.0513,-3.1438,-3.175,-3.1927,0.0,0.0,0.0,0.0,0.0,0.0,0.0,0.0,0.0,0.0,0.0,0.0,0.0,0.0,0.0,0.0,0.0,-4.6234,-4.7293,-4.7703,-4.8335,-4.9363,-5.0071,-5.0512,-5.0589,-5.0896,-5.1199,-5.1499,-5.1573,-5.1721,-5.1941,-5.2253,-5.2326,-5.2122,-5.2013,-5.1868,-5.1647,-5.1536,-5.1387,-5.1183,-5.1183,-5.1032,-5.0743,-5.0628,-5.0129,-4.9396,-4.9103,-4.865,-4.8091,-4.7767,-4.7639,-4.7729,0.0,0.0,0.0,0.0,0.0,0.0,0.0,0.0,0.0,0.0,0.0,0.0,0.0,0.0,0.0,0.0,0.0,0.0,0.0,0.0,-1.7625,-1.774,-1.8755,-1.9528,-1.9984,-2.0977,-2.2156,-2.3494,-2.3674,-2.4462,-2.5793,-2.5371,-2.4911,-2.4416,-2.3881,-2.3314,-2.2776,-2.2776,-2.2159,-2.1228,0.0,0.0,0.0,0.0,0.0,0.0,0.0,0.0,0.0,0.0,0.0,0.0,0.0,0.0,0.0,-2.7784,-2.8183,-2.8668,-2.9943,-3.0513,-3.1052,-3.239,0.0,-3.285,-3.3035,0.0,0.0,0.0,0.0,0.0,0.0,0.0,0.0,0.0,0.0,0.0,0.0,0.0,0.0,0.0,0.0,-4.6534,-4.7782,-4.8035,-4.8636,-4.9837,-5.0129,-5.0379,-5.0496,-5.0705,-5.0972,-5.1366,-5.1387,-5.1438,-5.1479,-5.1858,-5.2122,-5.2318,-5.2175,-5.1977,-5.1778,-5.1573,-5.1387,-5.1183,-5.1183,-5.0956,-5.0589,-5.0589,-5.0089,-4.9275,-4.9078,-4.8567,-4.7837,-4.7424,-4.7309,-4.7369,0.0,0.0,0.0,0.0,0.0,0.0,0.0,0.0,0.0,0.0,0.0,0.0,0.0,0.0,0.0,0.0,0.0,0.0,0.0,0.0,-1.774,-1.7882,-1.9215,-1.9956,-1.9998,-2.1396,-2.2756,-2.4047,-2.4727,-2.5545,-2.6438,-2.5959,-2.5535,-2.5099,-2.4446,-2.3615,-2.2724,-2.2724,-2.2329,-2.1747,-2.1792,0.0,0.0,0.0,0.0,0.0,0.0,0.0,0.0,0.0,0.0,0.0,0.0,0.0,-2.7241,-2.8031,-2.8726,-2.9423,-3.032,-3.1421,-3.251,-3.3232,-3.3423,0.0,-3.4367,0.0,0.0,0.0,0.0,0.0,0.0,0.0,0.0,0.0,0.0,0.0,0.0,0.0,0.0,0.0,-4.6345,-4.704,-4.7814,-4.8446,-4.9126,-4.9829,-5.0129,-5.0301,-5.0301,-5.0512,-5.0705,-5.095,-5.1108,-5.1009,-5.0493,-5.1361,-5.1941,-5.2139,-5.2102,-5.1977,-5.1778,-5.1573,-5.1387,-5.1183,-5.1183,-5.0956,-5.0589,-5.0589,-5.0089,-4.9275,-4.9078,-4.8442,-4.7581,-4.7381,-4.7309,-4.7309,0.0,0.0,0.0,0.0,0.0,0.0,0.0,0.0,0.0,0.0,0.0,0.0,0.0,0.0,0.0,0.0,0.0,0.0,0.0,-1.7666,-1.7882,-1.7955,-1.9349,-2.0128,-2.0128,-2.1484,-2.2826,-2.4092,-2.5301,-2.6044,-2.6365,-2.598,-2.5812,-2.5771,-2.4696,-2.4081,-2.3864,-2.343,-2.2897,-2.2384,-2.2774,-2.2917,0.0,0.0,0.0,0.0,0.0,0.0,0.0,0.0,-2.7119,-2.7775,0.0,-2.8164,-2.8729,-2.9514,-2.9897,-3.0368,-3.159,-3.2499,-3.328,-3.3937,0.0,0.0,0.0,0.0,0.0,0.0,0.0,0.0,0.0,0.0,0.0,0.0,0.0,0.0,0.0,0.0,0.0,-4.6345,-4.6645,-4.7245,-4.8399,-4.8746,-4.9173,-4.9829,-4.9995,-5.0129,-5.0301,-5.0379,-5.0512,-5.0705,-5.0354,-5.0059,-4.9844,-4.992,-5.0038,-5.0236,-5.1368,-5.1794,-5.161,-5.1536,-5.1387,-5.1183,-5.1086,-5.0858,-5.0589,-5.0473,-4.9971,-4.9235,-4.8635,-4.8064,-4.7596,-4.7381,-4.7309,-4.7309,0.0,0.0,0.0,0.0,0.0,0.0,0.0,0.0,0.0,0.0,0.0,0.0,0.0,0.0,0.0,0.0,0.0,0.0,-1.7611,-1.7828,-1.7975,-1.8088,-1.926,-2.0019,-2.025,-2.1347,-2.263,-2.4092,-2.5595,-2.634,-2.6365,-2.6223,-2.6173,-2.6164,-2.5289,-2.4771,-2.4575,-2.4089,-2.3522,-2.3005,-2.3402,-2.3362,0.0,0.0,0.0,0.0,0.0,0.0,0.0,0.0,0.0,0.0,0.0,0.0,0.0,0.0,-3.0804,-3.1285,-3.2705,-3.3476,-3.4133,0.0,0.0,0.0,0.0,0.0,0.0,0.0,0.0,0.0,0.0,0.0,0.0,0.0,0.0,0.0,0.0,0.0,0.0,-4.674,-4.7182,-4.783,-4.8794,-4.9039,-4.9332,-4.9765,-4.9757,-4.9812,-5.005,-5.0089,-5.0112,-5.0176,-4.9681,-4.9223,-4.8829,-4.8758,-4.8679,-4.8578,-5.003,-5.0892,-5.1157,-5.1252,-5.1237,-5.1086,-5.0896,-5.0705,-5.0496,-5.034,-4.9892,-4.9235,-4.8412,-4.7922,-4.7709,-4.7467,-4.7337,-4.7309,0.0,0.0,0.0,0.0,0.0,0.0,0.0,0.0,0.0,0.0,0.0,0.0,0.0,0.0,0.0,0.0,0.0,0.0,-1.7882,-1.7962,-1.8088,-1.8285,-1.8938,-1.9656,-2.0386,-2.0998,-2.2222,-2.4092,-2.558,-2.6365,-2.651,-2.6843,-2.6729,-2.6223,-2.6347,-2.5741,-2.4597,-2.4536,-2.4127,-2.3524,-2.3524,-2.3553,-2.3631,0.0,0.0,0.0,0.0,0.0,0.0,0.0,-2.8643,0.0,0.0,0.0,0.0,0.0,-3.1227,-3.212,-3.3528,-3.43,0.0,0.0,0.0,0.0,0.0,0.0,0.0,0.0,0.0,0.0,0.0,0.0,0.0,0.0,0.0,0.0,0.0,0.0,-4.6803,-4.6803,-4.8035,-4.8889,-4.8904,-4.9324,-4.9597,-4.9597,-4.9396,-4.9396,-4.9597,-4.9597,-4.9466,-4.9174,-4.9197,-4.8588,-4.7385,-4.8109,-4.8093,-4.7405,-4.8125,-4.9146,-5.0391,-5.0747,-5.0896,-5.0874,-5.0666,-5.0496,-5.0301,-5.0301,-4.9892,-4.9235,-4.8578,-4.8175,-4.7964,-4.7709,-4.7467,-4.7309,0.0,0.0,0.0,0.0,0.0,0.0,0.0,0.0,0.0,0.0,0.0,0.0,0.0,0.0,0.0,0.0,0.0,0.0,-1.7902,-1.8095,-1.8279,-1.8431,-1.9128,-1.985,-2.0592,-2.2079,-2.3297,-2.4244,-2.5283,-2.6055,-2.651,-2.6843,-2.6979,-2.6897,-2.6554,-2.6213,-2.5836,-2.5337,-2.4697,-2.3998,-2.3998,-2.4081,-2.4268,0.0,0.0,0.0,0.0,0.0,0.0,0.0,0.0,0.0,0.0,0.0,0.0,-3.1392,-3.2142,-3.2991,-3.4327,0.0,0.0,0.0,0.0,0.0,0.0,0.0,0.0,0.0,0.0,0.0,0.0,0.0,0.0,0.0,0.0,0.0,0.0,-4.6376,-4.6992,-4.7514,-4.8351,-4.9078,-4.9568,-4.9607,-4.9597,-4.9597,-4.9396,-4.9113,-4.87,-4.8669,-4.8435,-4.7863,-4.7345,-4.6912,-4.6579,-4.6328,-4.615,-4.6076,-4.6771,-4.802,-4.9785,-4.986,-5.0207,-5.0666,-5.0457,-5.034,-5.0262,-4.9812,-4.9412,-4.9021,-4.851,-4.8175,-4.7964,-4.7709,-4.7467,-4.7309,0.0,0.0,0.0,0.0,0.0,0.0,0.0,0.0,0.0,0.0,0.0,0.0,0.0,0.0,0.0,0.0,0.0,0.0,0.0,-1.8214,-1.8378,-1.8576,-1.9021,-1.9697,-2.0684,-2.21,-2.323,-2.4059,-2.5085,-2.5856,-2.6307,-2.6831,-2.7144,-2.7269,-2.6935,-2.6649,-2.6367,-2.5854,-2.5197,-2.4514,-2.4514,-2.4623,-2.4786,0.0,0.0,0.0,0.0,0.0,0.0,0.0,0.0,0.0,0.0,0.0,0.0,-3.2141,-3.2886,-3.3709,-3.4989,0.0,0.0,0.0,0.0,0.0,0.0,0.0,0.0,0.0,0.0,0.0,0.0,0.0,0.0,0.0,0.0,-4.5866,-4.6061,-4.6675,-4.7331,-4.811,-4.8772,-4.9379,-4.9844,-4.9637,-4.9367,-4.9101,-4.8789,-4.8373,-4.7784,-4.7753,-4.7481,-4.6873,-4.6421,-4.6062,-4.5812,-4.5407,-4.5241,-4.5389,-4.5796,-4.6752,-4.8203,-4.8834,-4.9381,-4.9826,-4.9844,-4.9892,-4.9852,-4.9372,-4.9103,-4.8955,-4.8593,-4.826,-4.7964,-4.7794,-4.7553,-4.7309,0.0,0.0,0.0,0.0,0.0,0.0,0.0,0.0,0.0,0.0,-1.6522,0.0,0.0,0.0,0.0,0.0,0.0,0.0,0.0,-1.8293,-1.845,-1.8692,-1.8787,-1.941,-2.069,-2.1442,-2.2406,-2.3625,-2.484,-2.5655,-2.6009,-2.6762,-2.7199,-2.7376,-2.7401,-2.7049,-2.6436,-2.6197,-2.5691,-2.5082,-2.5082,-2.5165,-2.5318,-2.5595,0.0,0.0,0.0,0.0,0.0,0.0,0.0,0.0,0.0,0.0,0.0,-3.2668,-3.3491,-3.4249,0.0,0.0,0.0,0.0,0.0,0.0,0.0,0.0,0.0,0.0,0.0,0.0,0.0,0.0,0.0,0.0,0.0,-4.5998,-4.641,-4.711,-4.7832,-4.849,-4.9149,-4.9637,-4.9836,-4.9477,-4.901,-4.8315,-4.7862,-4.7361,-4.6818,-4.6772,-4.654,-4.6086,-4.6055,-4.5775,-4.5145,-4.5145,-4.5108,-4.5108,-4.5108,-4.5419,-4.6079,-4.7723,-4.8545,-4.8702,-4.9115,-4.9275,-4.925,-4.9078,-4.8996,-4.8955,-4.8718,-4.837,-4.8007,-4.8007,-4.7709,-4.7309,0.0,0.0,0.0,0.0,0.0,0.0,0.0,0.0,0.0,0.0,0.0,0.0,0.0,0.0,0.0,0.0,0.0,0.0,0.0,-1.8503,-1.8659,-1.8779,-1.9435,-2.0168,-2.0926,-2.1613,-2.2323,-2.3082,-2.3873,-2.4869,-2.6009,-2.6266,-2.672,-2.7258,-2.735,-2.7199,-2.6876,-2.681,-2.6353,-2.5625,-2.5625,-2.5764,-2.6012,-2.6281,-2.6967,0.0,0.0,0.0,0.0,0.0,0.0,0.0,-3.0402,-3.1278,-3.2303,-3.2608,-3.356,0.0,0.0,0.0,0.0,0.0,0.0,0.0,0.0,0.0,0.0,0.0,0.0,0.0,0.0,0.0,0.0,0.0,-4.6029,-4.6332,-4.6285,-4.7356,-4.82,-4.8372,-4.8965,-4.9396,-4.9437,-4.9225,-4.8798,-4.8115,-4.7796,-4.708,-4.5943,-4.5881,-4.5611,-4.497,-4.4939,-4.4878,-4.4739,-4.4587,-4.4473,-4.4473,-4.4335,-4.4319,-4.4541,-4.6579,-4.8106,-4.9153,-4.9253,-4.921,-4.9078,-4.9037,-4.8857,-4.8661,-4.862,-4.837,-4.8007,-4.8007,-4.7709,-4.7309,0.0,0.0,0.0,0.0,0.0,0.0,0.0,0.0,0.0,0.0,0.0,0.0,0.0,0.0,0.0,0.0,0.0,0.0,0.0,0.0,-1.875,-1.8889,-1.9676,-2.0378,-2.0988,-2.1656,-2.2309,-2.2888,-2.3244,-2.4165,-2.558,-2.5937,-2.6512,-2.7207,-2.7196,-2.7133,-2.7003,-2.6925,-2.6654,-2.6283,-2.6283,-2.6437,-2.6705,-2.6907,-2.7415,-2.81,-2.8912,0.0,0.0,0.0,0.0,0.0,0.0,0.0,-3.2677,-3.3013,-3.4079,-3.5179,0.0,0.0,0.0,0.0,0.0,0.0,0.0,0.0,0.0,0.0,0.0,0.0,0.0,0.0,0.0,0.0,-4.6401,-4.6872,-4.7006,-4.7651,-4.8242,-4.8584,-4.8926,-4.9169,-4.9275,-4.8848,-4.8221,-4.7524,-4.6954,-4.6188,-4.5157,-4.511,-4.4941,-4.4625,-4.4511,-4.4473,-4.4473,-4.4243,-4.4334,-4.4615,-4.4537,-4.4807,-4.5445,-4.6355,-4.7358,-4.8362,-4.8769,-4.8924,-4.8816,-4.8816,-4.8718,-4.862,-4.862,-4.837,-4.8007,-4.8007,-4.7709,-4.7309,0.0,0.0,0.0,0.0,0.0,0.0,0.0,0.0,0.0,0.0,0.0,0.0,0.0,0.0,0.0,0.0,0.0,0.0,0.0,0.0,0.0,-1.933,-1.9933,-2.0538,-2.1148,-2.1714,-2.2309,-2.2888,-2.3026,-2.3749,-2.5097,-2.5584,-2.6318,-2.7155,-2.7055,-2.6977,-2.6951,-2.6846,-2.6806,-2.6806,-2.6806,-2.6963,-2.7222,-2.7469,-2.782,-2.8312,-2.936,-2.9841,-3.0092,-3.0894,0.0,0.0,0.0,0.0,-3.2841,-3.3431,-3.4504,-3.5475,0.0,0.0,0.0,0.0,0.0,0.0,0.0,0.0,0.0,0.0,0.0,0.0,0.0,0.0,0.0,0.0,-4.6874,-4.7434,-4.7809,-4.7939,-4.8233,-4.8836,-4.8955,-4.8934,-4.8982,-4.8364,-4.7592,-4.6756,-4.6028,-4.5295,-4.4656,-4.4572,-4.4549,-4.4549,-4.4358,-4.4243,-4.4243,-4.4172,-4.4388,-4.4934,-4.5016,-4.5612,-4.6702,-4.6463,-4.6737,-4.7491,-4.8249,-4.8578,-4.862,-4.862,-4.862,-4.862,-4.862,-4.837,-4.8007,-4.8007,-4.7709,-4.7309,0.0,0.0,0.0,0.0,0.0,0.0,0.0,0.0,0.0,0.0,0.0,0.0,0.0,0.0,0.0,0.0,0.0,0.0,-1.9243,0.0,0.0,-2.0721,-2.0828,-2.1191,-2.1844,-2.1946,-2.2309,-2.2888,-2.3476,0.0,0.0,0.0,0.0,-2.7029,-2.7003,-2.6951,-2.6832,-2.6806,-2.6806,-2.6806,-2.6806,-2.6963,-2.7266,-2.7999,-2.8509,-2.8986,-2.994,-3.0453,-3.0691,-3.0942,-3.1533,0.0,0.0,0.0,-3.3209,-3.3171,-3.4109,0.0,0.0,0.0,0.0,0.0,0.0,0.0,0.0,0.0,0.0,0.0,0.0,0.0,0.0,0.0,0.0,0.0,-4.7377,-4.7778,-4.7669,-4.8153,-4.8553,-4.8646,-4.8661,-4.843,-4.7885,-4.7706,-4.7121,-4.5857,-4.5673,-4.5295,-4.4656,-4.4435,-4.4358,-4.4358,-4.4127,-4.4026,-4.4026,-4.4376,-4.4574,-4.4665,-4.5049,-4.5342,-4.5537,-4.6252,-4.7133,-4.8164,-4.8297,-4.8453,-4.862,-4.862,-4.862,-4.862,-4.862,-4.837,-4.8007,-4.8007,-4.7709,-4.7309,0.0,0.0,0.0,0.0,0.0,0.0,0.0,0.0,0.0,0.0,0.0,0.0,0.0,0.0,0.0,-1.919,-1.9572,-1.9852,-2.0013,-2.0436,-2.0768,-2.0885,-2.1309,-2.1699,-2.1989,-2.2316,-2.2635,-2.2888,0.0,0.0,0.0,-2.5286,-2.5981,0.0,0.0,0.0,-2.7331,0.0,0.0,0.0,-2.7866,-2.8029,-2.8314,-2.8744,-2.9184,-2.967,-3.0615,-3.1082,-3.1343,-3.1878,-3.2327,-3.263,-3.263,0.0,0.0,0.0,-3.4229,0.0,0.0,0.0,0.0,0.0,0.0,0.0,0.0,0.0,0.0,0.0,0.0,0.0,0.0,0.0,0.0,0.0,0.0,-4.7926,-4.7858,-4.8186,-4.8453,-4.8453,-4.8537,-4.8358,-4.7665,-4.7265,-4.6634,-4.5664,-4.5156,-4.4741,-4.445,-4.4243,-4.4127,-4.4127,-4.3949,-4.3832,-4.3832,-4.4228,-4.4798,-4.5563,-4.6139,-4.6426,-4.6426,-4.6796,-4.7126,-4.7403,-4.8034,-4.837,-4.8453,-4.8537,-4.862,-4.862,-4.862,-4.837,-4.8007,-4.8007,-4.7951,-4.7863,0.0,0.0,0.0,0.0,0.0,0.0,0.0,0.0,0.0,0.0,0.0,0.0,0.0,0.0,0.0,0.0,-2.0289,-2.0617,-2.096,-2.1083,-2.1191,-2.1305,-2.1888,-2.2214,-2.2236,-2.2838,-2.3157,-2.3157,0.0,0.0,-2.5071,-2.5734,-2.6387,0.0,-2.7492,-2.7797,0.0,0.0,0.0,0.0,0.0,-2.8862,-2.9112,-2.94,-2.9804,-3.033,-3.1423,-3.1905,-3.2191,-3.3053,-3.3384,-3.3412,-3.3412,-3.3384,0.0,0.0,0.0,0.0,0.0,0.0,0.0,0.0,0.0,0.0,0.0,0.0,0.0,0.0,0.0,0.0,0.0,0.0,0.0,0.0,0.0,-4.8007,-4.8007,-4.8133,-4.8202,-4.8202,-4.837,-4.8116,-4.7272,-4.6735,-4.6091,-4.5248,-4.4595,-4.4205,-4.4205,-4.4026,-4.391,-4.391,-4.3714,-4.3596,-4.3596,-4.4233,-4.5244,-4.6576,-4.707,-4.7309,-4.7309,-4.7309,-4.7111,-4.6843,-4.7737,-4.816,-4.826,-4.837,-4.8453,-4.8453,-4.8453,-4.8202,-4.788,-4.788,-4.8046,-4.8282,0.0,0.0,0.0,0.0,0.0,0.0,0.0,0.0,0.0,0.0,0.0,0.0,-1.9503,-1.9778,-1.9998,-1.9998,-2.0767,-2.1535,-2.2252,-2.2308,-2.2438,-2.2672,-2.2737,0.0,-2.2844,-2.3514,-2.3847,0.0,0.0,0.0,-2.5749,-2.6442,-2.707,-2.7652,-2.7695,-2.8057,-2.8665,0.0,0.0,0.0,0.0,-2.8862,-2.9171,-2.9819,-3.0365,-3.0963,-3.2406,-3.3093,-3.3442,-3.4308,-3.4685,-3.48,-3.48,-3.4656,-3.4483,0.0,0.0,0.0,0.0,0.0,0.0,0.0,0.0,0.0,0.0,0.0,0.0,0.0,0.0,0.0,0.0,0.0,0.0,0.0,0.0,-4.8007,-4.8007,-4.8007,-4.8007,-4.8007,-4.8007,-4.7547,-4.6199,-4.6032,-4.5485,-4.4178,-4.4042,-4.4026,-4.4026,-4.3832,-4.3729,-4.3729,-4.3463,-4.3329,-4.3329,-4.4601,-4.5918,-4.7249,-4.7294,-4.7309,-4.7309,-4.7309,-4.7294,-4.7292,-4.7538,-4.7794,-4.8007,-4.8049,-4.8049,-4.8049,-4.8049,-4.788,-4.7624,-4.7624,-4.7931,-4.8282,0.0,0.0,0.0,0.0,0.0,0.0,0.0,0.0,0.0,0.0,0.0,0.0,0.0,-2.1338,-2.1724,-2.1724,-2.257,-2.3202,-2.3477,-2.3536,-2.3609,-2.3696,-2.3865,-2.3976,-2.3985,-2.4298,0.0,0.0,0.0,-2.5803,-2.5832,-2.6881,-2.7737,-2.8332,-2.8332,-2.8695,-2.9319,-2.9755,0.0,0.0,0.0,0.0,0.0,-3.1707,-3.2243,0.0,0.0,0.0,-3.3753,-3.4072,-3.4208,-3.4267,-3.4267,-3.4208,-3.4225,-3.4653,-3.5109,-3.5542,0.0,0.0,0.0,0.0,0.0,0.0,0.0,0.0,0.0,0.0,0.0,0.0,0.0,0.0,0.0,0.0,0.0,-4.7553,-4.7553,-4.7681,-4.7752,-4.7752,-4.788,-4.7475,-4.6138,-4.6017,-4.543,-4.4079,-4.3871,-4.3808,-4.3808,-4.3596,-4.3423,-4.3423,-4.3344,-4.3693,-4.4586,-4.5065,-4.5963,-4.7309,-4.7309,-4.7309,-4.7309,-4.7309,-4.7309,-4.7294,-4.7396,-4.7553,-4.7752,-4.7922,-4.8007,-4.8007,-4.8007,-4.7837,-4.7641,-4.8063,-4.8562,-4.9015,0.0,0.0,0.0,0.0,0.0,0.0,0.0,0.0,-2.1302,-2.1475,0.0,0.0,0.0,0.0,-2.2972,-2.3073,-2.3713,-2.4092,-2.4092,-2.414,-2.4176,-2.4187,-2.4376,-2.45,-2.4599,-2.4904,0.0,0.0,0.0,0.0,0.0,-2.7202,-2.8071,-2.8723,-2.8898,-2.9348,0.0,0.0,0.0,-3.0945,0.0,0.0,-3.2278,0.0,0.0,0.0,0.0,0.0,0.0,-3.444,-3.45,-3.4469,-3.4408,-3.4392,-3.4436,-3.4825,-3.5197,-3.5429,-3.5429,0.0,0.0,0.0,0.0,0.0,0.0,0.0,0.0,0.0,0.0,0.0,0.0,0.0,0.0,0.0,0.0,0.0,-4.7077,-4.7164,-4.7279,-4.7366,-4.7538,-4.7229,-4.6226,-4.5908,-4.5304,-4.4186,-4.3756,-4.3557,-4.3557,-4.3384,-4.329,-4.329,-4.329,-4.3917,-4.5289,-4.5289,-4.5963,-4.7309,-4.7309,-4.7309,-4.7309,-4.7309,-4.7309,-4.7309,-4.7309,-4.7396,-4.751,-4.7666,-4.7767,-4.7767,-4.7767,-4.7681,-4.7585,-4.8246,-4.8834,-4.9404,0.0,0.0,0.0,0.0,0.0,0.0,0.0,0.0,-2.1963,-2.2104,0.0,0.0,0.0,0.0,0.0,-2.3828,-2.4047,-2.4149,-2.4149,-2.4149,-2.4185,-2.4244,-2.4244,-2.4383,-2.4632,0.0,0.0,0.0,0.0,0.0,0.0,0.0,-2.81,-2.8767,-2.9377,-3.0001,-3.067,0.0,-3.1495,-3.1553,0.0,-3.2637,-3.2796,0.0,0.0,0.0,-3.4401,-3.4752,0.0,-3.5522,0.0,0.0,0.0,-3.5329,-3.5177,-3.4968,-3.4902,-3.4902,0.0,0.0,0.0,0.0,0.0,0.0,0.0,0.0,0.0,0.0,0.0,0.0,0.0,0.0,0.0,0.0,0.0,0.0,-4.6639,-4.6594,-4.6668,-4.6887,-4.6873,-4.6722,-4.6339,-4.5723,-4.505,-4.4362,-4.3678,-4.3319,-4.329,-4.329,-4.329,-4.329,-4.329,-4.3917,-4.5259,-4.5289,-4.5963,-4.7279,-4.7294,-4.7309,-4.7309,-4.7309,-4.7309,-4.7309,-4.7309,-4.7309,-4.7309,-4.7309,-4.7309,-4.7309,-4.7309,-4.7309,-4.7384,-4.8057,-4.876,-4.9404,0.0,0.0,0.0,0.0,0.0,-2.1105,-2.1681,-2.1932,-2.2238,0.0,0.0,0.0,-2.3215,-2.3701,-2.4325,-2.4969,-2.5187,-2.5253,-2.5253,-2.5361,-2.5414,-2.5427,-2.5533,-2.5627,-2.5666,0.0,0.0,-2.6303,-2.6625,-2.7012,-2.7476,-2.8115,0.0,0.0,-3.0031,-3.0669,-3.1264,-3.1438,0.0,-3.1582,-3.2745,-3.3583,0.0,0.0,0.0,0.0,0.0,-3.6211,-3.624,0.0,-3.6477,-3.6403,0.0,-3.5729,-3.5606,-3.5067,-3.4902,-3.4902,-3.4902,0.0,0.0,0.0,0.0,0.0,0.0,0.0,0.0,0.0,0.0,0.0,0.0,0.0,0.0,0.0,0.0,0.0,-4.6594,-4.6594,-4.6639,-4.6683,-4.6668,-4.6519,-4.6098,-4.5917,-4.5406,0.0,-4.4152,-4.3798,-4.3319,-4.329,-4.329,-4.329,-4.329,-4.3693,-4.4571,-4.5065,-4.5738,-4.6563,-4.707,-4.7309,-4.7309,-4.7309,-4.7309,-4.7309,-4.7309,-4.7309,-4.7309,-4.7309,-4.7309,-4.7309,-4.7309,-4.7309,-4.7444,-4.8581,-4.9149,-4.9434,0.0,0.0,0.0,0.0,0.0,-2.1613,-2.2023,-2.2585,-2.3095,0.0,0.0,0.0,-2.4286,-2.4981,-2.5628,-2.6084,-2.6241,-2.6341,-2.6454,-2.6511,-2.6596,-2.668,-2.6764,-2.682,-2.6876,-2.7111,-2.7235,-2.7289,-2.7482,-2.7766,-2.8144,-2.8768,-2.9261,0.0,0.0,0.0,0.0,0.0,0.0,0.0,-3.3765,0.0,0.0,-3.5746,-3.6298,0.0,0.0,0.0,-3.6781,-3.6641,-3.6479,0.0,0.0,0.0,-3.5507,-3.5093,-3.4854,-3.4702,-3.4702,-3.4616,-3.467,0.0,0.0,0.0,-3.6664,-3.7375,-3.8188,0.0,0.0,0.0,0.0,0.0,0.0,0.0,0.0,0.0,-4.6211,-4.6328,-4.6328,-4.6403,-4.6447,-4.6285,-4.5868,-4.5686,-4.5176,-4.4244,-4.3982,-4.3693,-4.3319,-4.329,-4.329,-4.329,-4.329,-4.3604,-4.4302,-4.496,-4.5648,-4.6294,-4.6995,-4.7309,-4.7309,-4.7309,-4.7309,-4.7309,-4.7164,-4.7121,-4.7121,-4.7033,-4.7121,-4.7309,-4.7164,-4.7207,-4.7459,-4.882,-4.9224,-4.9267,0.0,0.0,-2.1005,-2.103,-2.1683,-2.2249,-2.2316,-2.3325,-2.415,0.0,-2.4842,-2.5412,-2.5928,-2.6576,-2.6993,-2.6993,-2.7099,-2.7262,-2.7468,-2.7482,-2.76,-2.7776,-2.7805,-2.7864,-2.798,-2.8096,-2.8226,-2.8383,-2.8553,-2.871,-2.8825,-2.9363,-2.9668,-2.9856,0.0,0.0,0.0,0.0,0.0,-3.3808,-3.4942,-3.5479,0.0,0.0,-3.6769,-3.6885,-3.6998,-3.7078,-3.7066,-3.6685,-3.6309,0.0,0.0,0.0,0.0,0.0,-3.4773,-3.4467,-3.4395,-3.438,-3.438,-3.438,-3.4801,0.0,-3.5983,-3.6649,-3.7475,-3.875,0.0,0.0,0.0,0.0,0.0,0.0,0.0,0.0,0.0,-4.5618,-4.5707,-4.5916,-4.5961,-4.5815,-4.549,-4.5143,-4.4677,-4.4009,-4.3518,-4.321,-4.321,-4.321,-4.321,-4.321,-4.321,-4.3534,-4.4116,-4.4773,-4.5445,-4.6132,-4.6789,-4.7148,-4.7222,-4.7222,-4.7222,-4.7222,-4.6975,-4.6887,-4.6844,-4.6624,-4.6815,-4.7207,-4.6975,-4.7019,-4.7372,-4.8731,-4.9043,-4.9039,0.0,0.0,-2.1752,-2.184,-2.249,-2.3135,-2.3635,-2.3947,-2.4435,-2.5412,-2.6077,-2.6481,-2.6603,-2.6742,-2.684,-2.684,-2.6963,-2.7113,-2.7333,-2.7452,-2.76,-2.7776,-2.7805,-2.7805,-2.7834,-2.798,-2.8111,-2.8226,-2.8383,-2.8785,-2.9421,-2.9537,-3.0146,-3.1132,0.0,0.0,0.0,0.0,0.0,-3.5043,-3.5305,0.0,-3.6939,-3.7106,-3.7789,-3.8676,-3.848,-3.8775,-3.9112,-3.8322,-3.7996,-3.7786,0.0,0.0,0.0,-3.5161,0.0,0.0,-3.4306,-3.4162,-3.4162,0.0,-3.4174,0.0,-3.4966,-3.5561,-3.6364,0.0,0.0,0.0,0.0,0.0,0.0,0.0,0.0,0.0,0.0,-4.3963,-4.408,-4.4124,-4.4284,-4.4472,-4.4541,-4.4467,-4.4242,-4.3788,-4.3179,-4.2809,-4.2809,-4.2809,-4.2809,-4.2809,-4.2809,-4.2868,-4.3002,-4.3693,-4.4329,-4.4953,-4.5603,-4.6195,-4.6727,-4.6727,-4.6727,-4.6727,-4.6683,-4.6683,-4.6639,-4.6403,-4.6447,-4.6727,-4.6683,-4.6683,-4.6889,-4.8175,-4.8617,-4.8763,0.0,-2.161,-2.2043,-2.2467,-2.3163,-2.3757,-2.4042,-2.4625,-2.5208,-2.5805,-2.6701,-2.7379,-2.7664,-2.7976,-2.8275,-2.8554,-2.8665,-2.8812,-2.9099,-2.9162,-2.932,-2.9631,-2.9321,-2.9153,-2.9153,-2.8981,-2.8931,-2.9007,-2.9588,-3.0068,-3.0446,-3.0855,-3.1379,-3.2002,0.0,0.0,0.0,0.0,-3.5256,-3.5865,-3.6199,0.0,-3.7624,-3.7913,-3.8597,-3.933,-3.9183,-3.9304,-3.9413,-3.8979,-3.8573,0.0,-3.7501,-3.6954,-3.6404,0.0,-3.5275,-3.4859,0.0,0.0,0.0,-3.4005,0.0,0.0,0.0,-3.5253,-3.5982,-3.6925,-3.792,0.0,0.0,0.0,0.0,0.0,0.0,0.0,0.0,0.0,-4.3618,-4.3618,-4.3835,-4.3906,-4.367,-4.3741,-4.3632,-4.3219,-4.288,-4.2688,-4.2688,-4.2688,-4.2688,-4.2688,-4.2688,-4.2688,-4.2688,-4.3363,-4.4012,-4.4619,-4.5268,-4.5931,-4.6594,-4.6594,-4.6594,-4.6594,-4.6447,-4.6403,-4.6358,-4.5986,-4.5911,-4.609,-4.6314,-4.6491,-4.6712,-4.7685,-4.8154,-4.8412,-2.1798,-2.21,-2.2444,-2.3111,-2.3798,-2.4258,-2.4258,-2.5208,-2.5968,-2.6212,-2.7298,-2.8234,-2.8709,-2.9292,-2.9862,-3.0364,-3.0405,-3.0528,-3.0874,-3.0894,-3.109,-3.1485,-3.0993,-3.068,-3.068,-3.0334,-3.016,-3.0177,-3.0968,-3.1398,-3.143,-3.2107,-3.2521,0.0,0.0,0.0,0.0,0.0,0.0,-3.649,0.0,-3.7768,-3.8136,-3.8701,-3.9244,-3.967,-3.9758,-3.9678,-3.9459,-3.9332,-3.8869,-3.8215,-3.7976,-3.7335,0.0,0.0,0.0,0.0,0.0,0.0,0.0,0.0,0.0,-3.3935,0.0,0.0,0.0,-3.6315,-3.7352,0.0,0.0,0.0,0.0,0.0,0.0,0.0,0.0,0.0,0.0,-4.2984,-4.3343,-4.3356,-4.2876,-4.2958,-4.2948,-4.2625,-4.2581,-4.2581,-4.2581,-4.2581,-4.2581,-4.2581,-4.2581,-4.2566,-4.2526,-4.3096,-4.3728,-4.4407,-4.5021,-4.5697,-4.6462,-4.6462,-4.6462,-4.6462,-4.618,-4.6076,-4.6031,-4.5595,-4.5413,-4.5458,-4.5851,-4.6135,-4.6461,-4.7269,-4.7794,-4.8135,-2.2618,-2.311,-2.3593,-2.3919,-2.4489,-2.491,-2.491,-2.5466,-2.628,-2.7366,-2.8532,-2.9339,-2.9407,-2.993,-3.0337,-3.0405,-3.0405,-3.0528,-3.0874,-3.0894,-3.109,-3.1485,-3.1415,-3.1387,-3.1387,-3.1335,-3.1359,-3.1494,-3.1598,-3.1706,-3.1836,-3.2116,-3.2544,0.0,-3.3394,0.0,0.0,0.0,-3.6469,0.0,-3.8145,-3.8664,0.0,-3.9233,-3.9796,-4.034,-4.0688,-4.0675,-4.0449,0.0,-3.9676,-3.9381,0.0,-3.7807,-3.7524,-3.6465,0.0,0.0,0.0,0.0,0.0,0.0,-3.391,-3.348,-3.3918,0.0,-3.5022,-3.5481,0.0,0.0,0.0,0.0,0.0,0.0,0.0,0.0,-3.8902,0.0,-3.9989,-4.0751,-4.1504,-4.2029,-4.2194,-4.2235,-4.2221,-4.2175,-4.2175,-4.2175,-4.2175,-4.2175,-4.2175,-4.2175,-4.2175,-4.2063,-4.1827,-4.2136,-4.2774,-4.3705,-4.4037,-4.4807,-4.597,-4.597,-4.597,-4.597,-4.5685,-4.5595,-4.5549,-4.5261,-4.517,-4.517,-4.5216,-4.5398,-4.5784,-4.6983,-4.7615,-4.8003,-2.3336,-2.3524,0.0,-2.4515,-2.4842,-2.5127,-2.5466,-2.6619,-2.7759,-2.8627,-2.9482,-3.0283,-3.101,0.0,0.0,0.0,0.0,-3.2527,0.0,-3.2963,-3.3157,-3.3393,-3.3199,-3.2918,-3.2553,-3.2202,-3.187,-3.157,-3.207,-3.2307,-3.2388,-3.2925,-3.3341,0.0,-3.4074,0.0,-3.5129,0.0,-3.6839,0.0,0.0,0.0,0.0,-3.9749,-4.0376,-4.1114,-4.1296,-4.1308,-4.1193,0.0,-4.0378,0.0,0.0,0.0,0.0,-3.74,0.0,0.0,0.0,0.0,0.0,0.0,0.0,-3.4195,-3.4224,-3.4713,-3.5186,-3.5358,0.0,0.0,0.0,0.0,0.0,0.0,-3.6629,0.0,0.0,0.0,-3.8821,0.0,0.0,0.0,-4.0931,-4.0945,-4.0945,-4.0945,-4.0945,-4.1105,-4.1497,-4.1512,-4.1645,-4.1883,-4.1883,-4.1758,-4.1549,-4.1647,-4.228,-4.3428,-4.353,-4.4235,-4.5458,-4.5458,-4.5458,-4.5413,-4.5307,-4.5261,-4.529,-4.5399,-4.5448,-4.5491,-4.5732,-4.5836,-4.5949,-4.6837,-4.7477,-4.7947,-2.4313,0.0,0.0,0.0,-2.5221,-2.5507,-2.6267,-2.7637,-2.8804,-2.9434,-3.0296,-3.1219,-3.211,-3.2467,0.0,0.0,-3.3908,-3.3984,0.0,0.0,-3.4568,-3.478,-3.4496,-3.4209,-3.3831,-3.3382,-3.2946,-3.2531,-3.3119,-3.3366,-3.338,-3.4008,-3.4291,0.0,0.0,-3.5146,-3.5396,0.0,0.0,-3.7851,-3.8802,-3.97,-4.0421,-4.0506,-4.1041,-4.1749,-4.1749,-4.1705,-4.1661,-4.1661,-4.0948,-4.0082,-3.9914,-3.9438,-3.8823,0.0,0.0,0.0,-3.6543,-3.5843,-3.5218,-3.5016,-3.4816,-3.4709,-3.4685,-3.4981,-3.5338,-3.5464,-3.5862,0.0,0.0,0.0,-3.5259,-3.4802,0.0,-3.5585,0.0,0.0,0.0,0.0,0.0,0.0,0.0,-4.0104,-4.0104,-4.0104,-4.0104,-4.0307,-4.08,-4.0963,-4.1146,-4.1429,-4.1574,-4.1493,-4.1297,-4.1354,-4.1981,-4.3165,-4.3253,-4.391,-4.5124,-4.5124,-4.5124,-4.5138,-4.5217,-4.5242,-4.5299,-4.5609,-4.5735,-4.5791,-4.6147,-4.6314,-4.6347,-4.6931,-4.7455,-4.7938,-2.5814,-2.519,0.0,0.0,0.0,0.0,-2.7461,-2.8193,0.0,0.0,0.0,0.0,0.0,0.0,0.0,0.0,0.0,-3.3984,-3.4175,0.0,-3.4403,0.0,0.0,-3.4887,-3.5133,-3.5119,-3.5091,-3.5077,-3.5091,-3.5105,-3.5142,-3.528,-3.5354,-3.5354,0.0,-3.6031,-3.6625,-3.6668,-3.7282,-3.8252,-3.8932,-4.0055,-4.1293,0.0,-4.1833,-4.2182,-4.2182,-4.2001,-4.1773,-4.1773,-4.1391,-4.0741,-4.0205,-3.9597,-3.8946,-3.8352,0.0,0.0,-3.7247,-3.635,-3.5386,-3.5386,-3.4944,-3.4592,-3.4977,-3.5089,-3.5227,-3.5614,-3.571,-3.5533,-3.4936,-3.5051,-3.5016,-3.4423,-3.4681,0.0,0.0,0.0,0.0,0.0,0.0,0.0,0.0,-4.0104,-4.0104,-4.0104,-4.0104,-4.0104,-4.0133,-4.057,-4.0824,-4.0838,-4.1207,-4.1283,-4.1001,-4.1255,-4.1896,-4.2943,-4.3165,-4.391,-4.5124,-4.5124,-4.5124,-4.5106,-4.5501,-4.569,-4.5685,-4.5762,-4.5818,-4.5838,-4.6228,-4.655,-4.6851,-4.7384,-4.7728,-4.8009,0.0,0.0,0.0,0.0,0.0,0.0,0.0,-2.9482,0.0,0.0,0.0,0.0,0.0,-3.4882,-3.5398,0.0,0.0,-3.632,-3.6361,-3.6498,0.0,0.0,0.0,-3.6704,0.0,-3.5936,-3.5548,-3.4742,-3.4854,-3.4929,-3.4929,-3.5152,-3.5263,-3.5291,0.0,-3.6109,0.0,0.0,0.0,0.0,0.0,-4.0868,-4.1595,0.0,-4.1723,-4.2533,-4.2533,-4.2486,-4.2408,-4.2408,-4.1994,-4.1373,-4.0797,-4.0465,-4.0092,-3.9084,-3.8656,-3.8394,-3.7993,-3.7593,-3.7124,-3.6549,-3.6248,-3.5963,-3.5572,-3.5491,-3.5559,-3.5669,-3.571,-3.5371,-3.4395,-3.4297,-3.4047,-3.3197,-3.3647,-3.4131,0.0,0.0,0.0,0.0,0.0,0.0,0.0,0.0,-3.826,-3.826,-3.8485,-3.8852,-3.9271,-3.9319,-3.9662,-4.0315,-4.046,-4.0548,-4.0616,-4.083,-4.145,-4.2438,-4.269,-4.3489,-4.463,-4.463,-4.4856,-4.5251,-4.5178,-4.5419,-4.579,-4.6073,-4.6187,-4.6242,-4.68,-4.7151,-4.7406,-4.7595,-4.7847,-4.8062,-2.6354,0.0,0.0,0.0,0.0,0.0,0.0,0.0,0.0,0.0,-3.3292,0.0,-3.5588,0.0,-3.6632,0.0,-3.7485,-3.7485,-3.7485,-3.7641,0.0,-3.7811,-3.7964,0.0,0.0,0.0,-3.6475,-3.5496,-3.5651,-3.5579,0.0,0.0,0.0,0.0,0.0,0.0,-3.6357,0.0,-3.8042,0.0,0.0,-4.1131,0.0,0.0,-4.1961,-4.2934,-4.2934,-4.284,-4.2793,-4.2793,-4.2395,-4.1818,-4.1407,-4.0982,-4.0488,-3.9706,-3.9184,-3.8759,-3.8375,-3.8114,-3.7812,-3.7234,-3.7097,-3.6934,-3.6212,-3.6035,-3.5967,-3.575,-3.571,-3.5385,-3.4395,-3.4043,-3.362,-3.28,-3.3042,-3.342,0.0,-3.4167,0.0,0.0,0.0,0.0,0.0,0.0,-3.6873,-3.7053,-3.733,-3.7758,-3.839,-3.8439,-3.8865,-3.9754,-3.9843,-4.0055,-4.0399,-4.0457,-4.1,-4.2078,-4.2227,-4.2928,-4.4115,-4.4352,-4.4674,-4.5016,-4.5316,-4.567,-4.6037,-4.6408,-4.6568,-4.661,-4.6892,-4.7198,-4.7456,-4.761,-4.7866,-4.812,0.0,0.0,0.0,0.0,-2.8312,0.0,0.0,0.0,-3.2286,0.0,-3.4326,-3.571,-3.5832,-3.6862,-3.7594,-3.7621,-3.7648,-3.7662,-3.7662,-3.7662,0.0,0.0,-3.7919,-3.8032,-3.8241,0.0,0.0,0.0,0.0,0.0,0.0,0.0,0.0,0.0,-3.6889,0.0,-3.6765,-3.7364,-3.7895,-3.8448,-4.0007,-4.0927,-4.1456,-4.1849,-4.2542,-4.3273,-4.3273,-4.3128,-4.2887,-4.2887,-4.2521,-4.2046,-4.2019,-4.1205,-4.0268,-4.0241,-3.9414,-3.8505,-3.8505,-3.8027,-3.7567,-3.754,-3.7526,-3.7377,-3.6782,-3.6619,-3.6442,-3.5873,-3.5737,-3.5533,-3.4897,-3.4328,-3.3758,-3.3196,-3.2864,-3.2846,-3.3241,-3.329,-3.329,0.0,0.0,0.0,0.0,-3.5733,-3.6004,-3.6596,-3.6668,0.0,0.0,-3.7948,-3.8453,-3.9173,-3.9312,-3.9674,-4.0385,-4.0182,-4.0631,-4.1805,-4.1832,-4.2482,-4.3669,-4.4229,-4.4532,-4.4656,-4.5843,-4.6418,-4.6436,-4.6758,-4.6887,-4.6835,-4.6574,-4.6678,-4.6991,-4.7507,-4.7866,-4.812,-2.8769,-2.8747,-2.8808,0.0,-3.0099,-3.0747,0.0,0.0,0.0,0.0,-3.5343,-3.6225,-3.7582,-3.8396,-3.902,-3.9468,-3.9929,0.0,0.0,0.0,0.0,-4.0232,-3.9829,-3.9424,-3.9033,-3.8583,-3.8065,-3.7437,0.0,0.0,-3.6797,0.0,0.0,0.0,0.0,0.0,-3.719,-3.7799,-3.8807,-4.0062,-4.0709,-4.1338,-4.1876,-4.2247,-4.2523,-4.2741,-4.2935,-4.2984,-4.2887,-4.2887,-4.2792,-4.2588,-4.2141,-4.1788,-4.1449,-4.1001,-4.0336,-3.9739,-3.9739,-3.9305,-3.8735,-3.8301,-3.8149,-3.7987,-3.7433,-3.6931,-3.6564,-3.6402,-3.6022,-3.5533,-3.4897,-3.4666,-3.4272,-3.3264,-3.2864,-3.2846,-3.3241,-3.329,0.0,-3.329,0.0,0.0,0.0,-3.4697,-3.5318,-3.5911,-3.6299,-3.6727,-3.7352,-3.7328,-3.7802,-3.8956,-3.881,-3.9158,-4.0083,-4.0495,-4.0969,-4.1571,-4.2196,-4.3097,-4.4256,-4.4422,-4.5001,-4.5948,-4.5985,-4.6319,-4.6771,-4.6662,-4.6574,-4.6574,-4.6521,-4.6783,-4.725,-4.7559,-4.7866,-4.812,-2.9145,0.0,0.0,-3.0598,0.0,0.0,-3.2104,-3.3156,0.0,-3.5292,-3.6071,0.0,-3.8374,-3.902,-3.9599,-4.0205,-4.0535,0.0,-4.0737,0.0,0.0,-4.0737,-4.0433,-4.0143,-3.991,-3.9316,0.0,-3.8315,0.0,-3.7751,-3.7165,0.0,0.0,0.0,0.0,-3.6931,0.0,-3.8251,-3.9355,-4.0464,-4.1104,-4.1504,0.0,-4.2221,-4.2351,-4.2338,-4.2484,-4.2644,-4.2741,-4.2838,-4.2887,-4.2833,-4.2493,-4.2209,-4.1937,-4.1598,-4.1069,-4.0594,-4.0594,-4.0146,-3.9604,-3.9278,-3.8993,-3.8654,-3.8014,-3.765,-3.7243,-3.6714,-3.6334,-3.5927,-3.5276,-3.4965,-3.4487,-3.3479,-3.2973,-3.2846,-3.3241,-3.329,0.0,0.0,-3.329,0.0,-3.3847,-3.4023,-3.4505,-3.5399,-3.5736,-3.6241,0.0,-3.707,-3.7594,-3.8874,-3.8656,-3.8991,-3.9996,-4.0515,-4.0968,-4.1355,-4.2049,-4.3013,-4.4225,-4.445,-4.5144,-4.6062,-4.6154,-4.6351,-4.673,-4.6574,-4.6469,-4.6469,-4.6469,-4.6835,-4.7301,-4.7456,-4.7764,-4.812,0.0,0.0,0.0,0.0,0.0,0.0,0.0,-3.398,0.0,-3.5311,0.0,-3.8025,-3.8642,-3.9268,-3.9868,-4.0366,0.0,-4.0526,-4.0526,-4.0526,-4.0526,-4.0526,-4.0446,-4.0548,-4.077,-4.0146,-3.9693,0.0,-3.8868,-3.8258,-3.7594,0.0,0.0,0.0,0.0,0.0,0.0,-3.8809,-3.9807,-4.0467,-4.1261,-4.1624,-4.171,-4.1928,-4.2029,-4.2029,-4.2029,-4.2239,-4.2498,-4.2741,-4.279,-4.279,-4.279,-4.2438,-4.2018,-4.2018,-4.1599,-4.1185,-4.1185,-4.0724,-4.0309,-4.0309,-3.9861,-3.9278,-3.8776,-3.8532,-3.8098,-3.6958,-3.6659,-3.6429,-3.5818,-3.5195,-3.4605,-3.3945,-3.3247,-3.2949,-3.3367,0.0,0.0,0.0,0.0,0.0,-3.4259,-3.3768,-3.3958,-3.5217,-3.5316,-3.5808,-3.6922,-3.6978,-3.7594,-3.8874,-3.8656,-3.8991,-4.0039,-4.0491,-4.0823,-4.117,-4.1802,-4.2738,-4.3968,-4.4461,-4.5071,-4.5736,-4.6252,-4.6469,-4.6469,-4.6469,-4.6469,-4.6469,-4.6469,-4.6835,-4.7301,-4.7301,-4.7661,-4.812,0.0,0.0,0.0,0.0,0.0,-3.414,-3.4048,-3.46,-3.5537,-3.7027,-3.7963,-3.8655,-3.9215,-4.024,-4.0933,-4.104,-4.1493,0.0,0.0,0.0,0.0,-4.1772,-4.1319,-4.1053,-4.1101,-4.0528,-4.0047,-3.972,-3.9626,-3.9109,-3.826,-3.8152,0.0,0.0,0.0,0.0,-3.8928,-3.9685,0.0,-4.1383,-4.1551,-4.1783,-4.1981,-4.1855,-4.1796,-4.1796,-4.1796,-4.1944,-4.2177,-4.2226,-4.2226,-4.2226,-4.2226,-4.2159,-4.2079,-4.2079,-4.181,-4.1531,-4.1531,-4.1254,-4.0947,-4.0947,-4.0485,-3.9997,-3.9902,-3.9115,-3.822,-3.7472,-3.6958,-3.6429,-3.5818,-3.5195,-3.4878,-3.5047,-3.4172,-3.36,-3.4012,0.0,0.0,0.0,0.0,-3.4287,-3.4978,-3.4436,0.0,0.0,0.0,-3.6258,-3.695,-3.6978,-3.7594,-3.8874,-3.8656,-3.9089,-4.0342,-4.0935,-4.1297,-4.1374,-4.2304,-4.3362,-4.4542,-4.4651,-4.5288,-4.6333,-4.6428,-4.6469,-4.6469,-4.6469,-4.6469,-4.6469,-4.6469,-4.6835,-4.7301,-4.7301,-4.7661,-4.812,0.0,0.0,0.0,0.0,0.0,0.0,0.0,-3.6179,-3.6823,-3.768,-3.8286,-3.8958,-3.9815,-4.0421,-4.0882,-4.1199,-4.1538,-4.1696,-4.1696,-4.1696,-4.1696,-4.1696,-4.1433,-4.1337,-4.147,-4.0852,-4.0558,-4.0515,-4.0039,-3.9585,-3.9096,-3.8621,0.0,0.0,0.0,-3.8851,0.0,0.0,-4.1106,-4.1419,-4.1581,-4.1927,-4.2309,-4.2058,-4.2128,-4.2391,-4.2391,-4.2441,-4.2501,-4.2193,-4.2079,-4.2079,-4.2079,-4.2079,-4.2079,-4.2079,-4.1977,-4.1895,-4.2006,-4.1719,-4.1369,-4.1524,-4.0879,-4.0187,-4.0187,-3.9509,-3.8708,-3.8068,-3.7514,-3.6809,-3.5886,-3.5195,-3.4946,-3.5336,-3.4682,-3.4251,-3.468,0.0,-3.4379,0.0,0.0,0.0,0.0,0.0,0.0,0.0,0.0,-3.637,-3.695,-3.7288,-3.7892,-3.8874,-3.9088,-3.9732,-4.0859,-4.1345,-4.1709,-4.1931,-4.2909,-4.3823,-4.4719,-4.5017,-4.5641,-4.6469,-4.6469,-4.6469,-4.6469,-4.6469,-4.6469,-4.6469,-4.6469,-4.6835,-4.7301,-4.7301,-4.7661,-4.8069,0.0,-3.3913,0.0,0.0,-3.544,-3.6356,-3.691,-3.7508,-3.7931,-3.799,-3.8564,-3.9272,-4.0122,-4.0379,-4.0689,-4.1172,-4.1261,-4.1311,-4.1311,-4.1311,-4.1311,-4.1311,-4.1311,-4.1411,-4.1597,-4.1163,-4.0958,-4.1116,-4.0375,-3.9939,-3.9763,-3.906,-3.8715,0.0,0.0,0.0,-4.0173,-4.1099,-4.1504,-4.1528,-4.1796,-4.22,-4.2677,-4.2459,-4.2631,-4.3023,-4.3023,-4.3023,-4.2931,-4.2457,-4.2302,-4.2302,-4.2302,-4.2223,-4.2117,-4.2117,-4.2073,-4.2079,-4.2351,-4.21,-4.1881,-4.2134,-4.1381,-4.054,-4.0418,-3.9916,-3.9278,-3.8559,-3.7797,-3.6997,-3.609,-3.5385,-3.5097,-3.5489,-3.5124,-3.4889,-3.5274,0.0,0.0,0.0,0.0,0.0,-3.6244,-3.63,0.0,0.0,-3.63,-3.6511,-3.695,-3.7569,-3.8201,-3.8888,-3.9507,-4.0293,-4.1365,-4.1723,-4.2058,-4.2491,-4.3456,-4.4158,-4.4732,-4.5316,-4.5912,-4.6416,-4.6416,-4.6416,-4.6416,-4.6552,-4.6606,-4.6672,-4.6808,-4.7165,-4.7584,-4.7584,-4.7813,-4.8061,0.0,0.0,0.0,0.0,0.0,-3.6469,-3.6988,-3.7565,-3.7972,-3.8222,-3.9214,-3.9827,-3.9706,-4.0395,-4.0882,-4.0933,-4.1161,-4.1311,-4.1311,-4.1311,-4.1311,-4.1311,-4.1311,-4.1311,-4.1361,-4.1259,-4.112,-4.0839,-4.0769,-4.0412,-3.979,-3.9715,-3.9661,-3.9674,-3.9728,-4.0234,-4.1101,-4.1208,-4.1692,-4.2486,-4.2488,-4.2704,-4.2944,-4.2944,-4.2984,-4.3023,-4.3023,-4.3023,-4.2997,-4.2944,-4.2918,-4.2918,-4.2918,-4.2603,-4.2184,-4.2184,-4.1968,-4.1796,-4.2079,-4.2248,-4.2466,-4.2757,-4.2317,-4.1693,-4.115,-4.0553,-3.978,-3.8654,-3.7501,-3.6659,-3.6537,-3.6035,-3.5722,-3.599,-3.5627,-3.5421,-3.5718,-3.5442,-3.54,-3.5949,0.0,0.0,-3.6838,-3.6908,-3.6908,0.0,-3.6908,-3.6922,-3.6978,-3.7569,-3.8201,-3.8888,-3.9507,-4.0378,-4.1571,-4.1934,-4.2334,-4.2678,-4.3663,-4.437,-4.4732,-4.5316,-4.5743,-4.6073,-4.6073,-4.6073,-4.6113,-4.6638,-4.7042,-4.7377,-4.7866,-4.8246,-4.8556,-4.8556,-4.8427,-4.8169,0.0,0.0,0.0,0.0,0.0,-3.7433,-3.8009,-3.8559,-3.8905,-3.8832,-3.9363,-3.986,-4.0119,-4.0451,-4.0643,-4.0643,-4.0757,-4.0808,-4.0808,-4.0808,-4.0808,-4.0808,-4.0946,-4.1047,-4.1047,-4.1211,-4.1256,-4.112,-4.0913,-4.0636,-4.0412,-4.0208,-4.0081,-4.0108,-4.0502,-4.0773,-4.1024,-4.1739,-4.2158,-4.2366,-4.2707,-4.314,-4.3533,-4.3533,-4.3742,-4.4042,-4.4042,-4.4042,-4.4042,-4.4042,-4.3585,-4.3023,-4.3023,-4.2866,-4.2618,-4.2265,-4.2105,-4.1994,-4.1888,-4.2043,-4.2338,-4.2595,-4.2357,-4.1951,-4.1707,-4.0892,-4.0051,-3.9576,-3.8532,-3.7473,-3.6727,-3.6402,-3.6225,-3.6141,-3.5946,-3.5914,-3.6124,-3.6136,0.0,-3.642,0.0,-3.675,-3.6964,-3.6978,-3.6978,0.0,-3.6978,-3.7147,-3.7512,-3.8131,-3.8777,-3.9436,-4.0378,-4.1306,-4.2177,-4.2538,-4.3115,-4.3787,-4.4425,-4.4916,-4.5261,-4.5676,-4.5805,-4.5755,-4.5755,-4.6062,-4.6558,-4.6786,-4.7271,-4.792,-4.8097,-4.8409,-4.8721,-4.8721,-4.8731,-4.8643,-3.5704,-3.623,-3.6815,-3.727,-3.7703,-3.8112,-3.8747,-3.9141,-3.9397,-3.9323,-3.9487,-3.9791,-4.0211,-4.0351,-4.0402,-4.0402,-4.0607,-4.0747,-4.0747,-4.085,-4.0952,-4.0952,-4.0978,-4.104,-4.104,-4.1138,-4.1161,-4.1161,-4.0992,-4.0913,-4.0777,-4.0484,-4.0346,-4.0484,-4.0882,-4.1029,-4.1008,-4.2071,-4.2482,-4.2461,-4.3036,-4.3611,-4.4121,-4.4121,-4.4382,-4.4668,-4.4668,-4.4668,-4.4668,-4.4668,-4.4186,-4.352,-4.352,-4.3402,-4.3193,-4.2788,-4.2473,-4.2184,-4.2029,-4.1978,-4.2092,-4.24,-4.2334,-4.2127,-4.2046,-4.1205,-4.0363,-3.9997,-3.9129,-3.8152,-3.7297,-3.6836,-3.6511,-3.6279,-3.6141,-3.6166,-3.6286,-3.6484,0.0,-3.6603,-3.6772,-3.6915,-3.6915,-3.6954,0.0,0.0,-3.7338,-3.7535,-3.7878,-3.855,-3.9197,-3.976,-4.0969,-4.1924,-4.257,-4.3006,-4.3634,-4.4505,-4.4991,-4.5307,-4.5614,-4.5817,-4.5755,-4.5502,-4.5381,-4.5768,-4.6558,-4.6907,-4.7527,-4.8232,-4.8571,-4.8872,-4.9091,-4.9091,-4.9077,-4.9034,-3.7096,-3.7415,-3.7688,-3.7938,-3.799,-3.8191,-3.8831,-3.8919,-3.912,-3.9609,-3.9685,-3.9685,-3.9697,-3.9942,-4.007,-4.007,-4.0849,-4.1285,-4.1285,-4.181,-4.2064,-4.2064,-4.1579,-4.1285,-4.1285,-4.1028,-4.0883,-4.0883,-4.1147,-4.111,-4.0777,-4.0484,-4.0463,-4.0777,-4.0777,-4.0972,-4.1337,-4.1925,-4.25,-4.3062,-4.3637,-4.4199,-4.4668,-4.4668,-4.4668,-4.4668,-4.4668,-4.4668,-4.4668,-4.4668,-4.4668,-4.4655,-4.4655,-4.4317,-4.3912,-4.3912,-4.3101,-4.2276,-4.2543,-4.2158,-4.1845,-4.2364,-4.2498,-4.2398,-4.2093,-4.1544,-4.077,-3.9563,-3.8844,-3.8423,-3.8396,-3.7406,-3.6605,-3.6592,-3.6334,-3.6086,-3.6086,-3.6286,-3.6405,-3.6405,-3.6603,-3.6721,-3.6721,-3.6889,0.0,0.0,-3.8119,-3.8173,-3.7906,-3.855,-3.9197,-3.976,-4.0969,-4.1924,-4.257,-4.3188,-4.3822,-4.4505,-4.5112,-4.5482,-4.5614,-4.5607,-4.5448,-4.5193,-4.4843,-4.5059,-4.5702,-4.6887,-4.7698,-4.8314,-4.9535,-4.9996,-4.9983,-4.9983,-4.9616,-4.9114,-3.7197,-3.7536,-3.8025,-3.8542,-3.8429,-3.8503,-3.9077,-3.8958,-3.8916,-3.9089,-3.927,-3.9426,-3.9426,-3.9685,-3.9839,-3.9839,-4.0408,-4.0776,-4.0776,-4.1241,-4.1544,-4.1544,-4.158,-4.1406,-4.1025,-4.1106,-4.108,-4.0883,-4.0997,-4.1056,-4.1136,-4.1051,-4.1064,-4.1136,-4.1136,-4.1413,-4.1938,-4.2307,-4.2931,-4.365,-4.4024,-4.4349,-4.4668,-4.4668,-4.4668,-4.4668,-4.4668,-4.4668,-4.4668,-4.4668,-4.4668,-4.4668,-4.4668,-4.4604,-4.4382,-4.399,-4.3664,-4.3219,-4.2549,-4.2297,-4.2275,-4.2001,-4.2204,-4.2457,-4.2366,-4.17,-4.0892,-4.0078,-3.9427,-3.8898,-3.8491,-3.8098,-3.7704,-3.7255,-3.6769,-3.6457,-3.6457,-3.6278,-3.6206,-3.6206,-3.6365,-3.6716,-3.7264,-3.7372,-3.7758,-3.851,-3.8647,-3.8926,-3.9376,-3.9767,-4.039,-4.1269,-4.2089,-4.2735,-4.3202,-4.3807,-4.445,-4.5125,-4.5305,-4.5485,-4.5607,-4.5622,-4.5328,-4.4843,-4.4735,-4.5283,-4.6221,-4.6608,-4.7619,-4.8829,-4.9264,-4.9657,-5.001,-5.001,-4.9888,-4.9671,-3.7604,-3.7929,-3.8291,-3.8764,-3.8685,-3.8693,-3.9052,-3.8945,-3.8788,-3.8788,-3.8998,-3.9102,-3.9102,-3.9444,-3.9738,-3.9998,-4.0513,-4.0915,-4.1116,-4.1643,-4.1957,-4.1957,-4.1906,-4.1736,-4.1382,-4.1444,-4.1373,-4.1209,-4.1208,-4.1204,-4.1147,-4.1261,-4.1261,-4.1161,-4.1382,-4.1618,-4.1905,-4.2499,-4.3082,-4.3604,-4.3971,-4.4313,-4.4572,-4.4572,-4.4626,-4.4668,-4.4668,-4.4668,-4.4668,-4.4668,-4.4668,-4.4668,-4.4668,-4.4668,-4.4657,-4.4304,-4.4042,-4.3729,-4.2735,-4.2497,-4.2347,-4.1855,-4.1944,-4.2186,-4.2167,-4.1517,-4.0794,-4.0172,-3.9577,-3.9006,-3.8553,-3.8266,-3.7997,-3.7634,-3.7055,-3.6735,-3.6832,-3.6659,-3.6552,-3.6634,-3.6784,-3.7165,-3.7783,-3.7892,-3.832,-3.9156,-3.9295,-3.9687,-4.042,-4.0333,-4.0773,-4.1979,-4.2485,-4.3045,-4.3497,-4.4326,-4.4967,-4.5401,-4.5669,-4.5723,-4.5595,-4.5595,-4.5274,-4.4668,-4.4668,-4.5257,-4.6155,-4.6435,-4.7283,-4.8504,-4.8952,-4.9359,-4.9711,-4.9928,-5.001,-4.9969,-3.8314,-3.8387,-3.8534,-3.8755,-3.8788,-3.8788,-3.8788,-3.8736,-3.8736,-3.8736,-3.8773,-3.885,-3.885,-3.9329,-3.9886,-4.052,-4.0996,-4.1564,-4.212,-4.2617,-4.293,-4.293,-4.2484,-4.2195,-4.2158,-4.19,-4.1717,-4.1679,-4.1736,-4.1466,-4.1,-4.1227,-4.1227,-4.1025,-4.1505,-4.1621,-4.1477,-4.2526,-4.2987,-4.3131,-4.3669,-4.4052,-4.4258,-4.4258,-4.4422,-4.4626,-4.4626,-4.4626,-4.4626,-4.4626,-4.4626,-4.4626,-4.4626,-4.4626,-4.4681,-4.4668,-4.4356,-4.3807,-4.3245,-4.267,-4.2184,-4.1795,-4.1723,-4.17,-4.1627,-4.1194,-4.0569,-4.0018,-3.9387,-3.8886,-3.8701,-3.8189,-3.7745,-3.7745,-3.7283,-3.6927,-3.7212,-3.7228,-3.7286,-3.7443,-3.767,-3.7894,-3.8214,-3.8422,-3.8894,-3.9802,-4.0026,-4.0406,-4.1029,-4.0323,-4.059,-4.2036,-4.2481,-4.2981,-4.3554,-4.4687,-4.5309,-4.542,-4.6171,-4.6139,-4.5595,-4.5595,-4.5274,-4.4668,-4.4668,-4.5059,-4.5635,-4.6181,-4.6827,-4.7526,-4.8572,-4.906,-4.9196,-4.9752,-4.9969,-5.001,-3.8107,-3.8413,-3.8733,-3.8764,-3.8631,-3.8461,-3.8461,-3.8303,-3.8198,-3.8198,-3.8708,-3.9136,-3.9136,-3.9773,-4.0439,-4.1046,-4.1249,-4.1373,-4.1509,-4.2028,-4.2324,-4.2324,-4.2413,-4.2252,-4.1828,-4.1965,-4.196,-4.1679,-4.1883,-4.1966,-4.1838,-4.189,-4.189,-4.1838,-4.1979,-4.2221,-4.2577,-4.2656,-4.3067,-4.3694,-4.3577,-4.3696,-4.401,-4.401,-4.4052,-4.4107,-4.4107,-4.4107,-4.4107,-4.4107,-4.4107,-4.4107,-4.4107,-4.4107,-4.4161,-4.4572,-4.463,-4.4395,-4.382,-4.3258,-4.2683,-4.221,-4.1876,-4.1756,-4.1955,-4.1509,-4.1055,-4.0922,-3.9994,-3.9261,-3.9228,-3.8775,-3.8402,-3.8402,-3.7865,-3.7523,-3.7567,-3.7354,-3.7201,-3.7286,-3.7443,-3.7917,-3.8793,-3.8933,-3.9395,-4.0392,-4.0519,-4.0915,-4.1709,-4.1394,-4.1662,-4.2644,-4.3237,-4.3737,-4.4186,-4.4707,-4.5288,-4.5788,-4.6037,-4.5914,-4.5595,-4.5395,-4.5072,-4.4668,-4.4668,-4.5059,-4.5609,-4.5742,-4.6451,-4.7445,-4.7716,-4.8327,-4.9142,-4.9291,-4.9616,-5.001,-3.8191,-3.8436,-3.8579,-3.8473,-3.8303,-3.8198,-3.8198,-3.8092,-3.807,-3.8334,-3.8719,-3.9104,-3.9346,-4.0019,-4.0512,-4.0872,-4.1132,-4.1397,-4.1656,-4.1938,-4.211,-4.211,-4.2268,-4.2176,-4.188,-4.2202,-4.2203,-4.191,-4.2192,-4.2172,-4.1917,-4.2023,-4.2023,-4.1917,-4.2197,-4.2423,-4.2662,-4.2764,-4.3055,-4.3487,-4.3308,-4.3406,-4.3653,-4.3653,-4.3776,-4.3899,-4.3899,-4.3899,-4.3899,-4.3899,-4.3899,-4.3899,-4.3899,-4.3899,-4.3955,-4.4258,-4.4422,-4.4455,-4.4029,-4.365,-4.3206,-4.2369,-4.1843,-4.1597,-4.1832,-4.1444,-4.102,-4.102,-4.029,-3.9594,-3.9527,-3.9018,-3.8668,-3.8668,-3.816,-3.7822,-3.7899,-3.7754,-3.7718,-3.7937,-3.8068,-3.8464,-3.9282,-3.9731,-4.0239,-4.0935,-4.136,-4.1801,-4.2257,-4.2406,-4.2716,-4.331,-4.3514,-4.3951,-4.4629,-4.5122,-4.5701,-4.6329,-4.6122,-4.5861,-4.5595,-4.5341,-4.5018,-4.4668,-4.4668,-4.4951,-4.5448,-4.5542,-4.6062,-4.6798,-4.7242,-4.792,-4.8707,-4.8867,-4.9284,-4.9783,-3.8356,-3.8315,-3.821,-3.7986,-3.7933,-3.7933,-3.7933,-3.8058,-3.8274,-3.8755,-3.896,-3.9224,-3.9681,-4.0198,-4.0511,-4.0511,-4.0974,-4.1506,-4.1903,-4.1928,-4.1928,-4.1928,-4.1984,-4.2041,-4.2041,-4.2356,-4.2413,-4.2228,-4.2503,-4.2426,-4.1878,-4.2106,-4.2106,-4.1904,-4.2451,-4.2503,-4.2363,-4.2841,-4.2974,-4.2974,-4.2974,-4.3129,-4.3338,-4.3338,-4.353,-4.3789,-4.3789,-4.3789,-4.3789,-4.3789,-4.3789,-4.3789,-4.3789,-4.3789,-4.3776,-4.3832,-4.3984,-4.4142,-4.3986,-4.3938,-4.3651,-4.2499,-4.1794,-4.1466,-4.1623,-4.1215,-4.0873,-4.0873,-4.0386,-3.993,-3.9765,-3.9246,-3.8841,-3.8841,-3.8462,-3.8194,-3.8385,-3.8418,-3.8601,-3.9042,-3.9132,-3.937,-3.9916,-4.0577,-4.109,-4.1355,-4.2052,-4.2536,-4.2621,-4.3111,-4.3526,-4.3765,-4.3656,-4.398,-4.492,-4.5596,-4.6206,-4.6783,-4.6179,-4.5808,-4.5555,-4.5234,-4.4951,-4.4668,-4.4668,-4.4897,-4.5234,-4.5448,-4.5702,-4.6021,-4.6907,-4.7623,-4.8095,-4.8467,-4.9002,-4.9455,-3.8092,-3.7904,-3.7702,-3.7649,-3.7649,-3.7649,-3.7649,-3.8234,-3.8719,-3.8815,-3.9597,-4.0186,-4.0258,-4.0739,-4.1064,-4.1064,-4.1179,-4.1272,-4.1344,-4.1357,-4.1357,-4.1357,-4.1561,-4.1663,-4.1663,-4.2231,-4.2476,-4.2445,-4.2792,-4.2909,-4.2778,-4.2834,-4.2834,-4.2778,-4.2922,-4.2904,-4.2848,-4.2936,-4.2974,-4.2974,-4.2974,-4.303,-4.3085,-4.3085,-4.3085,-4.3154,-4.3154,-4.3154,-4.3154,-4.3154,-4.3154,-4.3154,-4.3154,-4.3154,-4.3197,-4.3406,-4.3504,-4.3657,-4.4087,-4.409,-4.3651,-4.2499,-4.2146,-4.1963,-4.1466,-4.1295,-4.123,-4.123,-4.0746,-4.0327,-4.0292,-3.9847,-3.9468,-3.9468,-3.9403,-3.9337,-3.9385,-3.9549,-3.9759,-4.0067,-4.0288,-4.0613,-4.1073,-4.1247,-4.1439,-4.1708,-4.185,-4.2173,-4.2671,-4.2782,-4.3059,-4.359,-4.3821,-4.4303,-4.5043,-4.5614,-4.6,-4.6126,-4.5808,-4.5502,-4.5234,-4.4897,-4.4735,-4.4668,-4.4668,-4.4897,-4.518,-4.5234,-4.5448,-4.5715,-4.6383,-4.6984,-4.7613,-4.8118,-4.8662,-4.9183,-3.7507,-3.7411,-3.7304,-3.7304,-3.7304,-3.7304,-3.7304,-3.7916,-3.8409,-3.8682,-3.9551,-4.026,-4.0502,-4.0925,-4.1184,-4.1184,-4.1184,-4.1184,-4.1184,-4.1184,-4.1184,-4.1184,-4.1344,-4.1447,-4.1606,-4.1891,-4.2174,-4.2525,-4.2638,-4.2806,-4.2974,-4.2974,-4.2974,-4.2974,-4.2806,-4.275,-4.275,-4.2594,-4.2594,-4.275,-4.275,-4.2862,-4.2974,-4.2974,-4.2974,-4.2974,-4.2974,-4.2862,-4.275,-4.275,-4.2638,-4.2538,-4.2694,-4.275,-4.2806,-4.3073,-4.3517,-4.3971,-4.4203,-4.4102,-4.3742,-4.3271,-4.2669,-4.2146,-4.1834,-4.1533,-4.1311,-4.1311,-4.1089,-4.0893,-4.0893,-4.0435,-4.0043,-4.0043,-3.9795,-3.9612,-3.9612,-3.9682,-3.9873,-4.0253,-4.0428,-4.0663,-4.1189,-4.166,-4.1991,-4.2098,-4.2527,-4.2863,-4.3153,-4.3153,-4.3243,-4.3423,-4.4194,-4.4779,-4.5094,-4.5676,-4.5948,-4.6007,-4.5595,-4.5341,-4.5193,-4.4843,-4.4668,-4.4668,-4.4668,-4.4789,-4.4951,-4.5126,-4.5419,-4.5831,-4.6299,-4.706,-4.786,-4.797,-4.8391,-4.885,-3.7078,-3.7024,-3.7024,-3.7024,-3.7024,-3.7071,-3.7188,-3.77,-3.8272,-3.8801,-3.9533,-4.0133,-4.0559,-4.0896,-4.1069,-4.1069,-4.1184,-4.1184,-4.1184,-4.1184,-4.1184,-4.1184,-4.1184,-4.1287,-4.1492,-4.1549,-4.1834,-4.2287,-4.2356,-4.2538,-4.2818,-4.2818,-4.2818,-4.2762,-4.2525,-4.2413,-4.2356,-4.2211,-4.2211,-4.2413,-4.2413,-4.2581,-4.2818,-4.2818,-4.2818,-4.2818,-4.2818,-4.265,-4.2413,-4.2413,-4.2256,-4.2155,-4.2369,-4.2469,-4.2525,-4.2806,-4.3474,-4.4136,-4.4258,-4.4152,-4.3989,-4.3912,-4.3258,-4.2578,-4.2447,-4.1925,-4.152,-4.152,-4.1415,-4.1311,-4.1311,-4.0932,-4.0618,-4.0618,-4.0278,-4.0004,-4.0004,-4.0004,-4.0197,-4.0651,-4.0699,-4.0937,-4.1483,-4.2126,-4.2541,-4.2541,-4.3081,-4.3423,-4.3423,-4.3423,-4.3444,-4.343,-4.4433,-4.5062,-4.5212,-4.5718,-4.5967,-4.5914,-4.5448,-4.518,-4.5072,-4.4843,-4.4668,-4.4668,-4.4668,-4.4668,-4.4735,-4.5109,-4.5546,-4.5967,-4.6478,-4.7224,-4.8006,-4.7894,-4.8179,-4.8548,-3.7078,-3.6916,-3.6754,-3.6754,-3.6754,-3.6929,-3.7374,-3.814,-3.8812,-3.9353,-3.9858,-4.0188,-4.0223,-4.0537,-4.0723,-4.0723,-4.1012,-4.1184,-4.1184,-4.1184,-4.1184,-4.1184,-4.1184,-4.1184,-4.1242,-4.1447,-4.1594,-4.1663,-4.1972,-4.2155,-4.2155,-4.2155,-4.2155,-4.2155,-4.2155,-4.2098,-4.2098,-4.211,-4.211,-4.2098,-4.2098,-4.2155,-4.2155,-4.2155,-4.2155,-4.2155,-4.2155,-4.2155,-4.2098,-4.2098,-4.2098,-4.211,-4.2098,-4.2312,-4.2525,-4.2525,-4.2961,-4.356,-4.4148,-4.4287,-4.4227,-4.395,-4.386,-4.3611,-4.3075,-4.2513,-4.2146,-4.2146,-4.169,-4.1311,-4.1311,-4.1272,-4.1246,-4.1246,-4.1219,-4.1193,-4.1193,-4.1193,-4.1379,-4.1896,-4.1945,-4.2204,-4.2703,-4.2854,-4.2867,-4.2867,-4.2908,-4.2935,-4.2935,-4.2935,-4.318,-4.3737,-4.4402,-4.5027,-4.557,-4.5868,-4.5861,-4.5649,-4.5341,-4.5018,-4.4735,-4.4722,-4.4668,-4.4668,-4.4668,-4.4668,-4.4774,-4.5336,-4.5584,-4.5741,-4.68,-4.7314,-4.7445,-4.7982,-4.8204,-4.8243,-3.6592,-3.6538,-3.6429,-3.6429,-3.6429,-3.6602,-3.7132,-3.774,-3.8318,-3.885,-3.9535,-3.9966,-3.9966,-4.0188,-4.0421,-4.0421,-4.0525,-4.0583,-4.0583,-4.0769,-4.0954,-4.1184,-4.1184,-4.1184,-4.1184,-4.1287,-4.1447,-4.1606,-4.172,-4.1915,-4.211,-4.211,-4.211,-4.211,-4.1859,-4.1789,-4.1789,-4.1631,-4.1631,-4.1789,-4.1789,-4.1915,-4.211,-4.211,-4.211,-4.211,-4.211,-4.1984,-4.1789,-4.1789,-4.1688,-4.1586,-4.1745,-4.1846,-4.2004,-4.2413,-4.2806,-4.324,-4.3628,-4.4026,-4.4261,-4.4149,-4.4027,-4.382,-4.3598,-4.3101,-4.2696,-4.2696,-4.2526,-4.2369,-4.2369,-4.2369,-4.2252,-4.1899,-4.1847,-4.1716,-4.1363,-4.1625,-4.2049,-4.2588,-4.2944,-4.3373,-4.3963,-4.4013,-4.4013,-4.4013,-4.4013,-4.4013,-4.4013,-4.4013,-4.4284,-4.4881,-4.4959,-4.5086,-4.5302,-4.5619,-4.5595,-4.5341,-4.5059,-4.4843,-4.4668,-4.4668,-4.4668,-4.4668,-4.4668,-4.489,-4.531,-4.5532,-4.5999,-4.6678,-4.7109,-4.7545,-4.7898,-4.8107,-4.8185,-4.8185,-3.632,-3.632,-3.632,-3.632,-3.6404,-3.6691,-3.7196,-3.7712,-3.8229,-3.8746,-3.9289,-3.9614,-3.9614,-3.9896,-4.0071,-4.0071,-4.0176,-4.0223,-4.0223,-4.0421,-4.0723,-4.1184,-4.1184,-4.1184,-4.1184,-4.1184,-4.1287,-4.1447,-4.1447,-4.1561,-4.1814,-4.1814,-4.1814,-4.1814,-4.1561,-4.1447,-4.1447,-4.1287,-4.1287,-4.1447,-4.1447,-4.1618,-4.1814,-4.1814,-4.1814,-4.1814,-4.1814,-4.1688,-4.1447,-4.1447,-4.1344,-4.1242,-4.1447,-4.1549,-4.172,-4.2287,-4.2638,-4.2918,-4.3184,-4.3628,-4.4081,-4.4258,-4.4219,-4.4134,-4.4134,-4.3702,-4.3284,-4.3284,-4.3141,-4.3023,-4.3023,-4.3023,-4.2892,-4.25,-4.2435,-4.2304,-4.1899,-4.2186,-4.264,-4.3048,-4.3533,-4.3991,-4.4489,-4.4654,-4.4705,-4.4705,-4.4705,-4.4654,-4.454,-4.4614,-4.4897,-4.5302,-4.5269,-4.5206,-4.5153,-4.5356,-4.5395,-4.518,-4.4843,-4.4668,-4.4668,-4.4668,-4.4668,-4.4668,-4.4668,-4.502,-4.5637,-4.582,-4.646,-4.7291,-4.7532,-4.7845,-4.8185,-4.8185,-4.8185,-4.8185,-3.632,-3.632,-3.632,-3.6277,-3.6691,-3.7207,-3.7712,-3.824,-3.8757,-3.9239,-3.9308,-3.9308,-3.9308,-3.9614,-3.9802,-3.9802,-4.0013,-4.0165,-4.0223,-4.0223,-4.0467,-4.1184,-4.1184,-4.1184,-4.1184,-4.1184,-4.1184,-4.1184,-4.1184,-4.1184,-4.1184,-4.1184,-4.1184,-4.1184,-4.1184,-4.1184,-4.1184,-4.1184,-4.1184,-4.1184,-4.1184,-4.1184,-4.1184,-4.1184,-4.1184,-4.1184,-4.1184,-4.1184,-4.1184,-4.1184,-4.1184,-4.1184,-4.1184,-4.139,-4.172,-4.2287,-4.2525,-4.2581,-4.2918,-4.3184,-4.356,-4.4148,-4.4518,-4.4668,-4.4668,-4.4291,-4.3939,-4.3939,-4.3428,-4.3036,-4.3036,-4.3036,-4.3036,-4.3036,-4.3036,-4.3036,-4.3023,-4.3023,-4.3127,-4.3373,-4.3631,-4.3939,-4.4171,-4.4503,-4.4719,-4.4719,-4.4719,-4.4553,-4.4221,-4.4527,-4.469,-4.469,-4.5302,-4.5448,-4.518,-4.518,-4.518,-4.5193,-4.4843,-4.4668,-4.4668,-4.4668,-4.4668,-4.4668,-4.4668,-4.5075,-4.5676,-4.6238,-4.6826,-4.7344,-4.7963,-4.8185,-4.8185,-4.8185,-4.8185,-4.8185,-3.632,-3.632,-3.6381,-3.6736,-3.6932,-3.7333,-3.8217,-3.8481,-3.8757,-3.9239,-3.9308,-3.9308,-3.9308,-3.9367,-3.9426,-3.9426,-3.9544,-3.9661,-3.9908,-3.9908,-4.0071,-4.0467,-4.0711,-4.0954,-4.1184,-4.1184,-4.1184,-4.1184,-4.1184,-4.1184,-4.1184,-4.1184,-4.1184,-4.1184,-4.1184,-4.1184,-4.1184,-4.1184,-4.1184,-4.1184,-4.1184,-4.1184,-4.1184,-4.1184,-4.1184,-4.1184,-4.1184,-4.1184,-4.1184,-4.1184,-4.1184,-4.1184,-4.1184,-4.139,-4.1663,-4.2086,-4.2369,-4.2581,-4.2918,-4.3184,-4.3517,-4.3942,-4.4203,-4.4463,-4.4681,-4.4604,-4.4474,-4.4474,-4.4343,-4.4212,-4.4212,-4.4212,-4.4081,-4.3689,-4.3611,-4.348,-4.3075,-4.3363,-4.3717,-4.4019,-4.4507,-4.4864,-4.5128,-4.53,-4.5352,-4.5352,-4.5352,-4.53,-4.5181,-4.5302,-4.5342,-4.5342,-4.5302,-4.5287,-4.518,-4.518,-4.5072,-4.4843,-4.4735,-4.4668,-4.4668,-4.4668,-4.4668,-4.4668,-4.4668,-4.5297,-4.6238,-4.6408,-4.6934,-4.7587,-4.7756,-4.769,-4.7514,-4.7514,-4.7632,-4.788,-3.632,-3.632,-3.6427,-3.6943,-3.7207,-3.7552,-3.8274,-3.8559,-3.8729,-3.8919,-3.8953,-3.8953,-3.9119,-3.9119,-3.9178,-3.9308,-3.9308,-3.9367,-3.9614,-3.9614,-3.9732,-4.0013,-4.0258,-4.0491,-4.0826,-4.0826,-4.0826,-4.0826,-4.0826,-4.0826,-4.0826,-4.0826,-4.0826,-4.0826,-4.0826,-4.0826,-4.0826,-4.0826,-4.0826,-4.0826,-4.0826,-4.0826,-4.0826,-4.0954,-4.1012,-4.1012,-4.1012,-4.1012,-4.1012,-4.1012,-4.1069,-4.1184,-4.1184,-4.1287,-4.1504,-4.1802,-4.2086,-4.2425,-4.2694,-4.3017,-4.3295,-4.3653,-4.3929,-4.4203,-4.4463,-4.4518,-4.4572,-4.4681,-4.4668,-4.4668,-4.4668,-4.4668,-4.4617,-4.4264,-4.4212,-4.4095,-4.3742,-4.4003,-4.4266,-4.4466,-4.4902,-4.5234,-4.5448,-4.5555,-4.5595,-4.5595,-4.5502,-4.5448,-4.5448,-4.5328,-4.5221,-4.5221,-4.5059,-4.5018,-4.5018,-4.5018,-4.4897,-4.4668,-4.4668,-4.4668,-4.4668,-4.4668,-4.4668,-4.4668,-4.4668,-4.5388,-4.6473,-4.636,-4.684,-4.769,-4.7573,-4.7383,-4.7205,-4.7205,-4.7324,-4.7514,-3.632,-3.632,-3.6427,-3.6943,-3.7392,-3.7839,-3.8076,-3.8506,-3.8704,-3.844,-3.838,-3.8488,-3.8752,-3.8752,-3.8871,-3.919,-3.9249,-3.9249,-3.9249,-3.9249,-3.9367,-3.9684,-3.9684,-3.9849,-4.0106,-4.0165,-4.0223,-4.0223,-4.0223,-4.0223,-4.0223,-4.0223,-4.0223,-4.0223,-4.0223,-4.0223,-4.0223,-4.0223,-4.0223,-4.0223,-4.0223,-4.0223,-4.0223,-4.0549,-4.0665,-4.0665,-4.0665,-4.0665,-4.0665,-4.0677,-4.0896,-4.1184,-4.1184,-4.1184,-4.1242,-4.1492,-4.1859,-4.2155,-4.2413,-4.275,-4.3085,-4.3283,-4.3585,-4.3899,-4.4216,-4.4258,-4.4313,-4.4572,-4.4681,-4.4681,-4.4681,-4.4681,-4.4668,-4.4668,-4.4668,-4.4668,-4.4668,-4.4668,-4.4668,-4.4668,-4.4951,-4.5139,-4.5139,-4.5395,-4.5542,-4.5542,-4.5287,-4.5139,-4.5139,-4.4843,-4.4668,-4.4668,-4.4668,-4.4668,-4.4668,-4.4681,-4.4681,-4.4668,-4.4681,-4.4681,-4.4681,-4.4626,-4.4626,-4.4626,-4.4626,-4.5278,-4.6417,-4.6065,-4.661,-4.7573,-4.7265,-4.7121,-4.7069,-4.7069,-4.7044,-4.6993,-3.632,-3.632,-3.6427,-3.6943,-3.7234,-3.7576,-3.8018,-3.834,-3.8488,-3.844,-3.838,-3.844,-3.8488,-3.8488,-3.8488,-3.8608,-3.8619,-3.8619,-3.8619,-3.8619,-3.8727,-3.899,-3.899,-3.9178,-3.9473,-3.9943,-4.0223,-4.0223,-4.0223,-4.0223,-4.0223,-4.0223,-4.0223,-4.0223,-4.0223,-4.0223,-4.0223,-4.0223,-4.0223,-4.0223,-4.0223,-4.0223,-4.0235,-4.0293,-4.0293,-4.0293,-4.0293,-4.0293,-4.0351,-4.0607,-4.0723,-4.0838,-4.1127,-4.1184,-4.1242,-4.1492,-4.1859,-4.2155,-4.2413,-4.275,-4.303,-4.3085,-4.3141,-4.3321,-4.3887,-4.401,-4.3997,-4.4052,-4.4258,-4.4367,-4.4367,-4.4572,-4.4668,-4.4668,-4.4668,-4.4668,-4.4668,-4.4668,-4.4668,-4.4668,-4.4789,-4.4789,-4.4789,-4.4843,-4.4897,-4.4897,-4.4843,-4.4789,-4.4789,-4.4735,-4.4668,-4.4668,-4.4668,-4.4668,-4.4668,-4.4463,-4.4463,-4.4668,-4.4463,-4.4367,-4.4367,-4.4161,-4.4052,-4.4052,-4.4052,-4.475,-4.5794,-4.5737,-4.6174,-4.6972,-4.6913,-4.6455,-4.5885,-4.5885,-4.5725,-4.5565,-3.632,-3.632,-3.6427,-3.6732,-3.7065,-3.7404,-3.7657,-3.7926,-3.813,-3.7938,-3.7938,-3.7998,-3.813,-3.819,-3.8249,-3.838,-3.838,-3.838,-3.838,-3.838,-3.8429,-3.8596,-3.8585,-3.8716,-3.8846,-3.919,-3.9473,-3.9767,-3.9767,-3.9767,-3.9767,-3.9767,-3.9767,-3.9767,-3.9767,-3.9767,-3.9767,-3.9767,-3.9767,-3.9767,-3.9767,-3.9767,-3.9767,-3.9954,-4.0013,-4.0013,-4.0013,-4.0013,-4.0071,-4.0363,-4.0549,-4.0781,-4.1069,-4.1184,-4.1242,-4.139,-4.1745,-4.2098,-4.2256,-4.265,-4.2974,-4.2974,-4.2974,-4.3141,-4.3543,-4.364,-4.3708,-4.3899,-4.3997,-4.4161,-4.4258,-4.4422,-4.4572,-4.4681,-4.4668,-4.4668,-4.4668,-4.4668,-4.4668,-4.4668,-4.4668,-4.4681,-4.4518,-4.4367,-4.4313,-4.4313,-4.4313,-4.4367,-4.4518,-4.4518,-4.4572,-4.4668,-4.4668,-4.4626,-4.4518,-4.4367,-4.4313,-4.4313,-4.4161,-4.4107,-4.4107,-4.3955,-4.3899,-4.3899,-4.3899,-4.4374,-4.5168,-4.5336,-4.5635,-4.6019,-4.6121,-4.575,-4.507,-4.507,-4.4999,-4.4863,-3.6168,-3.6168,-3.6196,-3.6396,-3.6782,-3.714,-3.7077,-3.7443,-3.7637,-3.7325,-3.7264,-3.7385,-3.7698,-3.7758,-3.7938,-3.819,-3.8249,-3.8249,-3.8249,-3.8249,-3.8249,-3.8309,-3.8309,-3.832,-3.838,-3.838,-3.8667,-3.9131,-3.9178,-3.9238,-3.9238,-3.9249,-3.9308,-3.9308,-3.9308,-3.9308,-3.9308,-3.9308,-3.9308,-3.9308,-3.9308,-3.9308,-3.9308,-3.9614,-3.9684,-3.9684,-3.9684,-3.9684,-3.9743,-4.0118,-4.0351,-4.0665,-4.1069,-4.1184,-4.1184,-4.1184,-4.1586,-4.2041,-4.2098,-4.2481,-4.2918,-4.2974,-4.2974,-4.3085,-4.3295,-4.3338,-4.3406,-4.3666,-4.3776,-4.3887,-4.4094,-4.4258,-4.4367,-4.4626,-4.4681,-4.4668,-4.4668,-4.4681,-4.4626,-4.4626,-4.4572,-4.4463,-4.4258,-4.4052,-4.3899,-4.3899,-4.3899,-4.3997,-4.4203,-4.4203,-4.4313,-4.4572,-4.4572,-4.4463,-4.4203,-4.4203,-4.4039,-4.3832,-4.3776,-4.3776,-4.3832,-4.3776,-4.3734,-4.3734,-4.3734,-4.4028,-4.4564,-4.4821,-4.4947,-4.5029,-4.5276,-4.4982,-4.4468,-4.438,-4.4342,-4.4342,-3.5533,-3.5533,-3.5556,-3.5556,-3.6104,-3.6498,-3.6507,-3.6817,-3.7043,-3.6982,-3.6728,-3.6667,-3.6982,-3.7264,-3.7506,-3.7506,-3.7566,-3.7566,-3.7566,-3.7566,-3.7687,-3.7938,-3.7938,-3.813,-3.838,-3.838,-3.844,-3.85,-3.8764,-3.8871,-3.8871,-3.9178,-3.9308,-3.9308,-3.9308,-3.9308,-3.9308,-3.9308,-3.9308,-3.9308,-3.9308,-3.9308,-3.9308,-3.9367,-3.9367,-3.9367,-3.9367,-3.9367,-3.9426,-4.0001,-4.0223,-4.0409,-4.1,-4.1184,-4.1184,-4.1184,-4.139,-4.172,-4.2041,-4.2312,-4.2638,-4.2918,-4.2974,-4.303,-4.303,-4.303,-4.3085,-4.3085,-4.3308,-4.3462,-4.3504,-4.3971,-4.4313,-4.4367,-4.4572,-4.4668,-4.4668,-4.4518,-4.4367,-4.4367,-4.4161,-4.401,-4.3955,-4.3899,-4.3899,-4.3899,-4.3899,-4.3899,-4.3955,-4.3955,-4.3955,-4.3997,-4.3997,-4.401,-4.3955,-4.3696,-4.3504,-4.3449,-4.3252,-4.3252,-4.3462,-4.3252,-4.3098,-4.3098,-4.3098,-4.34,-4.3916,-4.3935,-4.4249,-4.4689,-4.4719,-4.4405,-4.3853,-4.3376,-4.32,-4.32,-3.5423,-3.5423,-3.5368,-3.5202,-3.5657,-3.5983,-3.5911,-3.6259,-3.6559,-3.6635,-3.6484,-3.6484,-3.6606,-3.6717,-3.6839,-3.6839,-3.6839,-3.6839,-3.6839,-3.6839,-3.69,-3.7093,-3.7214,-3.7407,-3.7528,-3.7758,-3.7818,-3.7818,-3.8358,-3.8596,-3.8596,-3.8716,-3.8786,-3.8786,-3.8786,-3.8786,-3.8786,-3.8942,-3.899,-3.9049,-3.9238,-3.9308,-3.9308,-3.9308,-3.9308,-3.9308,-3.9308,-3.9308,-3.9367,-3.9837,-4.006,-4.0281,-4.0769,-4.1069,-4.1184,-4.1184,-4.139,-4.1606,-4.1789,-4.2029,-4.2369,-4.2638,-4.275,-4.275,-4.2974,-4.2974,-4.2974,-4.2974,-4.3085,-4.324,-4.3394,-4.3628,-4.3861,-4.4052,-4.4161,-4.4258,-4.4258,-4.4161,-4.4052,-4.4052,-4.3819,-4.364,-4.364,-4.3487,-4.3376,-4.3376,-4.3376,-4.3432,-4.3585,-4.364,-4.3708,-4.3899,-4.3899,-4.3832,-4.364,-4.3462,-4.3338,-4.3184,-4.3085,-4.3085,-4.3184,-4.303,-4.2974,-4.2974,-4.2974,-4.3112,-4.3363,-4.3677,-4.3765,-4.374,-4.4053,-4.3827,-4.3313,-4.3074,-4.2974,-4.2974]}]]